[[{"header":{"parameterUnit":"m.s-1","parameterCategory":1,"la1":30.6,"la2":28.766,"lo1":-90.7593,"lo2":-88.6598,"dy":0.0162,"dx":0.0183,"nx":116,"ny":114,"refTime":"2024-06-17T18:00:00:Z","depth":0,"parameterNumber":2,"parameterNumberName":"U-component_of_WINDS"},"data":[0.0,0.0,0.0,0.0,0.0,0.0,0.0,0.0,0.0,0.0,0.0,0.0,0.0,0.0,0.0,0.0,0.0,0.0,0.0,0.0,0.0,0.0,0.0,0.0,0.0,0.0,0.0,0.0,0.0,0.0,0.0,0.0,0.0,0.0,0.0,0.0,0.0,0.0,0.0,0.0,0.0,0.0,0.0,0.0,0.0,0.0,0.0,0.0,0.0,0.0,0.0,0.0,0.0,0.0,0.0,0.0,0.0,0.0,0.0,0.0,0.0,0.0,0.0,0.0,0.0,0.0,0.0,0.0,0.0,0.0,0.0,0.0,0.0,0.0,0.0,0.0,0.0,0.0,0.0,0.0,0.0,0.0,0.0,0.0,0.0,0.0,0.0,0.0,0.0,0.0,0.0,0.0,0.0,0.0,0.0,0.0,0.0,0.0,0.0,0.0,0.0,0.0,0.0,0.0,0.0,0.0,0.0,0.0,0.0,0.0,0.0,0.0,0.0,0.0,0.0,0.0,0.0,0.0,0.0,0.0,0.0,0.0,0.0,0.0,0.0,0.0,0.0,0.0,0.0,0.0,0.0,0.0,0.0,0.0,0.0,0.0,0.0,0.0,0.0,0.0,0.0,0.0,0.0,0.0,0.0,0.0,0.0,0.0,0.0,0.0,0.0,0.0,0.0,0.0,0.0,0.0,0.0,0.0,0.0,0.0,0.0,0.0,0.0,0.0,0.0,0.0,0.0,0.0,0.0,0.0,0.0,0.0,0.0,0.0,0.0,0.0,0.0,0.0,0.0,0.0,0.0,0.0,0.0,0.0,0.0,0.0,0.0,0.0,0.0,0.0,0.0,0.0,0.0,0.0,0.0,0.0,0.0,0.0,0.0,0.0,0.0,0.0,0.0,0.0,0.0,0.0,0.0,0.0,0.0,0.0,0.0,0.0,0.0,0.0,0.0,0.0,0.0,0.0,0.0,0.0,0.0,0.0,0.0,0.0,0.0,0.0,0.0,0.0,0.0,0.0,0.0,0.0,0.0,0.0,0.0,0.0,0.0,0.0,0.0,0.0,0.0,0.0,0.0,0.0,0.0,0.0,0.0,0.0,0.0,0.0,0.0,0.0,0.0,0.0,0.0,0.0,0.0,0.0,0.0,0.0,0.0,0.0,0.0,0.0,0.0,0.0,0.0,0.0,0.0,0.0,0.0,0.0,0.0,0.0,0.0,0.0,0.0,0.0,0.0,0.0,0.0,0.0,0.0,0.0,0.0,0.0,0.0,0.0,0.0,0.0,0.0,0.0,0.0,0.0,0.0,0.0,0.0,0.0,0.0,0.0,0.0,0.0,0.0,0.0,0.0,0.0,0.0,0.0,0.0,0.0,0.0,0.0,0.0,0.0,0.0,0.0,0.0,0.0,0.0,0.0,0.0,0.0,0.0,0.0,0.0,0.0,0.0,0.0,0.0,0.0,0.0,0.0,0.0,0.0,0.0,0.0,0.0,0.0,0.0,0.0,0.0,0.0,0.0,0.0,0.0,0.0,0.0,0.0,0.0,0.0,0.0,0.0,0.0,0.0,0.0,0.0,0.0,0.0,0.0,0.0,0.0,0.0,0.0,0.0,0.0,0.0,0.0,0.0,0.0,0.0,0.0,0.0,0.0,0.0,0.0,0.0,0.0,0.0,0.0,0.0,0.0,0.0,0.0,0.0,0.0,0.0,0.0,0.0,0.0,0.0,0.0,0.0,0.0,0.0,0.0,0.0,0.0,0.0,0.0,0.0,0.0,0.0,0.0,0.0,0.0,0.0,0.0,0.0,0.0,0.0,0.0,0.0,0.0,0.0,0.0,0.0,0.0,0.0,0.0,0.0,0.0,0.0,0.0,0.0,0.0,0.0,0.0,0.0,0.0,0.0,0.0,0.0,0.0,0.0,0.0,0.0,0.0,0.0,0.0,0.0,0.0,0.0,0.0,0.0,0.0,0.0,0.0,0.0,0.0,0.0,0.0,0.0,0.0,0.0,0.0,0.0,0.0,0.0,0.0,0.0,0.0,0.0,0.0,0.0,0.0,0.0,0.0,0.0,0.0,0.0,0.0,0.0,0.0,0.0,0.0,0.0,0.0,0.0,0.0,0.0,0.0,0.0,0.0,0.0,0.0,0.0,0.0,0.0,0.0,0.0,0.0,0.0,0.0,0.0,0.0,0.0,0.0,0.0,0.0,0.0,0.0,0.0,0.0,0.0,0.0,0.0,0.0,0.0,0.0,0.0,0.0,0.0,0.0,0.0,0.0,0.0,0.0,0.0,0.0,0.0,0.0,0.0,0.0,0.0,0.0,0.0,0.0,0.0,0.0,0.0,0.0,0.0,0.0,0.0,0.0,0.0,0.0,0.0,0.0,0.0,0.0,0.0,0.0,0.0,0.0,0.0,0.0,0.0,0.0,0.0,0.0,0.0,0.0,0.0,0.0,0.0,0.0,0.0,0.0,0.0,0.0,0.0,0.0,0.0,0.0,0.0,0.0,0.0,0.0,0.0,0.0,0.0,0.0,0.0,0.0,0.0,0.0,0.0,0.0,0.0,0.0,0.0,0.0,0.0,0.0,0.0,0.0,0.0,0.0,0.0,0.0,0.0,0.0,0.0,0.0,0.0,0.0,0.0,0.0,0.0,0.0,0.0,0.0,0.0,0.0,0.0,0.0,0.0,0.0,0.0,0.0,0.0,0.0,0.0,0.0,0.0,0.0,0.0,0.0,0.0,0.0,0.0,0.0,0.0,0.0,0.0,0.0,0.0,0.0,0.0,0.0,0.0,0.0,0.0,0.0,0.0,0.0,0.0,0.0,0.0,0.0,0.0,0.0,0.0,0.0,0.0,0.0,0.0,0.0,0.0,0.0,0.0,0.0,0.0,0.0,0.0,0.0,0.0,0.0,0.0,0.0,0.0,0.0,0.0,0.0,0.0,0.0,0.0,0.0,0.0,0.0,0.0,0.0,0.0,0.0,0.0,0.0,0.0,0.0,0.0,0.0,0.0,0.0,0.0,0.0,0.0,0.0,0.0,0.0,0.0,0.0,0.0,0.0,0.0,0.0,0.0,0.0,0.0,0.0,0.0,0.0,0.0,0.0,0.0,0.0,0.0,0.0,0.0,0.0,0.0,0.0,0.0,0.0,0.0,0.0,0.0,0.0,0.0,0.0,0.0,0.0,0.0,0.0,0.0,0.0,0.0,0.0,0.0,0.0,0.0,0.0,0.0,0.0,0.0,0.0,0.0,0.0,0.0,0.0,0.0,0.0,0.0,0.0,0.0,0.0,0.0,0.0,0.0,0.0,0.0,0.0,0.0,0.0,0.0,0.0,0.0,0.0,0.0,0.0,0.0,0.0,0.0,0.0,0.0,0.0,0.0,0.0,0.0,0.0,0.0,0.0,0.0,0.0,0.0,0.0,0.0,0.0,0.0,0.0,0.0,0.0,0.0,0.0,0.0,0.0,0.0,0.0,0.0,0.0,0.0,0.0,0.0,0.0,0.0,0.0,0.0,0.0,0.0,0.0,0.0,0.0,0.0,0.0,0.0,0.0,0.0,0.0,0.0,0.0,0.0,0.0,0.0,0.0,0.0,0.0,0.0,0.0,0.0,0.0,0.0,0.0,0.0,0.0,0.0,0.0,0.0,0.0,0.0,0.0,0.0,0.0,0.0,0.0,0.0,0.0,0.0,0.0,0.0,0.0,0.0,0.0,0.0,0.0,0.0,0.0,0.0,0.0,0.0,0.0,0.0,0.0,0.0,0.0,0.0,0.0,0.0,0.0,0.0,0.0,0.0,0.0,0.0,0.0,0.0,0.0,0.0,0.0,0.0,0.0,0.0,0.0,0.0,0.0,0.0,0.0,0.0,0.0,0.0,0.0,0.0,0.0,0.0,0.0,0.0,0.0,0.0,0.0,0.0,0.0,0.0,0.0,0.0,0.0,0.0,0.0,0.0,0.0,0.0,0.0,0.0,0.0,0.0,0.0,0.0,0.0,0.0,0.0,0.0,0.0,0.0,0.0,0.0,0.0,0.0,0.0,0.0,0.0,0.0,0.0,0.0,0.0,0.0,0.0,0.0,0.0,0.0,0.0,0.0,0.0,0.0,0.0,0.0,0.0,0.0,0.0,0.0,0.0,0.0,0.0,0.0,0.0,0.0,0.0,0.0,0.0,0.0,0.0,0.0,0.0,0.0,0.0,0.0,0.0,0.0,0.0,0.0,0.0,0.0,0.0,0.0,0.0,0.0,0.0,0.0,0.0,0.0,0.0,0.0,0.0,0.0,0.0,0.0,0.0,0.0,0.0,0.0,0.0,0.0,0.0,0.0,0.0,0.0,0.0,0.0,0.0,0.0,0.0,0.0,0.0,0.0,0.0,0.0,0.0,0.0,0.0,0.0,0.0,0.0,0.0,0.0,0.0,0.0,0.0,0.0,0.0,0.0,0.0,0.0,0.0,0.0,0.0,0.0,0.0,0.0,0.0,0.0,0.0,0.0,0.0,0.0,0.0,0.0,0.0,0.0,0.0,0.0,0.0,0.0,0.0,0.0,0.0,0.0,0.0,0.0,0.0,0.0,0.0,0.0,0.0,0.0,0.0,0.0,0.0,0.0,0.0,0.0,0.0,0.0,0.0,0.0,0.0,0.0,0.0,0.0,0.0,0.0,0.0,0.0,0.0,0.0,0.0,0.0,0.0,0.0,0.0,0.0,0.0,0.0,0.0,0.0,0.0,0.0,0.0,0.0,0.0,0.0,0.0,0.0,0.0,0.0,0.0,0.0,0.0,0.0,0.0,0.0,0.0,0.0,0.0,0.0,0.0,0.0,0.0,0.0,0.0,0.0,0.0,0.0,0.0,0.0,0.0,0.0,0.0,0.0,0.0,0.0,0.0,0.0,0.0,0.0,0.0,0.0,0.0,0.0,0.0,0.0,0.0,0.0,0.0,0.0,0.0,0.0,0.0,0.0,0.0,0.0,0.0,0.0,0.0,0.0,0.0,0.0,0.0,0.0,0.0,0.0,0.0,0.0,0.0,0.0,0.0,0.0,0.0,0.0,0.0,0.0,0.0,0.0,0.0,0.0,0.0,0.0,0.0,0.0,0.0,0.0,0.0,0.0,0.0,0.0,0.0,0.0,0.0,0.0,0.0,0.0,0.0,0.0,0.0,0.0,0.0,0.0,0.0,0.0,0.0,0.0,0.0,0.0,0.0,0.0,0.0,0.0,0.0,0.0,0.0,0.0,0.0,0.0,0.0,0.0,0.0,0.0,0.0,0.0,0.0,0.0,0.0,0.0,0.0,0.0,0.0,0.0,0.0,0.0,0.0,0.0,0.0,0.0,0.0,0.0,0.0,0.0,0.0,0.0,0.0,0.0,0.0,0.0,0.0,0.0,0.0,0.0,0.0,0.0,0.0,0.0,0.0,0.0,0.0,0.0,0.0,0.0,0.0,0.0,0.0,0.0,0.0,0.0,0.0,0.0,0.0,0.0,0.0,0.0,0.0,0.0,0.0,0.0,0.0,0.0,0.0,0.0,0.0,0.0,0.0,0.0,0.0,0.0,0.0,0.0,0.0,0.0,0.0,0.0,0.0,0.0,0.0,0.0,0.0,0.0,0.0,0.0,0.0,0.0,0.0,0.0,0.0,0.0,0.0,0.0,0.0,0.0,0.0,0.0,0.0,0.0,0.0,0.0,0.0,0.0,0.0,0.0,0.0,0.0,0.0,0.0,0.0,0.0,0.0,0.0,0.0,0.0,0.0,0.0,0.0,0.0,0.0,0.0,0.0,0.0,0.0,0.0,0.0,0.0,0.0,0.0,0.0,0.0,0.0,0.0,0.0,0.0,0.0,0.0,0.0,0.0,0.0,0.0,0.0,0.0,0.0,0.0,0.0,0.0,0.0,0.0,0.0,0.0,0.0,0.0,0.0,0.0,0.0,0.0,0.0,0.0,0.0,0.0,0.0,0.0,0.0,0.0,0.0,0.0,0.0,0.0,0.0,0.0,0.0,0.0,0.0,0.0,0.0,0.0,0.0,0.0,0.0,0.0,0.0,0.0,0.0,0.0,0.0,0.0,0.0,0.0,0.0,0.0,0.0,0.0,-0.3407,0.0462,0.0,0.0,0.0,0.0,0.0,0.0,0.0,0.0,0.0,0.0,0.0,0.0,0.0,0.0,0.0,0.0,0.0,0.0,0.0,0.0,0.0,0.0,0.0,0.6441,0.667,0.6888,0.7004,0.7313,0.7858,0.0,0.0,0.0,0.0,0.0,0.5024,0.4313,0.4448,0.5455,0.4986,0.4913,0.521,0.5577,0.5855,0.6062,0.0,0.0,0.0,0.0,0.0,0.0,0.0,0.0,0.0,0.0,0.0,0.0,0.0,0.0,0.0,0.0,0.0,0.0,0.0,0.0,0.0,0.0,0.0,0.0,0.0,0.0,0.0,0.0,0.0,0.0,0.0,0.0,0.0,0.0,0.0,0.0,0.0,0.0,0.0,0.0,0.0,0.0,0.0,0.0,0.0,0.0,0.0,0.0,0.0,0.0,0.0,0.0,0.0,0.0,0.0,0.0,0.0,0.0,0.0,0.0,0.0,0.0,0.0,0.0,0.0,0.0,0.0,0.0,0.0,0.0,-0.8881,-0.5741,0.0,0.0,0.0,0.0,0.0,0.0,0.0,0.0,0.0,0.0,0.0,0.0,0.0,0.0,0.0,0.0,0.0,0.0,0.0,0.0,0.0,0.6306,0.5707,0.5822,0.6145,0.6665,0.6713,0.7119,0.807,0.813,0.0,0.0,0.0,0.5616,0.4592,0.3948,0.3838,0.4246,0.4132,0.4343,0.4828,0.5178,0.5598,0.6031,0.6892,0.0,0.0,0.0,0.0,0.0,0.0,0.0,0.0,0.0,0.0,0.0,0.0,0.0,0.0,0.0,0.0,0.0,0.0,0.0,0.0,0.0,0.0,0.0,0.0,0.0,0.0,0.0,0.0,0.0,0.0,0.0,0.0,0.0,0.0,0.0,0.0,0.0,0.0,0.0,0.0,0.0,0.0,0.0,0.0,0.0,0.0,0.0,0.0,0.0,0.0,0.0,0.0,0.0,0.0,0.0,0.0,0.0,0.0,0.0,0.0,0.0,0.0,0.0,-1.6638,-1.708,-1.7646,-1.765,-1.822,-1.9022,-1.509,-1.3273,-1.2752,-0.8625,0.0,0.0,0.0,0.0,0.0,0.0,0.0,0.0,0.0,0.0,0.0,0.0,0.0,0.0,0.0,0.0,0.0,0.0,0.0,0.5616,0.5074,0.5195,0.5801,0.7023,0.7123,0.7579,0.8625,0.8576,0.796,0.6714,0.5551,0.4769,0.4437,0.2675,0.2621,0.4371,0.385,0.3784,0.4127,0.4318,0.4699,0.529,0.6047,0.6206,0.5987,0.0,0.0,0.0,0.0,0.0,0.0,0.0,0.0,0.0,0.0,0.0,0.0,0.0,0.0,0.0,0.0,0.0,0.0,0.0,0.0,0.0,0.0,0.0,0.0,0.0,0.0,0.0,0.0,0.0,0.0,0.0,0.0,0.0,0.0,0.0,0.0,0.0,0.0,0.0,0.0,0.0,-0.5958,-0.7644,0.0,0.0,0.0,0.0,0.0,0.0,0.0,0.0,0.0,0.0,0.0,0.0,0.0,-1.5408,-1.6311,-1.7876,-1.9267,-2.0477,-2.2133,-2.3409,-2.4282,-2.4498,-2.4546,-2.4456,-2.3816,0.0,-1.4963,-1.4061,0.0,0.0,0.0,0.0,0.0,0.0,0.0,0.0,0.0,0.0,0.0,0.0,0.0,0.0,0.0,0.0,0.0,0.0,0.0,0.0,0.0,0.5447,0.666,0.7039,0.7867,0.8702,0.9428,0.927,0.8627,0.7432,0.6233,0.527,0.4528,0.3144,0.2689,0.3211,0.3015,0.3042,0.3215,0.3525,0.3845,0.4126,0.4656,0.5462,0.6427,0.6179,0.0,0.0,0.0,0.0,0.0,0.0,0.0,0.0,0.0,0.0,0.0,0.0,0.0,0.0,0.0,0.0,0.0,0.0,0.0,0.0,0.0,0.0,0.0,0.0,0.0,0.0,0.0,0.0,0.0,0.0,0.0,0.0,0.0,0.0,0.0,0.0,0.0,0.0,0.0,-0.708,-0.9272,-1.0427,-0.952,-0.8918,0.0,0.0,0.0,0.0,0.0,0.0,0.0,0.0,0.0,-2.0048,-1.9975,-2.0348,-2.1114,-2.204,-2.307,-2.4261,-2.5116,-2.5787,-2.6275,-2.6433,-2.6422,-2.6275,-2.6275,-2.4445,-2.1293,-1.914,-1.667,-1.4053,0.0,0.0,0.0,0.0,-1.2261,-1.274,0.0,0.0,0.0,0.0,0.0,0.0,0.0,0.0,0.0,0.0,0.0,0.0,0.4093,0.6093,0.7611,0.7765,0.8781,0.9427,0.9531,0.9527,0.8746,0.696,0.6153,0.5188,0.4013,0.3113,0.2494,0.2187,0.2185,0.2317,0.2515,0.2837,0.315,0.3407,0.3658,0.4667,0.6133,0.5547,0.5667,0.6263,0.0,0.0,0.0,0.0,0.0,0.0,0.0,0.0,0.0,0.0,0.0,0.0,0.0,0.0,0.0,0.0,0.0,0.0,0.0,0.0,0.0,0.0,0.0,0.0,0.0,0.0,0.0,0.0,0.0,0.0,0.0,0.0,0.0,0.0,0.0,0.0,0.0,-1.1167,-1.3196,-1.3999,-1.3929,-1.3778,0.0,0.0,0.0,0.0,0.0,0.0,-2.2104,-2.3089,-2.3986,-2.4775,-2.4688,-2.5009,-2.5848,-2.605,-2.664,-2.7586,-2.7531,-2.763,-2.7819,-2.7753,-2.7688,-2.7633,-2.7478,-2.7155,-2.6469,-2.33,-2.1225,-1.9879,-1.7731,-1.6461,-1.6007,-1.7229,-1.7643,-1.8063,0.0,0.0,0.0,0.0,0.0,0.0,0.0,0.0,0.0,0.0,0.0,0.5648,0.6096,0.7057,0.8276,0.9723,0.9745,0.9271,0.8345,0.8946,0.7758,0.4243,0.4164,0.3626,0.236,0.154,0.1362,0.1932,0.1565,0.1669,0.2209,0.2256,0.2763,0.3682,0.3564,0.3635,0.39,0.4506,0.4461,0.4213,0.5872,0.0,0.0,0.0,0.0,0.0,0.0,0.0,0.0,0.0,0.0,0.0,0.0,0.0,0.0,0.0,0.0,0.0,0.0,0.0,0.0,0.0,0.0,0.0,0.0,0.0,0.0,0.0,0.0,0.0,0.0,0.0,0.0,0.0,0.0,0.0,0.0,0.0,0.0,-1.9554,-1.9468,0.0,0.0,0.0,0.0,-2.0737,-2.3053,-2.4916,-2.6132,-2.6523,-2.721,-2.8381,-2.8689,-2.9014,-2.9527,-2.9789,-3.0051,-3.0279,-3.0051,-3.0063,-3.0302,-3.0063,-2.9823,-2.952,-2.9013,-2.8524,-2.7969,-2.6064,-2.3912,-2.182,-2.1238,-1.9723,-1.8241,-2.0555,-2.1581,-2.2121,0.0,0.0,0.0,0.0,0.0,0.4395,0.4129,0.4144,0.393,0.3235,0.4981,0.6017,0.523,0.8173,1.0341,1.0691,1.0257,1.0162,1.0636,0.8214,0.6464,0.5727,0.3962,0.1913,-0.0458,-0.0818,-0.1479,-0.2485,-0.2659,-0.2608,-0.2282,-0.0606,0.0372,0.0877,0.2478,0.248,0.1355,0.3029,0.4008,0.4412,0.3443,0.3538,0.0,0.0,0.0,0.0,0.0,0.0,0.0,0.0,0.0,0.0,0.0,0.0,0.0,0.0,0.0,0.0,0.0,0.0,0.0,0.0,0.0,0.0,0.0,0.0,0.0,0.0,0.0,0.0,0.0,0.0,0.0,0.0,0.0,0.0,0.0,0.0,0.0,-2.2145,-2.3028,0.0,-2.2624,-2.3625,-2.4548,-2.5065,-2.6723,-2.8128,-2.9103,-2.9567,-2.9967,-3.0387,-3.0614,-3.0685,-3.0533,-3.0625,-3.0662,-3.0754,-3.0662,-3.0662,-3.0754,-3.0662,-3.0559,-3.0468,-3.0092,-2.9723,-2.9361,-2.8543,-2.7239,-2.5744,-2.5615,-2.5083,-2.4483,-2.5191,-2.5509,-2.5681,0.0,0.0,0.0,0.0,0.3796,0.3355,0.3136,0.3085,0.2924,0.2425,0.4249,0.5334,0.4697,0.7722,0.9758,0.9554,0.9152,0.8931,0.9067,0.6601,0.4958,0.4466,0.196,-0.0577,-0.3102,-0.3406,-0.4078,-0.5148,-0.538,-0.5356,-0.5083,-0.3375,-0.2321,-0.1835,-0.0188,-0.0094,-0.112,0.0389,0.1427,0.2023,0.0746,0.0873,0.1816,0.0,0.0,0.0,0.0,0.0,0.0,0.0,0.0,0.0,0.0,0.0,0.0,0.0,0.0,0.0,0.0,0.0,0.0,0.0,0.0,0.0,0.0,0.0,0.0,0.0,0.0,0.0,0.0,0.0,0.0,0.0,0.0,0.0,0.0,-2.1413,-2.336,-2.4248,-2.5978,-2.6736,-2.5821,-2.6954,-2.7985,-2.851,-2.9569,-3.0527,-3.124,-3.1602,-3.1791,-3.1759,-3.1989,-3.1998,-3.16,-3.1787,-3.1822,-3.1729,-3.1729,-3.1694,-3.16,-3.1487,-3.1472,-3.1472,-3.1079,-3.082,-3.0646,-3.0369,-2.9754,-2.8938,-2.8563,-2.8282,-2.8161,-2.8138,-2.8026,-2.7876,0.0,0.0,0.0,0.3284,0.298,0.2619,0.1948,0.1756,0.1767,0.2009,0.272,0.3624,0.4759,0.5728,0.6362,0.6509,0.6414,0.5477,0.3476,0.4062,0.312,0.003,-0.2009,-0.3859,-0.5478,-0.6115,-0.6266,-0.5939,-0.6389,-0.637,-0.593,-0.583,-0.5238,-0.4256,-0.4217,-0.3961,-0.3523,-0.3455,-0.3375,-0.32,-0.2074,-0.2066,-0.2451,0.0,0.0,0.0,0.0,0.0,0.0,0.0,0.0,0.0,0.0,0.0,0.0,0.0,0.0,0.0,0.0,0.0,0.0,0.0,0.0,0.0,0.0,0.0,0.0,0.0,0.0,0.0,0.0,0.0,0.0,0.0,0.0,0.0,-2.2999,-2.48,-2.6174,-2.612,-2.8332,-2.9332,-2.8065,-2.9344,-3.0479,-3.101,-3.1541,-3.2073,-3.2592,-3.2628,-3.2628,-3.2652,-3.2881,-3.3014,-3.3014,-3.3533,-3.3666,-3.34,-3.34,-3.3268,-3.3014,-3.2748,-3.2628,-3.2616,-3.2025,-3.175,-3.1715,-3.1433,-3.1316,-3.1245,-2.9942,-2.9135,-2.8751,-2.926,-2.9084,-2.8699,0.0,0.0,0.2613,0.2312,0.1764,0.1273,0.0941,0.0893,0.0922,0.1008,0.2412,0.356,0.3973,0.5569,0.6643,0.6785,0.4138,0.2889,0.3963,0.1095,-0.1128,-0.2145,-0.4155,-0.6183,-0.8177,-0.8584,-0.9488,-1.0942,-1.1149,-1.1201,-1.0996,-0.9063,-0.7984,-0.7629,-0.5595,-0.5285,-0.6199,-0.6033,-0.6607,-0.7426,-0.5332,-0.3837,-0.2967,0.0,0.0,0.0,0.0,0.0,0.0,0.0,0.0,0.0,0.0,0.0,0.0,0.0,0.0,0.0,0.0,0.0,0.0,0.0,0.0,0.0,0.0,0.0,0.0,0.0,0.0,0.0,0.0,0.0,0.0,0.0,-2.4389,-2.5998,-2.5588,-2.7075,-2.8428,-2.8968,-3.003,-3.0684,-3.0708,-3.1107,-3.159,-3.2109,-3.2471,-3.2821,-3.3147,-3.334,-3.3569,-3.3726,-3.3823,-3.3859,-3.3859,-3.4049,-3.4016,-3.3956,-3.3956,-3.3919,-3.3859,-3.3787,-3.363,-3.3461,-3.3088,-3.2828,-3.2636,-3.2373,-3.2253,-3.2181,-3.1218,-3.0772,-3.0617,-3.0582,-3.0238,-2.9771,0.0,0.2683,0.1963,0.1512,0.1019,0.0622,0.0444,0.038,0.0341,0.0351,0.1343,0.2067,0.2133,0.3178,0.3866,0.3711,0.1625,0.0576,0.1243,-0.1916,-0.4305,-0.5462,-0.677,-0.8461,-1.0596,-1.0912,-1.1674,-1.2966,-1.3086,-1.314,-1.3089,-1.1532,-1.1185,-1.1777,-0.9202,-0.8982,-1.0521,-1.0232,-1.0646,-1.144,-1.0708,-0.8776,-0.6455,-0.7742,-0.671,-0.4635,-0.4784,-0.3857,-0.2524,-0.2526,0.0,0.0,0.0,0.0,0.0,0.0,0.0,0.0,0.0,0.0,0.0,0.0,0.0,0.0,0.0,0.0,0.0,0.0,0.0,0.0,0.0,0.0,0.0,0.0,-2.6728,-2.8258,-2.8439,-2.9163,-2.9984,-3.0793,-3.1252,-3.1674,-3.2097,-3.2133,-3.235,-3.2881,-3.3106,-3.3304,-3.369,-3.3859,-3.4016,-3.4185,-3.4185,-3.4185,-3.4185,-3.4281,-3.4281,-3.4185,-3.4281,-3.4281,-3.4185,-3.4185,-3.4088,-3.3956,-3.3666,-3.3473,-3.3304,-3.2917,-3.2748,-3.2688,0.0,0.0,0.0,0.0,-3.0805,-3.0503,0.0,0.2013,0.1697,0.091,0.0602,0.0424,0.029,0.0097,-0.0044,-0.0055,-0.0091,-0.0103,-0.0118,-0.0125,-0.0386,-0.0997,-0.1126,-0.1858,-0.3539,-0.5178,-0.7149,-0.9483,-0.9966,-1.1216,-1.3423,-1.363,-1.3821,-1.3966,-1.3973,-1.3979,-1.3991,-1.3979,-1.4789,-1.6224,-1.3905,-1.3843,-1.5462,-1.49,-1.4732,-1.503,-1.6799,-1.5143,-1.1705,-1.2471,-1.0878,-0.8247,-0.8807,-0.6689,-0.3887,-0.5594,0.0,0.0,0.0,0.0,0.0,0.0,0.0,0.0,0.0,0.0,0.0,0.0,0.0,0.0,0.0,0.0,0.0,0.0,0.0,0.0,0.0,0.0,0.0,0.0,-2.8741,-3.0214,-3.1022,-3.0938,-3.1046,-3.1771,-3.2085,-3.235,-3.2616,-3.2652,-3.2881,-3.3432,-3.3529,-3.3726,-3.4209,-3.4281,0.0,0.0,0.0,-3.4342,-3.4281,-3.4535,-3.4535,-3.4281,-3.4511,-3.4511,-3.4281,-3.4281,-3.4245,-3.4221,-3.3992,-3.3859,-3.3799,-3.328,-3.305,-3.2973,-3.241,-3.206,-3.1783,-3.124,-3.1046,-3.0998,0.0,0.1529,0.0944,0.0623,0.043,0.0283,0.0091,-0.0155,-0.0355,-0.0465,-0.0664,-0.0842,-0.0971,-0.1019,-0.1679,-0.3247,-0.4431,-0.5955,-0.7992,-0.9969,-1.1635,-1.2976,-1.4794,-1.6873,-1.9306,-1.9049,-1.902,-1.9387,-1.8965,-1.8793,-1.893,-1.8837,-1.8999,-1.9329,-1.6906,-1.6807,-1.8335,-1.6368,-1.6219,-1.7435,-1.8946,-1.8104,-1.5971,-1.5815,-1.5371,-1.4876,-1.5036,-1.4671,-1.4093,-1.3622,-1.3333,-1.2962,-1.1777,-1.0208,0.0,0.0,0.0,0.0,0.0,0.0,0.0,0.0,0.0,0.0,0.0,0.0,0.0,0.0,0.0,0.0,0.0,0.0,0.0,-2.8149,-2.9695,-3.1046,-3.1855,-3.1928,-3.1952,-3.2109,-3.235,-3.2628,-3.2881,-3.3111,-3.3376,-3.369,-3.4113,-3.4436,-3.4511,-3.4956,-3.5054,-3.4837,-3.5282,-3.5259,-3.4859,-3.509,-3.509,-3.4859,-3.4932,0.0,-3.4859,-3.4859,-3.4704,-3.4511,-3.4438,-3.4318,-3.4088,-3.3762,-3.3376,-3.2973,-3.241,-3.2169,-3.206,-3.1517,-3.1312,-3.124,0.1527,0.1161,0.0745,0.0532,0.0386,0.0198,-0.0111,-0.0297,-0.0467,-0.0661,-0.0808,-0.1175,-0.187,-0.1937,-0.2583,-0.43,-0.6225,-0.7962,-0.9444,-1.2486,-1.4722,-1.5819,-1.7954,-1.9811,-2.1226,-2.1079,-2.1077,-2.1318,-2.1114,-2.1104,-2.1282,-2.1232,-2.1916,-2.2991,-1.9415,-1.8937,-2.0706,-1.9312,-1.9147,-2.0065,-2.2896,-2.3346,-2.2193,-2.0862,-1.9767,-1.8993,-1.9608,-1.9229,-1.832,-1.7613,-1.7783,-1.8086,-1.6876,-1.5411,-1.3874,0.0,0.0,0.0,0.0,0.0,0.0,0.0,0.0,0.0,0.0,0.0,0.0,0.0,0.0,-2.4308,-2.557,0.0,-2.8922,-2.9851,-3.0902,-3.1783,-3.2314,-3.2495,-3.2592,-3.2592,-3.2724,-3.2954,-3.334,-3.3497,-3.3762,-3.4149,-3.4472,-3.4704,-3.497,-3.5223,-3.538,-3.538,-3.5646,-3.5646,-3.538,-3.538,-3.538,-3.5415,-3.5282,-3.5187,-3.5187,-3.5187,-3.503,-3.4764,-3.4644,-3.4511,-3.4342,-3.3956,-3.3533,-3.3147,-3.2748,-3.2435,-3.2169,-3.1891,-3.171,-3.1541,0.1092,0.0912,0.0683,0.0523,0.0358,0.011,-0.0245,-0.0383,-0.0554,-0.086,-0.1147,-0.1719,-0.2746,-0.2942,-0.3573,-0.4949,-0.7643,-0.966,-1.0542,-1.4266,-1.7287,-1.9149,-2.0996,-2.232,-2.3083,-2.3111,-2.3123,-2.3211,-2.3175,-2.3362,-2.3619,-2.3619,-2.4675,-2.6471,-2.18,-2.0933,-2.2877,-2.1587,-2.126,-2.1898,-2.5293,-2.6766,-2.6642,-2.4939,-2.3405,-2.2305,-2.3226,-2.2378,-2.0856,-2.1171,-2.2002,-2.2859,-2.2695,-2.1775,-2.0151,-1.7045,-1.5577,0.0,0.0,0.0,0.0,0.0,0.0,0.0,0.0,-2.2792,-2.3675,-2.4921,-2.6174,-2.7401,-2.8619,-2.9699,-3.0684,-3.1765,-3.2327,-3.2688,-3.2804,-3.2974,-3.3095,-3.3033,-3.3069,-3.3243,-3.3762,-3.3823,-3.4088,-3.4665,-3.4704,-3.4992,-3.5452,-3.5513,-3.5609,-3.5778,-3.5875,-3.5935,-3.5778,-3.5609,-3.5609,-3.5778,-3.5609,-3.5452,-3.538,-3.538,-3.5223,-3.497,-3.4799,-3.4607,-3.4475,-3.4052,-3.3666,-3.3396,-3.3147,-3.2748,-3.2338,-3.2242,-3.206,-3.1843,0.0,0.0789,0.0523,0.0507,0.0233,-0.0037,-0.0264,-0.0503,-0.0812,-0.1195,-0.2343,-0.321,-0.3486,-0.4284,-0.5048,-0.5649,-0.9591,-1.2565,-1.3706,-1.6459,-2.0078,-2.4605,-2.5169,-2.6458,-2.8819,-2.8415,-2.8289,-2.8557,-2.8093,-2.7983,-2.8268,-2.8268,-2.8558,-2.8835,-2.4245,-2.3341,-2.5067,-2.0875,-2.0059,-2.1618,-2.2112,-2.3181,-2.461,-2.4724,-2.5329,-2.6102,-2.6213,-2.5534,-2.493,-2.7756,-2.8022,-2.7645,-3.0138,-3.0155,-2.8138,-2.2559,-2.0191,-1.8573,-1.4862,-1.6635,-2.0141,-2.257,-2.3102,-2.3827,0.0,-2.7268,-2.722,-2.8548,-2.9513,-3.0317,-3.1022,-3.179,-3.2683,-3.3551,-3.3975,-3.4061,-3.3788,-3.3597,-3.3328,-3.3064,-3.3239,-3.3493,-3.3762,-3.4049,-3.4399,-3.4932,-3.5163,-3.5416,-3.5706,-3.5996,-3.6032,-3.5838,-3.6237,-3.6298,-3.5778,-3.6032,-3.6032,-3.5778,-3.5742,-3.5609,-3.538,-3.538,-3.5223,-3.5028,-3.4992,-3.4668,-3.4221,-3.4149,-3.388,-3.3376,-3.3396,-3.3147,-3.2845,-3.2374,-3.2181,-3.2085,0.0,0.0774,0.0493,0.05,0.022,-0.0075,-0.027,-0.0528,-0.0821,-0.1133,-0.1835,-0.2585,-0.3395,-0.4429,-0.5131,-0.5378,-0.8706,-1.168,-1.3707,-1.7827,-2.1762,-2.5432,-2.7079,-2.8503,-2.9791,-2.9709,-2.9751,-2.9858,-2.9655,-2.9766,-3.0156,-3.0156,-3.038,-3.0664,-2.7292,-2.5507,-2.4825,-2.2696,-2.1447,-2.095,-2.224,-2.3066,-2.363,-2.4898,-2.5453,-2.55,-2.5229,-2.5215,0.0,-2.6843,-2.7399,-2.807,-3.098,-2.9838,-2.6854,-2.4006,-2.2273,-2.1544,-2.2829,-2.2483,-2.2716,-2.6887,-2.7366,-2.7322,-2.9152,-2.9554,-2.9866,-3.1089,-3.1823,-3.2294,-3.2338,-3.2837,-3.3205,-3.3369,-3.3505,-3.358,-3.3604,-3.3377,-3.3176,-3.3033,-3.3074,-3.3304,-3.3762,-3.4016,-3.4475,-3.5163,-3.532,-3.5585,-3.6032,-3.6165,-3.6201,-3.6237,-3.6491,-3.6515,-3.6298,-3.6201,-3.6201,-3.6237,-3.6129,-3.5996,-3.5839,-3.5682,-3.538,-3.5028,-3.5028,-3.4668,-3.4185,-3.4185,-3.3859,-3.3432,-3.3768,-3.3862,-3.3635,-3.2768,-3.2326,-3.2145,0.0,0.1389,0.1159,0.1134,0.0882,0.0461,-0.0196,-0.0491,-0.0724,-0.1032,-0.1517,-0.2322,-0.3583,-0.4449,-0.4838,-0.4567,-0.7117,-1.0171,-1.355,-1.7991,-2.2234,-2.6094,-2.8215,-2.9453,-2.9791,-3.0069,-3.0214,-3.0214,-3.0214,-3.0443,-3.089,-3.089,-3.1143,-3.1472,-2.9013,-2.6563,-2.4222,-2.3388,-2.1638,-1.9506,-2.1052,-2.1829,-2.215,-2.3375,-2.3694,-2.3487,-2.3665,-2.3941,-2.4146,-2.4166,-2.4895,-2.6317,-2.9294,-2.849,-2.615,-2.4887,-2.3204,-2.2757,-2.7345,-2.676,-2.6099,-3.1193,-3.1801,-3.1225,-3.1741,-3.1739,-3.1907,-3.2748,-3.3113,-3.3267,-3.3276,-3.3388,-3.3535,-3.3592,-3.3598,-3.3641,-3.3741,-3.3413,-3.309,-3.2881,-3.2821,-3.3045,-3.3746,-3.3985,-3.4414,-3.5223,-3.551,-3.5836,-3.6201,-3.6432,-3.659,-3.6624,-3.6624,-3.6624,-3.6624,-3.6419,-3.6419,-3.6624,-3.6419,-3.6359,-3.6468,-3.6307,-3.5939,-3.5485,-3.5485,-3.5216,-3.4823,-3.4823,-3.4493,-3.4059,-3.4482,-3.4613,-3.4445,-3.3518,-3.2913,-3.2536,0.0,0.0,0.2815,0.2738,0.2556,0.1799,-0.002,-0.0368,-0.0548,-0.0949,-0.1983,-0.3144,-0.4419,-0.47,-0.4358,-0.3256,-0.5254,-0.8821,-1.4038,-1.6713,-2.108,-2.7818,-2.8681,-2.9272,-2.9791,-3.0069,-3.0214,-3.0214,-3.0214,-3.0358,-3.0624,-3.0624,-3.0769,-3.0918,-2.8573,-2.6211,-2.3847,-2.1601,-1.9257,-1.707,-1.6971,-1.7946,-1.9501,-1.929,-1.9661,-2.0571,-2.2458,-2.2211,-2.1059,-2.1117,-2.152,-2.2545,-2.5833,-2.8183,-2.9188,-2.6219,-2.3243,-2.1761,-2.5476,-2.7859,-3.0425,-3.5058,-3.5766,-3.5413,-3.5736,-3.4364,-3.3143,-3.3409,-3.3007,-3.2894,-3.3706,-3.3659,-3.3871,-3.4964,-3.5151,-3.5042,-3.47,-3.3999,-3.3247,-3.2658,-3.2374,-3.2652,-3.377,-3.3846,-3.4182,-3.4933,-3.5814,-3.6242,-3.6201,-3.6968,-3.7176,-3.6624,-3.6624,-3.6624,-3.6624,-3.6624,-3.6624,-3.6624,-3.6624,-3.6736,-3.711,-3.7172,-3.7051,-3.6771,-3.6771,-3.6606,-3.6307,-3.6307,-3.6022,-3.5571,-3.5571,-3.5393,-3.5126,-3.4846,-3.4183,-3.3416,0.0,0.0,0.0,0.2781,0.2636,0.2321,0.178,0.0989,0.021,-0.0505,-0.1202,0.0,0.0,0.0,0.0,0.0,-0.4122,-0.6755,-1.0014,-1.4895,-1.9342,-2.313,-2.6456,-2.8379,-2.8729,-2.9188,-2.9501,-2.9682,-2.9682,-2.9912,-3.0346,-3.0346,-3.0576,-3.0946,-3.0153,-2.8469,-2.6026,-2.3705,-2.1327,-1.9006,-1.7207,-1.68,-1.7421,-1.8034,-1.8032,-1.7653,0.0,-1.7612,-1.7797,-1.7895,-1.9144,-2.1214,-2.4833,-2.5117,-2.377,-2.1897,-2.3566,-2.6752,-3.0132,-3.28,-3.5629,-3.9838,-3.8882,-3.7025,-3.7562,-3.602,-3.4334,-3.3875,-3.3497,-3.3069,-3.2408,-3.2496,-3.2772,-3.2927,-3.3525,-3.396,-3.3846,-3.3773,-3.3418,-3.2707,-3.2821,-3.3181,-3.3572,-3.3919,-3.4777,-3.6362,-3.6727,-3.7163,-3.7687,-3.7983,-3.8081,-3.7849,-3.7849,-3.7849,-3.7849,-3.7849,-3.7849,-3.7849,-3.7849,-3.7721,-3.7509,-3.7571,-3.7288,-3.6784,-3.6784,-3.6664,-3.6365,-3.5948,-3.5507,-3.5063,-3.5414,-3.5462,-3.5305,-3.5949,-3.5501,-3.4462,0.0,0.0,0.0,0.0,0.0,0.0,0.0,0.0,0.0,0.0,0.0,0.0,0.0,0.0,0.0,0.0,0.0,-0.4922,-0.777,-1.2223,-1.6104,-1.9093,-2.2658,-2.4753,-2.5053,-2.5467,-2.5846,-2.6097,-2.7122,-2.7805,-2.8285,-2.9218,-2.9827,-3.0153,-3.0153,-2.882,-2.6504,-2.4982,-2.247,-1.9325,-1.7512,-1.6179,-1.5328,-1.5854,-1.5362,0.0,-1.3468,-1.3436,-1.3861,-1.3941,-1.5452,-1.785,-2.1109,-2.1854,-2.1477,-2.1547,-2.4631,-2.9134,-3.4369,-3.697,-3.9241,-4.3713,-4.2509,-4.0135,-3.9762,-3.7708,-3.5471,-3.394,-3.2955,-3.2149,-3.1226,-3.1083,-3.1246,-3.1594,-3.2314,-3.2978,-3.3473,-3.3497,-3.334,-3.2917,-3.313,-3.3413,-3.3763,-3.4283,-3.5226,-3.667,-3.7306,-3.7767,-3.8191,-3.8602,-3.8765,-3.8534,-3.8521,-3.8521,-3.8521,-3.8521,-3.8521,-3.8521,-3.8765,-3.8592,-3.804,-3.8265,-3.8027,-3.7497,-3.7497,-3.7251,-3.6852,-3.6472,-3.5906,-3.5339,-3.5617,-3.5696,-3.5764,-3.6357,-3.6194,-3.5474,0.0,0.0,0.0,0.0,0.0,0.0,0.0,0.0,0.0,0.0,0.0,0.0,0.0,0.0,0.0,0.0,0.0,0.0,-0.7153,-0.8966,-1.1706,-1.5863,-1.7781,-1.8917,-1.9316,-1.959,-1.9876,-2.0149,-2.2783,-2.4219,-2.4617,-2.704,-2.8152,-2.8176,-2.8176,-2.7005,-2.5051,-2.4934,-2.2229,-1.8005,-1.7595,-1.5808,-1.3356,-1.2854,-1.1952,-1.0894,-1.0614,-1.0148,-0.9645,-0.9631,-1.0998,-1.3138,-1.5553,-1.9014,-2.2668,-2.5112,-2.656,-2.9279,-3.7787,-4.0277,-4.1555,-4.6506,-4.6325,-4.4397,-4.2182,-3.9345,-3.6359,-3.3563,-3.1487,-3.0143,-3.0032,-2.9457,-2.9477,-3.0998,-3.1614,-3.2338,-3.3593,-3.3376,-3.3202,-3.3376,-3.3207,-3.3394,-3.424,-3.488,-3.5469,-3.6073,-3.7458,-3.8158,-3.7874,-3.8894,-3.9253,-3.8595,-3.8595,-3.8595,-3.8595,-3.8595,-3.857,-3.857,-3.9214,-3.923,-3.8669,-3.9263,-3.9265,-3.8718,-3.8718,-3.8369,-3.7788,-3.7788,-3.7187,-3.6327,-3.606,-3.6153,-3.6376,-3.6158,-3.6231,-3.6337,0.0,0.0,0.0,0.0,0.0,0.0,0.0,0.0,0.0,0.0,0.0,0.0,0.0,0.0,0.0,0.0,0.0,0.0,-0.3217,-0.72,-1.0044,-1.1215,-1.5522,-1.8059,-1.8343,-1.8729,-1.9141,-1.9662,-2.0246,-2.0826,-2.1452,-2.1864,-2.2246,-2.2587,-2.2587,-2.2239,-2.1641,-1.9971,-1.8392,-1.6884,-1.4947,-1.38,-1.3184,-1.2494,-1.1924,-1.138,-1.1011,-1.0551,-1.0134,-1.017,-1.3277,-1.7639,-2.0792,-2.338,-2.5662,-2.7758,-3.132,-3.5378,-3.9142,-4.2881,-4.6137,-4.7722,-4.6569,-4.4379,-4.1927,-3.8918,-3.5527,-3.1783,-2.9706,-2.8062,-2.6604,-2.7481,-2.8608,-2.9224,-3.1372,-3.3171,-3.3726,-3.4185,-3.4281,-3.3762,-3.4013,-3.4399,-3.4834,-3.5191,-3.6033,-3.7561,-3.8242,-3.8945,-3.9718,-4.0098,-4.0164,-3.9996,-3.9996,-3.9996,-3.9996,-3.9996,-3.989,-3.9605,-3.9773,-3.9588,-3.8971,-3.9134,-3.902,-3.8718,-3.8718,-3.8369,-3.7788,-3.7264,-3.6434,-3.5418,-3.5355,-3.5144,-3.4974,-3.5802,-3.5851,-3.5569,0.0,0.0,0.0,0.0,0.0,0.0,0.0,0.0,0.0,0.0,0.0,0.0,0.0,0.0,0.0,0.0,0.0,0.0,0.0,-0.4875,-0.7109,-0.776,-1.1134,-1.3336,-1.4125,-1.4437,-1.4798,-1.5342,-1.6489,-1.7388,-1.7992,-1.8789,-1.9345,-1.959,-1.9471,-1.9471,-1.949,-1.826,-1.7018,0.0,0.0,-1.2989,-1.1533,-1.1152,-1.0793,-1.0472,-1.0244,-1.1394,-1.3152,-1.4397,-1.7423,-2.1052,-2.2792,-2.4844,-2.7123,-2.967,-3.3601,-3.7801,-4.0939,-4.4793,-4.8011,-4.8231,-4.723,-4.5116,-4.1098,-3.8181,-3.4864,-2.9651,-2.726,-2.5781,-2.4661,-2.6593,-2.8339,-2.8267,-3.2315,-3.5498,-3.5487,-3.684,-3.742,-3.6296,-3.63,-3.6054,-3.5286,-3.5608,-3.64,-3.7606,-3.8323,-3.9157,-4.0194,-4.0401,-4.0481,-4.0481,-4.0481,-4.0481,-4.0481,-4.0481,-4.0334,-3.9967,-3.9967,-3.9673,-3.91,-3.91,-3.8953,-3.8718,-3.8718,-3.8208,-3.7354,-3.6972,-3.6054,-3.486,-3.475,-3.4614,-3.4557,-3.5103,-3.528,-3.5216,0.0,0.0,0.0,0.0,0.0,0.0,0.0,0.0,0.0,0.0,0.0,0.0,0.0,0.0,0.0,0.0,0.0,0.0,0.0,0.0,-0.3981,-0.5216,-0.6448,-0.7678,-0.8891,-0.9215,-0.959,-1.0016,-1.2488,-1.3972,-1.4517,-1.6459,-1.7353,-1.7384,-1.7134,-1.717,-1.7384,-1.7425,-1.6223,-1.4363,-1.433,-1.237,-0.9458,0.0,-0.9238,-0.9063,-0.9221,-1.2283,-1.6672,-1.9566,-2.2009,-2.38,-2.3868,-2.56,-2.8284,-3.1549,-3.4679,-3.801,-4.2376,-4.5681,-4.7871,-4.7871,-4.7704,-4.5958,-3.9953,-3.7214,-3.4094,-2.7422,-2.4733,-2.3547,-2.3414,-2.5944,-2.7994,-2.7665,-3.3255,-3.7619,-3.7643,-3.9868,-4.1127,-4.0004,-3.9196,-3.8061,-3.6272,-3.6178,-3.6507,-3.7134,-3.8078,-3.901,-3.99,-4.026,-4.0481,-4.0481,-4.0481,-4.0481,-4.0481,-4.0441,-4.0254,-3.996,-3.992,-3.9567,-3.9033,-3.9033,-3.8913,-3.8718,-3.8718,-3.8007,-3.6784,-3.6784,-3.5933,-3.4547,-3.4281,-3.4371,-3.4543,-3.4358,-3.4624,-3.4926,0.0,0.0,0.0,0.0,0.0,0.0,0.0,0.0,0.0,0.0,0.2607,0.1051,0.0,0.0,0.0,0.0,0.0,0.0,0.0,0.0,0.0,-0.3535,-0.5819,-0.7215,-0.746,-0.863,-0.9518,-1.008,-1.0413,-1.095,-1.1696,-1.1816,-1.1922,-1.2035,-1.2003,-1.2003,-1.2058,-1.2215,-1.1841,-1.1054,-1.0517,-0.9902,-0.9268,-0.8605,0.0,0.0,-0.993,-1.2532,-1.6005,-1.9898,-2.3528,-2.6816,-2.8771,-3.0404,-3.2219,-3.5286,-3.6796,-3.8143,-4.1255,-4.3791,-4.5572,-4.5572,-4.6123,-4.5155,-3.923,-3.6031,-3.2429,-2.5727,-2.3409,-2.2308,-2.1414,-2.3463,-2.5627,-2.6637,-3.1211,-3.539,-3.765,-4.0109,-4.2127,-4.3268,-4.1064,-3.9584,-3.9879,-3.7468,-3.6333,-3.7371,-3.7888,-3.8623,-3.9513,-4.0199,-4.0481,-4.0481,-4.0481,-4.0481,-4.0481,-4.0214,-3.996,-3.9666,-3.9412,-3.906,-3.8798,-3.8798,-3.8758,-3.8718,-3.8718,-3.8007,-3.6784,-3.6784,-3.5933,-3.4547,-3.4281,-3.4085,-3.3977,-3.4215,-3.4191,-3.4053,0.0,0.0,0.0,0.0,0.0,0.0,0.0,0.0,0.2327,0.2909,0.164,0.0945,0.1688,0.0701,0.0,0.0,0.0,0.0,0.0,0.0,0.0,0.0,-0.4136,-0.5472,-0.6871,-0.7629,-0.8567,-0.9733,0.0,-0.9945,-1.0366,-1.0052,-0.9953,-1.0033,-0.9831,-0.986,-1.0026,-1.029,-1.0402,-1.036,-0.9781,-0.9305,-0.8862,0.0,0.0,0.0,-0.9951,-1.2628,-1.571,-1.8368,-2.2556,-2.7183,-3.0077,-3.1931,-3.3318,-3.494,-3.6578,-3.8111,-3.9614,-4.1652,-4.3233,-4.3103,-4.2933,-4.1376,-3.5917,-3.2957,-2.9745,-2.4043,-2.2185,-2.1455,-2.1071,-2.346,-2.5537,-2.5644,-3.0383,-3.5137,-3.8244,-4.1325,-4.405,-4.6201,-4.4237,-4.2322,-4.1187,-3.8454,-3.6772,-3.7029,-3.7481,-3.826,-3.9422,-4.0164,-4.0481,-4.0481,-4.0481,-4.0401,-4.0254,-4.0107,-3.9754,-3.9313,-3.9167,-3.8953,-3.8718,-3.8718,-3.8499,-3.8208,-3.8208,-3.7497,-3.6329,-3.6329,-3.5543,-3.4399,-3.4245,-3.3919,-3.3626,-3.3749,-3.3738,-3.3567,0.0,0.0,0.0,0.0,0.0,0.0,0.0,0.1863,0.1269,0.1755,0.0757,0.0789,0.2832,0.1223,0.0482,0.0,0.0,0.0,0.0,0.0,0.0,0.0,0.0,-0.3687,-0.5806,0.0,0.0,-0.8551,-0.8659,0.0,0.0,0.0,0.0,0.0,-0.8933,-0.885,-0.9099,-0.9037,-0.9349,0.0,0.0,-0.8744,0.0,0.0,0.0,0.0,0.0,-1.2098,-1.4692,-1.6661,-2.05,-2.5005,-2.8246,-3.0738,-3.2474,-3.2928,-3.4677,-3.6692,-3.7575,-3.9351,-4.0959,-4.0666,-3.9873,-3.785,-3.2905,-3.0159,-2.7294,-2.264,-2.1235,-2.09,-2.1166,-2.3501,-2.5268,-2.4791,-2.9605,-3.4755,-3.8725,-4.2533,-4.5815,-4.8407,-4.6938,-4.4683,-4.1962,-3.914,-3.7299,-3.6857,-3.7335,-3.8252,-3.9422,-4.0164,-4.0481,-4.0481,-4.0481,-4.0334,-3.9967,-3.996,-3.9666,-3.91,-3.902,-3.8886,-3.8718,-3.8718,-3.8369,-3.7788,-3.7788,-3.7076,-3.5907,-3.5907,-3.5274,-3.4303,-3.4209,-3.3895,-3.3473,-3.34,-3.3376,-3.3304,0.0,0.0,0.0,0.0,0.0,0.0,0.0,0.1513,0.0875,0.2945,0.1334,0.0498,0.1812,0.0786,0.0491,0.0,0.0,0.0,0.0,0.0,0.0,0.0,0.0,0.0,0.0,0.0,0.0,-0.576,-0.5767,0.0,0.0,0.0,0.0,0.0,0.0,-0.8085,-0.8057,-0.7,0.0,0.0,0.0,0.0,0.0,0.0,0.0,0.0,0.0,-1.0251,-1.1778,-1.5968,-1.7809,-1.8861,-2.2103,-2.5893,-2.9309,-3.0119,-3.0926,-3.2121,-3.4793,-3.7092,-3.8693,-3.8369,-3.8323,-3.7111,-3.2442,-2.935,-2.6212,-2.1885,-2.0755,-2.0608,-2.0887,-2.179,-2.2931,-2.4219,-2.7986,-3.2733,-3.8421,-4.285,-4.6513,-4.9232,-4.7468,-4.5248,-4.3324,-3.9687,-3.747,-3.7409,-3.802,-3.8704,-3.9483,-4.0164,-4.0481,-4.0481,-4.0481,-4.0334,-3.9967,-3.9773,-3.9493,-3.91,-3.8846,-3.87,-3.8718,-3.8718,-3.8369,-3.7788,-3.7788,-3.7076,-3.5907,-3.5907,-3.5384,-3.4569,-3.4281,-3.4016,-3.3726,-3.3473,-3.3376,-3.3304,0.0,0.0,0.0,0.0,0.0,0.0,0.2185,0.1061,0.0583,0.2218,0.1002,0.0473,0.1669,0.0728,0.0482,0.0,0.0,0.0,0.0,0.0,0.0,0.0,0.0,0.0,0.0,0.0,-0.3691,-0.4861,-0.5056,0.0,0.0,0.0,0.0,0.0,0.0,-0.7125,-0.645,-0.6883,0.0,0.0,0.0,0.0,0.0,0.0,0.0,0.0,0.0,0.0,-1.0588,-1.3545,-1.5633,-1.7002,-1.7046,-1.9442,-2.3116,-2.758,-2.9478,-3.0852,-3.3859,-3.5589,-3.6364,-3.5698,-3.4765,-3.3128,-2.9873,-2.7217,-2.4682,-2.2104,-2.1195,-2.1012,-2.147,-2.1636,-2.2172,-2.3678,-2.5046,-2.7932,-3.3526,-3.6617,-4.0124,-4.5087,-4.4336,-4.3339,-4.3343,-4.0535,-3.9044,-3.9821,-4.0064,-4.0468,-4.0895,-4.0663,-4.0481,-4.0481,-4.0294,-4.0067,-3.9773,-3.9433,-3.914,-3.8846,-3.874,-3.8718,-3.8718,-3.8718,-3.8137,-3.7205,-3.7205,-3.6492,-3.538,-3.538,-3.5058,-3.4547,-3.4281,-3.4016,-3.3762,-3.3529,-3.3376,-3.3304,0.0,0.0,0.0,0.0,0.0,0.0405,0.1628,0.0783,0.0423,0.1632,0.0737,0.0325,0.1166,0.0502,0.0347,0.1187,0.0,0.0,0.0,0.0,0.0,0.0,0.0,0.0,0.0,0.0,-0.214,-0.3311,-0.365,-0.4037,0.0,0.0,-0.5152,-0.5451,0.0,0.0,0.0,0.0,0.0,0.0,0.0,0.0,0.0,0.0,0.0,0.0,0.0,0.0,0.0,0.0,0.0,-1.5279,-1.382,-1.4881,-1.7817,-2.3909,-2.6895,-2.8921,-3.2145,-3.3805,-3.4496,-3.3788,-3.2211,-3.0261,-2.807,-2.5758,-2.3674,-2.2271,-2.1459,-2.111,-2.1601,-2.1562,-2.1774,-2.2898,-2.3872,-2.6246,-3.1307,-3.4219,-3.7601,-4.2489,-4.2881,-4.2626,-4.2215,-4.014,-3.9136,-3.993,-3.9986,-4.0214,-4.0765,-4.0241,-4.0046,-4.0214,-4.0,-3.9714,-3.9433,-3.9207,-3.8953,-3.8718,-3.8718,-3.8718,-3.8718,-3.8718,-3.8007,-3.6784,-3.6784,-3.6129,-3.5028,-3.5028,-3.4823,-3.4438,-3.4245,-3.3992,-3.363,-3.3493,-3.3376,-3.3304,0.0,0.0,0.0,0.0,0.0,0.0,0.0,0.0785,0.0423,0.1643,0.075,0.0,0.0029,0.0,0.0,0.0029,0.0,0.0,0.0,0.0,0.0,0.0,0.0,0.0,0.0,0.0,-0.0208,-0.0543,-0.0871,-0.1784,-0.3231,-0.3633,-0.4419,-0.5451,0.0,0.0,0.0,0.0,0.0,0.0,0.0,0.0,0.0,0.0,0.0,0.0,0.0,0.0,0.0,0.0,0.0,0.0,0.0,-1.3092,-1.4338,-1.8784,-2.23,-2.5545,-2.9092,-3.1685,-3.336,-3.3066,-3.145,-2.9459,-2.7724,-2.5489,-2.3469,-2.2231,-2.1265,-2.0693,-2.0948,-2.1267,-2.1558,-2.1786,-2.526,-2.94,-3.3597,-3.8251,-4.1714,-4.304,-4.4573,-4.399,-3.9924,-3.8092,-3.7003,-3.6661,-3.6733,-3.7137,-3.8089,-3.8506,-3.9005,-3.9599,-3.9599,-3.9452,-3.91,-3.91,-3.8953,-3.8718,-3.8718,-3.8718,-3.8718,-3.8718,-3.8007,-3.6784,-3.6784,-3.6129,-3.5028,-3.5028,-3.4668,-3.4185,-3.4185,-3.3859,-3.3376,-3.3376,-3.3376,-3.334,0.0,0.0,0.0,0.0,0.0,0.0,0.0,0.0784,0.0429,0.1635,0.0743,0.0,0.0,0.0,0.0,0.0,0.0,0.0,0.0,0.0,0.0,0.0,0.0,0.0,0.0,0.0,-0.0179,-0.0582,-0.0916,-0.1413,-0.2128,-0.2458,-0.2816,-0.3128,-0.3495,-0.393,0.0,0.0,0.0,0.0,0.0,0.0,0.0,0.0,0.0,0.0,0.0,0.0,0.0,0.0,0.0,0.0,0.0,0.0,0.0,-1.6266,-1.967,-2.3413,-2.6403,-2.8925,-3.0555,-2.9891,-2.8724,-2.7388,-2.5825,-2.4262,-2.2907,-2.193,-2.1485,-2.1381,-2.1627,-2.176,-2.2375,-2.4053,-2.6395,-2.8917,-3.1571,-3.5633,-3.829,-3.8344,-3.9802,-4.0233,-3.8945,-3.9539,-4.0019,-3.9856,-3.9333,-3.9382,-4.0347,-3.8288,-3.7834,-3.954,-3.9353,-3.9207,-3.91,-3.8913,-3.8766,-3.8718,-3.8718,-3.8718,-3.8718,-3.8718,-3.824,-3.7484,-3.7005,-3.6329,-3.5544,-3.4986,-3.4607,-3.4414,-3.4052,-3.3823,-3.363,-3.3493,-3.3376,-3.334,0.0,0.0,0.0,0.0,0.0,0.0,0.0,0.0481,0.0271,0.1026,0.0479,0.0,0.0,0.0,0.0,0.0,0.0,0.0,0.0,0.0,0.0,0.0,0.0,0.0,-0.0198,-0.0639,-0.0842,-0.0785,-0.1125,-0.1413,-0.1641,-0.1991,-0.211,-0.2071,-0.2746,-0.334,0.0,0.0,0.0,0.0,0.0,0.0,0.0,0.0,0.0,0.0,0.0,0.0,0.0,0.0,0.0,0.0,0.0,0.0,0.0,0.0,-1.8106,-2.1401,-2.4195,-2.6773,-2.8553,-2.7991,-2.7068,-2.596,-2.4719,-2.3554,-2.2505,-2.1743,-2.1405,-2.1309,-2.1568,-2.1713,-2.2343,-2.3872,-2.6206,-2.8754,-3.1371,-3.4467,-3.6693,-3.7322,-3.7751,-3.8074,-3.8339,-3.8997,-3.9508,-3.9552,-3.876,-3.8675,-3.9664,-3.7419,-3.6891,-3.8486,-3.8564,-3.8751,-3.8972,-3.8766,-3.8718,-3.8718,-3.8718,-3.8718,-3.8718,-3.8718,-3.8369,-3.7788,-3.7367,-3.6617,0.0,-3.5154,-3.4694,-3.4245,-3.3919,-3.3726,-3.3662,-3.3437,-3.3376,-3.3396,0.0,0.0,0.0,0.0,0.0,0.0,0.0,0.0,0.0,0.0,0.0,0.0,0.0,0.0,0.0,0.0,0.0,0.0,0.0,0.0,0.0,0.0,0.0,0.0,-0.0661,-0.1752,-0.2037,-0.1452,-0.177,-0.1978,-0.2068,-0.2272,-0.2322,-0.2259,-0.2099,-0.2722,0.0,0.0,0.0,0.0,0.0,0.0,0.0,0.0,0.0,0.0,0.0,0.0,0.0,0.0,0.0,0.0,0.0,0.0,0.0,0.0,0.0,0.0,0.0,-2.5045,-2.6934,-2.6934,-2.6066,-2.5037,-2.4209,-2.314,0.0,-2.1636,-2.1073,-2.0738,-2.1058,-2.1365,-2.1725,-2.2209,-2.5325,-2.8943,-3.2649,-3.4685,-3.6843,-3.9783,-3.8404,-3.7474,-3.82,-3.7009,-3.6298,-3.6552,-3.5802,-3.5774,-3.6641,-3.6133,-3.6129,-3.6784,-3.7367,-3.8007,-3.866,-3.866,-3.866,-3.8718,-3.8718,-3.8718,-3.8718,-3.8718,-3.8369,-3.7846,-3.7846,-3.6935,-3.5569,-3.5531,-3.482,-3.3787,-3.3762,-3.3593,-3.3376,-3.3376,-3.3376,-3.3376,0.0,0.0,0.0,0.0,0.0,0.0,0.0,0.0,0.0,0.0,0.0,0.0,0.0,0.0,0.0,0.0,0.0,0.0,0.0,0.0,0.0,0.0,0.0,0.0,-0.2007,-0.2419,-0.333,-0.477,-0.4991,-0.5296,-0.5651,-0.4547,-0.3988,-0.3796,-0.2614,-0.2748,0.0,0.0,0.0,0.0,0.0,0.0,0.0,0.0,0.0,0.0,-1.405,-1.4912,0.0,0.0,0.0,0.0,0.0,0.0,0.0,0.0,-1.8636,-2.0115,-2.1078,0.0,-2.3268,-2.3268,-2.302,-2.2699,0.0,-2.1777,-2.1309,-2.0993,-2.0939,-2.1275,-2.2278,-2.2317,-2.3014,-2.5603,-2.7859,-3.0082,-3.2479,-3.5039,-3.9011,-4.5304,-4.1028,-3.8113,-3.9632,-3.7869,-3.6441,-3.6008,-3.5609,-3.5713,-3.6344,-3.561,-3.5673,-3.6771,-3.6492,-3.6901,-3.8007,-3.8007,-3.8208,-3.8718,-3.8718,-3.8718,-3.8718,-3.8718,-3.8602,-3.8441,-3.8007,-3.7213,-3.6167,-3.546,-3.4648,-3.3762,-3.3569,-3.3437,-3.3376,-3.3376,-3.3376,-3.3376,0.0,0.0,0.0,0.0,0.0,0.0,0.0,0.0,0.0,0.0,0.0,0.0,0.0,0.0,0.0,0.0,0.0,0.0,0.0,0.0,0.0,0.0,0.0,-0.218,-0.3301,-0.4154,-0.5002,-0.5903,-0.6264,-0.6611,-0.6936,-0.5891,-0.5434,-0.5385,-0.3786,-0.4104,0.0,0.0,0.0,0.0,0.0,0.0,0.0,0.0,0.0,0.0,-1.4652,-1.5292,0.0,-1.572,-1.612,-1.6565,0.0,0.0,0.0,0.0,-1.919,-1.9893,-2.0187,-2.1341,-2.2425,-2.2425,-2.2498,-2.2525,-2.2251,-2.1756,-2.1229,-2.0935,-2.1109,-2.159,-2.2485,-2.2979,-2.3901,-2.5971,-2.7859,-2.993,-3.2445,-3.6378,-3.9947,-4.26,-4.0456,-3.8872,-3.9032,-3.7609,-3.6546,-3.6271,-3.5716,-3.5546,-3.5842,-3.535,-3.5322,-3.5966,-3.5673,-3.607,-3.7354,-3.7354,-3.7658,-3.8298,-3.8298,-3.8427,-3.8718,-3.8718,-3.8718,-3.866,-3.8224,-3.7365,-3.6181,-3.5598,-3.4641,-3.3593,-3.3437,-3.3376,-3.3376,-3.3376,-3.3376,-3.3376,0.0,0.0,0.0,0.0,0.0,0.0,0.0,0.0,0.0,0.0,0.0,0.0,0.0,0.0,0.0,0.0,0.0,0.0,0.0,0.0,0.0,0.0,-0.3178,-0.3967,-0.4725,-0.615,-0.6803,-0.6661,-0.7174,-0.7501,-0.7693,-0.7059,-0.6693,-0.6435,-0.501,-0.5576,0.0,0.0,0.0,0.0,0.0,0.0,0.0,0.0,0.0,0.0,0.0,0.0,0.0,-1.597,-1.6467,-1.6988,-1.7954,0.0,0.0,0.0,0.0,0.0,-1.988,-2.1502,-2.2974,-2.2693,-2.2926,-2.3166,-2.284,-2.2117,-2.1448,-2.1162,-2.1341,-2.177,-2.2539,-2.3594,-2.4636,-2.5531,-2.7443,-2.9962,-3.3362,-3.7717,-3.9983,-3.8366,-3.9243,-3.9491,-3.8295,-3.7364,-3.684,-3.6733,-3.5975,-3.545,-3.545,-3.5161,-3.5028,-3.5028,-3.5028,-3.5485,-3.6551,-3.6622,-3.7005,-3.7658,-3.7717,-3.8079,-3.8588,-3.866,-3.8691,-3.8651,-3.8428,-3.7435,-3.6072,-3.5829,-3.49,-3.3644,-3.3644,-3.3644,-3.3644,-3.3588,-3.3588,-3.3644,0.0,0.0,0.0,0.0,0.0,0.0,0.0,0.0,0.0,0.0,0.0,0.0,0.0,0.0,0.0,0.0,0.0,0.0,0.0,0.0,0.0,-0.5006,-0.4258,-0.4668,-0.664,-0.7028,-0.8167,-1.013,-1.0486,-1.0744,-1.0858,-0.9254,-0.7473,-0.558,-0.527,-0.5284,-0.5639,-0.671,0.0,0.0,0.0,0.0,0.0,0.0,0.0,0.0,0.0,0.0,0.0,-1.7547,-1.8382,-1.9175,-1.8548,0.0,0.0,0.0,0.0,0.0,-2.0561,-2.2245,-2.3308,-2.175,-2.2164,-2.2827,-2.2245,-2.163,-2.1162,-2.1122,-2.1149,-2.1737,-2.3594,-2.4489,-2.5718,-2.8014,-3.0154,-3.3063,-3.7593,-3.7668,-3.9049,-4.3896,-4.1174,-3.9413,-4.0682,-3.8869,-3.7379,-3.6853,-3.617,-3.584,-3.584,-3.5287,-3.5028,-3.5028,-3.5028,-3.5087,-3.5251,-3.5778,-3.6329,-3.6972,-3.7555,-3.7846,-3.7949,-3.8499,-3.8584,-3.8388,-3.829,-3.7615,-3.6424,-3.6385,-3.5798,-3.4941,-3.4941,-3.4941,-3.4873,-3.4327,-3.4482,-3.4941,0.0,0.0,0.0,0.0,0.0,0.0,0.0,0.0,0.0,0.0,0.0,0.0,0.0,0.0,0.0,0.0,0.0,0.0,0.0,0.0,-0.3945,-0.6146,-0.5543,-0.6003,-0.7866,-0.8491,-0.9494,-1.0908,-1.1303,-1.1633,-1.1857,-1.0589,-0.907,-0.7374,-0.6677,-0.6755,-0.7353,-0.7306,0.0,0.0,0.0,0.0,0.0,0.0,0.0,0.0,0.0,0.0,0.0,0.0,-1.8484,-1.9236,-1.8797,0.0,0.0,0.0,0.0,0.0,-1.9893,-2.1381,-2.2795,-2.361,-2.5185,-2.6421,-2.6003,-2.622,-2.6175,-2.5014,-2.4872,-2.5335,-2.6441,-2.7756,-2.9574,-3.2383,-3.2948,-3.4111,-3.7106,-3.8044,-3.9229,-4.154,-4.0932,-4.0216,-3.998,-3.862,-3.7658,-3.7367,-3.6771,-3.6421,-3.6421,-3.5836,-3.5485,-3.5485,-3.5192,-3.5028,-3.5028,-3.5251,-3.5744,-3.6329,-3.6622,-3.7134,-3.7788,-3.8079,-3.8255,-3.8321,-3.8133,-3.7429,-3.6471,-3.6357,-3.5849,-3.522,-3.522,-3.522,-3.5151,-3.4885,-3.4941,-3.5126,0.0,0.0,0.0,0.0,0.0,0.0,0.0,0.0,0.0,0.0,0.0,0.0,0.0,0.0,0.0,0.0,0.0,0.0,0.0,-0.3303,-0.4644,-0.6523,-0.6544,-0.7141,-0.8469,-0.9308,-0.9961,-1.0515,-1.1345,-1.1763,-1.1793,-1.1103,-1.0115,-0.895,-0.7946,-0.8098,-0.8997,-0.8411,-0.9709,0.0,0.0,0.0,0.0,0.0,0.0,0.0,0.0,0.0,0.0,0.0,0.0,0.0,0.0,0.0,0.0,-1.9099,-1.8824,-1.8784,-1.9669,-2.0833,-2.2407,-2.5077,-2.7019,-2.8574,-2.9862,-3.0293,-3.0203,-2.9454,-2.9389,-2.9457,-2.9338,-3.06,-3.2523,-3.5072,-3.4863,-3.4857,-3.6193,-3.8235,-3.932,-3.8479,-3.9934,-4.0361,-3.882,-3.8298,-3.8007,-3.8007,-3.7426,-3.7005,-3.7005,-3.6421,-3.6129,-3.6129,-3.5673,-3.5322,-3.5192,-3.5192,-3.538,-3.5673,-3.5966,-3.6622,-3.7555,-3.7846,-3.8055,-3.8143,-3.7929,-3.7314,-3.6591,-3.6368,-3.6041,-3.5622,-3.5622,-3.5498,-3.5429,-3.5553,-3.5498,-3.5365,0.0,0.0,0.0,0.0,0.0,0.0,0.0,0.0,0.0,0.0,0.0,0.0,0.0,0.0,0.0,0.0,0.0,0.0,0.0,-0.3809,-0.4611,-0.625,-0.686,-0.7488,-0.8231,-0.8417,-0.8809,-0.9424,-1.1179,-1.1705,-1.0971,-1.0563,-0.9735,-0.8612,-0.8275,-0.8199,-0.839,-0.997,-1.1063,-1.1757,0.0,0.0,0.0,0.0,0.0,0.0,0.0,0.0,0.0,0.0,0.0,0.0,0.0,0.0,-1.9703,-1.9426,-1.9118,-1.9265,-2.0967,-2.1871,-2.2712,-2.4313,-2.448,-2.5738,-3.158,-3.0564,-2.9361,-3.2766,-3.3204,-3.2555,-3.1358,-3.142,-3.2103,-3.3408,-3.4907,-3.6233,-3.7168,-3.7939,-3.8449,-3.8651,-3.8851,-3.8878,-3.8731,-3.866,-3.866,-3.866,-3.8079,-3.7717,-3.7717,-3.7076,-3.6713,-3.6713,-3.6713,-3.6421,-3.5836,-3.5836,-3.5602,-3.5087,-3.62,-3.6784,-3.6914,-3.8079,-3.8339,-3.7849,-3.7809,-3.7432,-3.6857,-3.6872,-3.6817,-3.6761,-3.6761,-3.6455,-3.6109,-3.6595,-3.6455,-3.6109,0.0,0.0,0.0,0.0,0.0,0.0,0.0,0.0,0.0,0.0,0.0,0.0,0.0,0.0,0.0,0.0,0.0,0.0,0.0,-0.2709,-0.3619,-0.5636,-0.5036,-0.5043,-0.5885,-0.6881,-0.8114,-0.9622,-1.1384,-1.1892,-1.127,-1.0851,-1.0184,-0.9283,-0.9107,-0.9421,-1.0193,-1.0991,-1.212,-1.3356,-1.3307,0.0,0.0,0.0,0.0,0.0,0.0,0.0,0.0,0.0,-1.7649,-1.84,-1.829,-1.8926,-1.9647,-1.9234,-1.8878,-1.8918,-2.0164,-2.1416,-2.2998,-2.5463,-2.5894,-2.7117,-3.2727,-3.4695,-3.545,-3.6063,-3.7363,-3.7795,-3.587,-3.6942,-3.7634,-3.6127,-3.714,-3.7914,-3.7485,-3.7742,-3.8103,-3.8397,-3.8611,-3.8718,-3.8718,-3.8718,-3.8718,-3.8718,-3.8499,-3.8369,-3.8369,-3.7788,-3.7426,-3.7426,-3.7005,-3.6713,-3.648,-3.648,-3.6329,-3.6129,-3.62,-3.6421,-3.6843,-3.7717,-3.8038,-3.7809,-3.7809,-3.7489,-3.6885,-3.6885,-3.6885,-3.6885,-3.6885,-3.6761,-3.6608,-3.6817,-3.6761,-3.6624,0.0,0.0,0.0,0.0,0.0,0.0,0.0,0.0,0.0,0.0,0.0,0.0,0.0,0.0,0.0,0.0,0.0,0.0,-0.185,-0.1967,-0.2735,-0.4336,-0.3548,-0.3224,-0.3618,-0.4773,-0.6549,-0.8962,-1.1077,-1.188,-1.1321,-1.1012,-1.0442,-0.9749,-0.9572,-0.9974,-1.0841,-1.1426,-1.2459,-1.3678,-1.3579,-1.3784,0.0,0.0,0.0,0.0,0.0,0.0,0.0,0.0,-1.7655,-1.8293,-1.8377,-1.901,-1.967,-1.9391,-1.9399,-1.9602,-2.008,-2.1296,-2.3032,-2.5613,-2.6513,-2.8096,-3.3068,-3.6508,-3.9003,-4.0176,-4.1059,-4.1154,-3.9594,-4.0287,-4.0302,-3.7797,-3.8727,-3.9243,-3.7889,-3.7985,-3.8321,-3.851,-3.8633,-3.8718,-3.8718,-3.8718,-3.8718,-3.8718,-3.8718,-3.8718,-3.8718,-3.8298,-3.8079,-3.8079,-3.7645,-3.7296,-3.7134,-3.7134,-3.7005,-3.6784,-3.6609,-3.6713,-3.7134,-3.7788,-3.7981,-3.7809,-3.7809,-3.7489,-3.6885,-3.6885,-3.6885,-3.6885,-3.6885,-3.6885,-3.6885,-3.6885,-3.6885,-3.6845,0.0,0.0,0.0,0.0,0.0,0.0,0.0,0.0,0.0,0.0,0.0,0.0,0.0,0.0,0.0,0.0,0.0,0.0,-0.1707,-0.1905,-0.2069,-0.2286,-0.2729,-0.2592,-0.1715,-0.2117,-0.3892,-0.7083,-1.0257,-1.1537,-1.1002,-1.0817,-1.0432,-0.9906,-0.9641,-0.9598,-0.9836,-1.1276,-1.1996,-1.2121,-1.2443,-1.3037,0.0,0.0,0.0,0.0,0.0,0.0,0.0,0.0,-1.8057,-1.8249,-1.973,-1.9997,-1.9867,-2.0117,-2.0855,-2.1515,-2.1189,-2.175,-2.2758,-2.4239,-2.572,-2.8003,-3.2485,-3.5178,-3.8608,-4.5151,-4.4045,-4.1912,-4.1912,-4.0493,-3.8868,-3.761,-3.9285,-4.0153,-3.8515,-3.874,-3.9122,-3.9122,-3.8863,-3.8718,-3.8718,-3.8718,-3.8718,-3.8718,-3.8718,-3.8718,-3.8718,-3.8718,-3.8718,-3.8718,-3.8718,-3.8427,-3.7788,-3.7788,-3.7484,-3.6843,-3.7497,-3.7788,-3.7846,-3.8427,-3.8397,-3.7809,-3.7809,-3.7489,-3.6885,-3.6885,-3.6885,-3.6885,-3.6885,-3.6885,-3.6885,-3.6885,-3.6885,-3.6885,0.0,0.0,0.0,0.0,0.0,0.0,0.0,0.0,0.0,0.0,0.0,0.0,0.0,0.0,0.0,0.0,0.0,0.0,-0.0504,-0.0569,-0.0725,-0.1008,-0.1451,-0.1622,-0.1553,-0.4026,-0.5876,-0.7023,-1.0154,-1.1534,-1.1279,-1.1114,-1.0859,-1.0451,-1.0471,-1.0887,-1.1628,-1.2067,-1.2345,-1.2435,-1.2465,-1.2052,0.0,0.0,0.0,0.0,0.0,0.0,0.0,0.0,0.0,0.0,-1.8582,-1.9503,-2.0341,-1.978,-2.0388,-2.1136,-2.0597,-2.2011,-2.3928,-2.4983,-2.7455,-3.0523,-3.392,-3.6776,-4.0391,-4.6512,-4.566,-4.3761,-4.3722,-4.4911,-4.4389,-3.9752,-4.1396,-4.2139,-3.9009,-3.8904,-3.9112,-3.9112,-3.8867,-3.8703,-3.8703,-3.852,-3.8397,-3.8397,-3.8611,-3.8718,-3.8718,-3.8718,-3.8718,-3.8718,-3.8718,-3.8602,-3.8427,-3.8215,-3.8038,-3.7821,-3.7826,-3.7668,-3.7462,-3.8109,-3.8076,-3.7529,-3.7742,-3.7489,-3.6885,-3.6885,-3.6885,-3.6885,-3.6885,-3.6885,-3.6885,-3.6885,-3.6885,-3.6885,0.0,0.0,0.0,0.0,0.0,0.0,0.0,0.0,0.0,0.0,0.067,0.0336,0.0,0.0,0.0,0.0,0.0,0.0,0.0,0.0,-0.0086,-0.0294,-0.067,-0.1351,-0.2393,-0.5125,-0.6876,-0.7549,-1.0082,-1.1239,-1.1124,-1.1186,-1.1104,-1.0934,-1.1698,-1.2167,-1.2483,-1.3078,-1.29,-1.2273,-1.2369,-1.1822,-1.0982,0.0,0.0,0.0,0.0,0.0,0.0,0.0,0.0,0.0,-1.783,-1.8606,-1.9512,-1.9681,-2.0522,-2.1547,-2.2025,-2.3581,-2.5451,-2.7041,-2.9125,-3.1756,-3.5463,-3.8292,-4.1522,-4.6307,-4.5854,-4.4979,-4.6169,-4.7676,-4.7319,-4.3022,-4.3625,-4.3624,-4.0572,-3.9742,-3.9432,-3.9432,-3.8986,-3.8671,-3.8671,-3.8311,-3.8143,-3.8321,-3.8437,-3.8584,-3.866,-3.8718,-3.8718,-3.8718,-3.8611,-3.8544,-3.8544,-3.8281,-3.8076,-3.8076,-3.7889,-3.7636,-3.736,-3.7879,-3.7823,-3.7382,-3.7448,-3.7261,-3.6885,-3.6885,-3.6885,-3.6885,-3.6885,-3.6885,-3.6885,-3.6885,-3.6885,-3.6885,0.0,0.0,0.0,0.0,0.0,0.0,0.0,0.0,0.0,0.0,0.0833,0.0477,0.0,0.0,0.0,0.0,0.0,0.0,0.0,0.0,0.0,0.0,-0.033,-0.16,-0.3964,-0.5599,-0.7145,-0.8585,-1.0122,-1.0813,-1.0691,-1.1009,-1.1186,-1.1269,-1.2893,-1.3186,-1.2562,-1.3925,-1.3524,-1.1934,-1.2304,-1.2158,-1.179,-1.199,0.0,0.0,0.0,0.0,0.0,0.0,0.0,0.0,-1.7383,-1.7599,-1.7963,-1.9507,-2.094,-2.2403,-2.4259,-2.5598,-2.7068,-2.9744,-3.0814,-3.2307,-3.6723,-3.9194,-4.1493,-4.4732,-4.495,-4.542,-4.8473,-4.8847,-4.82,-4.6765,-4.5788,-4.4521,-4.2558,-4.0991,-3.9986,-4.0029,-3.9322,-3.8759,-3.8689,-3.8165,-3.7959,-3.8214,-3.824,-3.8388,-3.8611,-3.8593,-3.8593,-3.8593,-3.837,-3.8281,-3.8281,-3.7929,-3.7782,-3.7782,-3.7742,-3.7595,-3.7342,-3.7635,-3.7635,-3.7382,-3.7048,-3.6941,-3.6925,-3.6885,-3.6885,-3.6885,-3.6885,-3.6885,-3.6885,-3.6885,-3.6885,-3.6885,0.0,0.0,0.0,0.0,0.0,0.0,0.0,0.0,0.0,0.0,0.0,0.0,0.0,0.0,0.0,0.0,0.0,0.0,0.0,0.0,0.0,0.0,-0.031,-0.2113,-0.5546,-0.5785,-0.7238,-1.0045,-1.0405,-1.0636,-1.0691,-1.0874,-1.1056,-1.1255,-1.2292,-1.2505,-1.2163,-1.2946,-1.3116,-1.2826,-1.2813,-1.2835,-1.3009,-1.3723,-1.4357,0.0,0.0,0.0,0.0,0.0,0.0,0.0,-1.7107,-1.761,-1.8009,-1.8142,-1.9983,-2.2067,-2.2279,-2.4502,-2.7308,-2.9798,-3.2193,-3.4275,-3.5537,-3.6172,-3.7618,-4.1738,-4.3151,-4.4361,-4.6743,-4.7814,-4.8139,-4.7648,-4.638,-4.4725,-4.2664,-4.0998,-4.0082,-4.0369,-3.9812,-3.922,-3.8737,-3.8403,-3.8021,-3.7625,-3.7782,-3.7929,-3.7996,-3.7996,-3.7996,-3.7996,-3.7956,-3.7929,-3.7929,-3.7635,-3.7489,-3.7489,-3.7235,-3.7088,-3.6992,-3.7342,-3.7448,-3.7382,-3.7048,-3.7032,-3.7275,-3.6992,-3.6885,-3.6885,-3.6885,-3.6885,-3.6885,-3.6885,-3.6885,-3.6885,0.0,0.0,0.0,0.0,0.0,0.0,0.0,0.0,0.0,0.0,0.0,0.0,0.0,0.0,0.0,0.0,0.0,0.0,0.0,0.0,0.0,0.0,-0.0347,-0.2116,-0.544,-0.5526,-0.707,-1.0245,-1.0209,-1.0324,-1.0616,-1.0955,-1.124,-1.1474,-1.306,-1.3473,-1.3058,-1.448,-1.4619,-1.3846,-1.3935,-1.3956,-1.3995,-1.451,-1.4984,-1.5482,-1.5955,0.0,0.0,0.0,0.0,0.0,0.0,0.0,-1.7185,-1.7842,-1.9427,-2.1306,-2.2846,-2.5196,-2.7976,-3.1062,-3.3357,-3.4895,-3.5137,-3.5191,-3.5862,-3.8121,-4.0317,-4.2487,-4.4598,-4.6537,-4.769,-4.7322,-4.5836,-4.4354,-4.3242,-4.0732,-3.9009,-3.9181,-3.9052,-3.8865,-3.8523,-3.8487,-3.8418,-3.8221,-3.8371,-3.8395,-3.8249,-3.8233,-3.8106,-3.7809,-3.7676,-3.7595,-3.7595,-3.7301,-3.7155,-3.7155,-3.6952,-3.6885,-3.6885,-3.7088,-3.7155,-3.7155,-3.6952,-3.7008,-3.7155,-3.6952,-3.6885,-3.6885,-3.6885,-3.6885,-3.6885,-3.6885,-3.6885,-3.6885,0.0,0.0,0.0,0.0,0.0,0.0,0.0,0.0,0.0,0.0,0.0,0.0,0.0,0.0,0.0,0.0,0.0,0.0,0.0,0.0,0.0,0.0,-0.0379,-0.1956,-0.4878,-0.515,-0.6839,-1.0055,-0.9907,-1.0123,-1.0731,-1.1151,-1.1463,-1.1748,-1.3827,-1.4458,-1.4093,-1.6133,-1.6161,-1.4857,-1.52,-1.5092,-1.4753,-1.4873,-1.5282,-1.5753,-1.5753,-1.5777,-1.5798,-1.56,0.0,0.0,0.0,0.0,-1.6184,-1.7646,-1.8764,-2.0234,-2.334,-2.599,-2.8738,-3.2412,-3.3975,-3.4683,-3.4977,-3.5084,-3.5124,-3.5124,-3.7415,-4.0044,-4.2217,-4.4548,-4.6088,-4.592,-4.443,-4.323,-4.3192,-4.0032,-3.7713,-3.7769,-3.8061,-3.8215,-3.8215,-3.8384,-3.865,-3.8931,-3.8917,-3.8876,-3.8732,-3.8676,-3.8395,-3.7831,-3.7603,-3.7427,-3.7301,-3.7048,-3.6885,-3.6885,-3.6885,-3.6885,-3.6885,-3.6885,-3.6885,-3.6885,-3.6885,-3.6885,-3.6885,-3.6885,-3.6885,-3.6885,-3.6885,-3.6885,-3.6885,-3.6885,-3.6885,-3.6885,0.0,0.0,0.0,0.0,0.0,0.0,0.0,0.0,0.0,0.0,0.1485,0.1262,0.129,0.0729,0.0,0.0,0.0,0.0,0.0,0.0,0.0,0.0,-0.0338,-0.1945,-0.5003,-0.5161,-0.6864,-1.0249,-1.0062,-1.0549,-1.1611,-1.1335,-1.1409,-1.1812,-1.2658,-1.3333,-1.3863,-1.4671,-1.5272,-1.5725,-1.5769,-1.5654,-1.5393,-1.5402,-1.5317,-1.5209,-1.5209,-1.5354,-1.5391,-1.4399,-1.4888,0.0,0.0,0.0,-1.5948,-1.6184,-1.7391,-1.8927,-2.017,-2.4414,-2.9219,-3.2278,-3.3521,-3.4082,-3.4376,-3.4629,-3.4869,-3.4869,-3.5751,-3.7211,-3.9425,-4.0507,-4.1533,-4.2827,-4.1667,-4.0537,-4.0375,-3.8643,-3.7475,-3.7741,-3.7864,-3.7892,-3.7892,-3.7881,-3.8021,-3.8274,-3.8302,-3.8442,-3.868,-3.8722,-3.8446,-3.7796,-3.7755,-3.7506,-3.6952,-3.6912,-3.6885,-3.6885,-3.6885,-3.6885,-3.6885,-3.6885,-3.6885,-3.6885,-3.6885,-3.6885,-3.6885,-3.6885,-3.6885,-3.6885,-3.6885,-3.6885,-3.6885,-3.6885,-3.6885,-3.6885,0.0,0.0,0.0,0.0,0.0,0.0,0.0,0.0,0.0,0.0,0.0,0.1065,0.1065,0.0533,0.0,0.0,0.0,0.0,0.0,-0.0142,0.0,-0.0238,-0.054,-0.2054,-0.4916,-0.5022,-0.6628,-0.9903,-0.9747,-1.0412,-1.1793,-1.1626,-1.1959,-1.2717,-1.3147,-1.3301,-1.3333,-1.3622,-1.412,-1.4722,-1.4722,-1.5584,-1.6746,-1.568,-1.5849,-1.6458,-1.4786,-1.4663,-1.5114,-1.4179,-1.4669,-1.5613,-1.5251,0.0,0.0,0.0,-1.69,-1.8696,-2.1884,-2.5264,-2.8604,-3.1717,-3.2933,-3.3507,-3.3975,-3.4309,-3.4509,-3.4509,-3.4824,-3.5467,-3.6775,-3.8324,-3.9589,-4.0168,-3.9683,-3.9189,-3.9078,-3.7356,-3.6173,-3.6349,-3.6794,-3.705,-3.705,-3.7845,-3.8322,-3.8464,-3.8747,-3.8858,-3.8662,-3.8832,-3.8481,-3.7579,-3.7702,-3.7646,-3.7425,-3.737,-3.737,-3.737,-3.7038,-3.6885,-3.6885,-3.6885,-3.6885,-3.6885,-3.6885,-3.6885,-3.6885,-3.6885,-3.6885,-3.6885,-3.6885,-3.6885,-3.6885,-3.6885,-3.6885,-3.6885,0.0,0.0,0.0,0.0,0.0,0.0,0.0,0.0,0.0,0.0,0.0,0.0,0.0785,0.0,0.0,0.0,0.0,0.0,0.0,0.0,0.0,0.0,-0.079,-0.225,-0.4839,-0.4979,-0.6527,-0.9551,-0.9476,-1.0297,-1.1915,-1.1949,-1.2584,-1.3744,-1.3658,-1.3382,-1.294,-1.2963,-1.3266,-1.384,-1.4307,-1.5659,-1.738,-1.675,-1.7298,-1.8033,-1.5172,-1.4672,-1.5155,-1.3868,-1.4188,-1.52,-1.5317,-1.5612,0.0,0.0,0.0,-1.8319,-2.2605,-2.4867,-2.6827,-3.0154,-3.1543,-3.2332,-3.3227,-3.3654,-3.3908,-3.4055,-3.4082,-3.4269,-3.487,-3.6546,-3.7781,-3.7599,-3.7491,-3.7444,-3.7444,-3.6006,-3.498,-3.498,-3.5656,-3.6216,-3.6375,-3.7379,-3.8173,-3.8525,-3.8966,-3.9049,-3.8854,-3.9156,-3.8787,-3.7592,-3.7839,-3.7894,-3.7563,-3.7563,-3.7563,-3.7563,-3.7093,-3.6885,-3.6885,-3.6885,-3.6885,-3.6885,-3.6885,-3.6885,-3.6885,-3.6885,-3.6885,-3.6885,-3.6885,-3.6885,-3.6885,-3.6885,-3.6885,-3.6885,0.0,0.0,0.0,0.0,0.0,0.0,0.0,0.0,0.0,0.0,0.0,0.0,0.0449,0.0168,0.0,0.0028,0.0,0.0,0.0,0.0,0.0,0.0,0.0,0.0,-0.484,-0.5211,-0.6694,-0.9424,-0.953,-1.0514,-1.2271,-1.2406,-1.3254,-1.4579,-1.3664,-1.3192,-1.3083,-1.2694,-1.3005,-1.3949,-1.5679,-1.6309,-1.6494,-1.9338,-2.0168,-1.9472,-1.6884,-1.6005,-1.565,-1.2994,-1.3076,-1.4239,-1.3984,-1.4824,-1.5837,0.0,0.0,0.0,-1.9466,-2.1352,-2.3514,-2.7041,-2.8804,-3.0114,-3.181,-3.2474,-3.2848,-3.3347,-3.3454,-3.3641,-3.4255,-3.4731,-3.5023,-3.4985,-3.4741,-3.4504,-3.4504,-3.4398,-3.4346,-3.4346,-3.4887,-3.5481,-3.5955,-3.6074,-3.6725,-3.8129,-3.8249,-3.859,-3.9388,-3.9763,-3.9383,-3.8176,-3.8484,-3.8073,-3.6941,-3.6941,-3.6941,-3.6941,-3.6885,-3.6885,-3.6885,-3.6885,-3.6885,-3.6885,-3.6885,-3.6885,-3.6885,-3.6885,-3.6885,-3.6885,-3.6885,-3.6885,-3.6885,-3.6885,-3.6885,-3.6885,0.0,0.0,0.0,0.0,0.0,0.0,0.0,0.0,0.0,0.0,0.0,0.0,0.0,0.0056,0.0,0.0,-0.0168,0.0,0.0,0.0,0.0,0.0,0.0,0.0,-0.6284,-0.6425,-0.7415,-0.9267,-0.9198,-0.992,-1.1394,-1.1787,-1.251,-1.3426,-1.3151,-1.2982,-1.2778,-1.1772,-1.1802,-1.2706,-1.4763,-1.6687,-1.8348,-1.839,-1.9955,-2.1601,-1.7476,-1.6213,-1.6307,-1.4727,-1.3771,-1.3205,-1.3063,-1.3861,-1.4927,-1.5565,-1.6078,-1.6896,-1.8988,-2.0238,-2.1786,-2.5184,-2.7199,-2.8698,-3.01,-3.137,-3.2318,-3.2532,-3.2719,-3.2969,-3.3183,-3.3734,-3.4269,-3.4456,-3.4254,-3.4019,-3.4019,-3.4019,-3.4084,-3.4267,-3.4663,-3.5095,-3.5441,-3.577,-3.6232,-3.6763,-3.7447,-3.8029,-3.8355,-3.9179,-3.9148,-3.7897,-3.8426,-3.8321,-3.7494,-3.7494,-3.7494,-3.7494,-3.7093,-3.6885,-3.6885,-3.6885,-3.6885,-3.6885,-3.6885,-3.6885,-3.6885,-3.6885,-3.6885,-3.6885,-3.6885,-3.6885,-3.6885,-3.6885,-3.6885,-3.6885,0.0,0.0,0.0,0.0,0.0,0.0,0.0,0.0,0.3494,0.2349,0.0,0.0,0.0,0.0,-0.0028,-0.014,-0.0672,-0.14,-0.2319,-0.3212,0.0,0.0,0.0,0.0,-0.7181,-0.7209,-0.7871,-0.9207,-0.911,-0.9616,-1.0698,-1.1213,-1.1853,-1.2555,-1.2395,-1.2469,-1.2708,-1.1662,-1.1418,-1.2013,-1.5012,-1.6972,-1.8167,-1.9014,-2.0539,-2.183,-1.8365,-1.7326,-1.7487,-1.6909,-1.573,-1.447,-1.4288,-1.4356,-1.4669,-1.5517,-1.6011,-1.6584,-1.7877,-1.8852,-2.0266,-2.355,-2.5043,-2.636,-2.8748,-2.9837,-3.0551,-3.1189,-3.1557,-3.1917,-3.2262,-3.2643,-3.3108,-3.3643,-3.3627,-3.3407,-3.3199,-3.3355,-3.3576,-3.3718,-3.4399,-3.4895,-3.503,-3.5453,-3.5823,-3.598,-3.6715,-3.7277,-3.7695,-3.8581,-3.869,-3.7883,-3.8208,-3.8115,-3.7494,-3.7494,-3.7494,-3.7494,-3.7093,-3.6885,-3.6885,-3.6885,-3.6885,-3.6885,-3.6885,-3.6885,-3.6885,-3.6885,-3.6885,-3.6885,-3.6885,-3.6885,-3.6885,-3.6885,-3.6885,-3.6885,0.0,0.0,0.0,0.0,0.0,0.0,0.0,0.0,0.2547,0.2211,0.0,0.0,0.0,0.0,0.0,-0.0421,-0.1541,-0.2405,-0.2794,-0.416,0.0,0.0,0.0,0.0,-0.7437,-0.7465,-0.8039,-0.9207,-0.9328,-0.9703,-1.0295,-1.0704,-1.1382,-1.2227,-1.1328,-1.1663,-1.2865,-1.2412,-1.2006,-1.2033,-1.6622,-1.7158,-1.5876,-2.1544,-2.2292,-2.0286,-1.9855,-1.949,-1.9232,-1.9398,-1.8798,-1.7895,-1.7502,-1.6322,-1.5134,-1.5439,-1.5889,-1.6234,0.0,0.0,0.0,-2.1966,-2.2302,-2.3019,-2.7575,-2.7668,-2.7353,-2.933,-2.9955,-3.0469,-3.1572,-3.1346,-3.1342,-3.2381,-3.2609,-3.2465,-3.1908,-3.2323,-3.2685,-3.2697,-3.394,-3.4802,-3.4815,-3.5017,-3.5401,-3.5928,-3.598,-3.6506,-3.7643,-3.7996,-3.8188,-3.8202,-3.7922,-3.7467,-3.6885,-3.6885,-3.6885,-3.6885,-3.6885,-3.6885,-3.6885,-3.6885,-3.6885,-3.6885,-3.6885,-3.6885,-3.6885,-3.6885,-3.6885,-3.6885,-3.6885,-3.6885,-3.6885,-3.6885,-3.6885,-3.6885,0.0,0.0,0.0,0.0,0.0,0.4168,0.3882,0.2813,0.1917,0.0,0.0,0.0,-0.0315,-0.0375,-0.0726,-0.1624,-0.2464,-0.367,-0.5481,-0.6144,-0.6866,-0.7759,-0.8051,-0.8351,-0.8697,-0.8697,-0.8867,-0.9207,-0.9089,-0.9259,-0.9662,-1.0144,-1.0696,-1.1294,-1.1233,-1.1825,-1.2829,-1.1556,-1.1699,-1.3128,-1.6443,-1.831,-1.9415,-2.2351,-2.462,-2.6098,-2.5025,-2.3263,-2.1671,-2.2741,-1.928,-1.4485,-1.4476,-1.4632,-1.4945,-1.56,-1.6169,-1.649,-1.6016,0.0,0.0,0.0,0.0,0.0,-2.3518,-2.4483,-2.5482,-2.7544,-2.8364,-2.9111,-3.0577,-3.1198,-3.1557,-3.1633,-3.1552,-3.1615,-3.2008,-3.2238,-3.2571,-3.3214,-3.3792,-3.4295,-3.4775,-3.4882,-3.5068,-3.5388,-3.577,-3.6348,-3.7068,-3.7785,-3.8074,-3.7948,-3.7398,-3.6965,-3.662,-3.662,-3.6727,-3.6885,-3.6885,-3.6885,-3.6885,-3.6885,-3.6885,-3.6885,-3.6885,-3.6885,-3.6885,-3.6885,-3.6885,-3.6885,-3.6885,-3.6885,-3.6885,-3.6885,-3.6885,-3.6885,0.0,0.0,0.0,0.0,0.0,0.2344,0.1906,0.1262,0.072,0.0,0.0,0.0,-0.1614,-0.1747,-0.2318,-0.3663,-0.4508,-0.5568,-0.6995,-0.7572,-0.8159,-0.8885,-0.9104,-0.924,-0.9369,-0.9308,-0.9308,-0.9369,-0.913,-0.9083,-0.9198,-0.9607,-0.9947,-1.0301,-1.0878,-1.1713,-1.2634,-1.1823,-1.2532,-1.4568,-1.8587,-2.0359,-2.0895,-2.3896,-2.5754,-2.6722,-2.6862,-2.5825,-2.4653,-2.6238,-2.2693,-1.7517,-1.689,-1.6527,-1.6374,-1.6394,-1.6851,-1.7225,-1.6573,-1.6806,-1.7531,-1.8578,0.0,0.0,-2.2281,-2.2851,-2.3555,-2.61,-2.6961,-2.7748,-2.9417,-3.0715,-3.1647,-3.2097,-3.2659,-3.2727,-3.1958,-3.2187,-3.2569,-3.3056,-3.3552,-3.4028,-3.4362,-3.4668,-3.4882,-3.5004,-3.5439,-3.6033,-3.6859,-3.768,-3.7989,-3.7573,-3.7136,-3.6748,-3.65,-3.65,-3.6647,-3.6885,-3.6885,-3.6885,-3.6885,-3.6885,-3.6885,-3.6885,-3.6885,-3.6885,-3.6885,-3.6885,-3.6885,-3.6885,-3.6885,-3.6885,-3.6885,-3.6885,-3.6885,-3.6885,0.0,0.0,0.2169,0.0638,0.037,0.0125,-0.0508,-0.054,-0.0667,0.0,-0.1168,-0.1767,-0.3305,-0.3574,-0.435,-0.6129,-0.7004,-0.7562,-0.7798,-0.853,-0.8926,-0.8912,-0.9117,-0.9328,-0.9551,-0.9476,-0.9469,-0.9557,-0.9335,-0.9124,-0.8912,-0.9097,-0.9233,-0.9384,-1.0424,-1.1438,-1.2453,-1.3183,-1.451,-1.6614,-2.1592,-2.2582,-2.1621,-2.5937,-2.6492,-2.5227,-2.7214,-2.7741,-2.7683,-2.8802,-2.7028,-2.4006,-2.1999,-2.0386,-1.8986,-1.779,-1.8046,0.0,-1.7705,-1.7711,0.0,-1.9991,-1.9142,0.0,-2.2262,-2.2006,-2.1837,-2.465,-2.5529,-2.6322,-2.8069,-2.966,-3.1201,-3.2526,-3.431,-3.4736,-3.2428,-3.25,-3.2857,-3.2907,-3.3436,-3.3801,-3.3828,-3.4336,-3.4735,-3.4762,-3.5082,-3.5782,-3.6754,-3.7652,-3.7846,-3.7159,-3.6904,-3.6653,-3.6393,-3.6433,-3.6607,-3.6845,-3.6885,-3.6885,-3.6885,-3.6885,-3.6885,-3.6885,-3.6885,-3.6885,-3.6885,-3.6885,-3.6885,-3.6885,-3.6885,-3.6885,-3.6885,-3.6885,-3.6885,-3.6885,0.0,0.2283,0.1824,0.0322,0.0065,-0.0065,-0.0531,-0.0592,-0.0824,-0.1484,-0.1636,-0.2229,-0.3708,-0.3966,-0.5078,-0.7771,-0.7972,-0.8327,-0.914,-0.9164,-0.9062,-0.8919,-0.9191,-0.9335,-0.9274,-0.9564,-0.9571,-0.9274,-0.9335,-0.9198,-0.8912,-0.894,-0.8967,-0.9049,-1.022,-1.1355,-1.2609,-1.5755,-1.8379,-2.0441,-2.0757,-2.236,-2.489,-2.8095,-2.9737,-3.0446,-3.1509,-3.0623,-2.8629,-2.6146,-2.607,-2.6361,-2.2491,-2.1811,-2.211,-2.0219,-2.0308,-2.0869,-2.0181,-2.0367,-2.0459,-1.9494,-1.9734,0.0,-1.923,-1.9829,-2.0888,-2.2139,-2.3143,-2.4299,-2.5985,-2.7264,-2.8163,-2.8464,-3.1452,-3.4376,-3.6143,-3.5188,-3.447,-3.4907,-3.3882,-3.3253,-3.348,-3.3841,-3.4162,-3.4389,-3.5499,-3.619,-3.6177,-3.7191,-3.7324,-3.6273,-3.6183,-3.6043,-3.5792,-3.6032,-3.6299,-3.658,-3.6779,-3.6885,-3.6885,-3.6885,-3.6885,-3.6885,-3.6885,-3.6885,-3.6885,-3.6885,-3.6885,-3.6885,-3.6885,-3.6885,-3.6885,-3.6885,-3.6885,-3.6885,0.1413,0.1092,0.0861,0.0132,0.0,-0.0204,-0.0803,-0.0907,-0.1197,-0.1979,-0.2194,-0.3159,-0.5497,-0.5669,-0.6879,-0.9864,-0.9755,-0.9638,-0.994,-0.9591,-0.9308,-0.9055,-0.9213,-0.9362,-0.9483,-0.9639,-0.968,-0.9598,-0.9456,-0.9266,-0.9042,-0.8946,-0.9582,-1.0843,-1.1592,-1.3031,-1.4997,-1.7294,-1.9515,-2.1714,-2.3592,-2.5774,-2.8232,-3.0838,-3.2279,-3.2891,-3.3274,-3.2565,-3.1021,-2.8382,-2.7967,-2.7998,-2.4969,-2.4342,-2.4377,-2.2489,-2.2459,-2.2784,-2.162,-2.1488,-2.1535,-2.0955,-2.0654,0.0,0.0,-2.0153,-2.0558,-2.2435,-2.2539,-2.2971,-2.5188,-2.643,-2.7417,-2.8194,-3.2005,-3.5082,-3.555,-3.596,-3.605,-3.5558,-3.4448,-3.3547,-3.3031,-3.3253,-3.3681,-3.4282,-3.5366,-3.5962,-3.58,-3.6475,-3.6611,-3.6033,-3.5717,-3.5669,-3.5845,-3.6006,-3.6286,-3.6727,-3.6861,-3.6885,-3.6885,-3.6885,-3.6885,-3.6885,-3.6885,-3.6885,-3.6885,-3.6885,-3.6885,-3.6885,-3.6885,-3.6885,-3.6885,-3.6885,-3.6885,-3.6885,0.0217,-0.0063,-0.0098,-0.01,-0.0171,-0.0454,-0.1194,-0.1311,-0.16,-0.2396,-0.3331,-0.5049,-0.8044,-0.8853,-1.0401,-1.3403,-1.2857,-1.2079,-1.1427,-1.0772,-1.0132,-0.9528,-0.9369,-0.9492,-0.9856,-0.9727,-0.9683,-0.9775,-0.953,-0.9315,-0.9138,-0.8967,-1.0168,-1.25,-1.3235,-1.4982,-1.7495,-1.8683,-2.0506,-2.2982,-2.7036,-2.9085,-2.9998,-3.2425,-3.3414,-3.3494,-3.3788,-3.3721,-3.324,-3.153,-3.0418,-2.9433,-2.7651,-2.6882,-2.6313,-2.4649,-2.4508,-2.4623,-2.322,-2.2892,-2.2921,-2.2914,-2.2108,-2.1478,0.0,0.0,0.0,-2.2936,-2.234,-2.2127,-2.4402,-2.553,-2.6536,-2.7765,-3.19,-3.4394,-3.2751,-3.5028,-3.6326,-3.4841,-3.4499,-3.3846,-3.2412,-3.242,-3.2919,-3.3988,-3.4633,-3.5106,-3.5412,-3.5816,-3.5928,-3.5823,-3.5415,-3.5418,-3.5899,-3.6019,-3.6313,-3.6754,-3.6845,-3.6885,-3.6885,-3.6885,-3.6885,-3.6885,-3.6885,-3.6885,-3.6885,-3.6885,-3.6885,-3.6885,-3.6885,-3.6885,-3.6885,-3.6885,-3.6885,-3.6885,-0.0031,-0.0223,-0.0456,-0.0435,-0.0722,-0.1126,-0.1574,-0.1701,-0.1946,-0.2528,-0.5951,-0.9137,-1.1164,-1.4355,-1.7417,-2.0065,-1.8669,-1.7009,-1.5448,-1.4041,-1.2421,-1.0613,-1.0032,-0.9836,-1.005,-0.9876,-0.9528,-0.9034,-0.9279,-0.9239,-0.8933,-0.8919,-0.9877,-1.1728,-1.3845,-1.5948,-1.8088,-2.0801,-2.3755,-2.6779,-2.8313,-2.8241,-2.7535,-3.0434,-3.169,-3.2139,-3.3414,-3.3868,-3.3601,-3.2126,-3.153,-3.1016,-2.8764,-2.8287,-2.8258,-2.657,-2.6427,-2.6715,-2.6346,-2.6441,-2.6188,-2.4127,-2.4566,-2.458,-2.0948,0.0,-2.2047,-2.1229,0.0,-2.1764,-2.2285,0.0,0.0,-2.3174,-2.6677,-2.9229,-2.8708,-3.148,-3.305,-3.1747,-3.3071,-3.3261,-3.1195,-3.0841,-3.139,-3.3013,-3.2973,-3.3464,-3.4825,-3.5621,-3.577,-3.5296,-3.5243,-3.5231,-3.5297,-3.5819,-3.6099,-3.6179,-3.6687,-3.6885,-3.6885,-3.6885,-3.6885,-3.6885,-3.6885,-3.6885,-3.6885,-3.6885,-3.6885,-3.6885,-3.6885,-3.6885,-3.6885,-3.6885,-3.6885,-3.6885,-0.0347,-0.0547,-0.0789,-0.0805,-0.0965,-0.1239,-0.1676,-0.2162,-0.2495,-0.2702,-0.4408,-0.6288,-0.8088,-0.9527,-1.2279,-1.7075,-1.6465,-1.5439,-1.4602,-1.371,-1.1656,-0.8056,-0.8519,-0.8843,-0.8781,-0.9529,-0.9777,-0.9529,-0.9359,-0.9298,-0.9307,-0.9743,-1.1566,-1.4526,-1.6245,-1.8956,-2.2251,-2.3248,-2.4549,-2.6095,-2.7465,-2.7535,-2.7254,-3.1623,-3.336,-3.3598,-3.4226,-3.4282,-3.3908,-3.2425,-3.169,-3.1209,-3.0092,-2.9188,-2.8484,-2.779,-2.7448,-2.7155,-2.6356,-2.6706,-2.6934,-2.5405,-2.5156,-2.4682,-2.2375,-2.1767,-2.1786,-2.1951,0.0,0.0,0.0,0.0,0.0,0.0,-2.4784,-2.637,-2.4527,-2.8629,-3.1476,-3.0694,-3.0937,-3.0837,-2.9864,-2.9967,-3.0688,-3.2166,-3.2116,-3.2587,-3.3895,-3.4797,-3.5279,-3.5191,-3.5191,-3.5271,-3.5444,-3.5698,-3.5992,-3.6326,-3.658,-3.6754,-3.6885,-3.6885,-3.6885,-3.6885,-3.6885,-3.6885,-3.6885,-3.6885,-3.6885,-3.6885,-3.6885,-3.6885,-3.6885,-3.6885,-3.6885,-3.6885,-0.0855,0.0,-0.1151,-0.1168,-0.1306,-0.1534,-0.1948,-0.2476,-0.2811,-0.2808,-0.3975,-0.5469,-0.7086,-0.8944,-1.2121,-1.727,-1.7957,-1.7812,-1.7142,-1.5521,-1.325,-1.0335,-0.9381,-0.9346,-1.0151,-1.0346,-1.0376,-1.0263,-0.9737,-0.9653,-0.9961,-1.0631,-1.2819,-1.633,-1.8237,-2.1339,-2.5164,-2.5531,-2.6228,-2.7178,-2.8199,-2.8804,-2.9486,-3.2915,-3.4507,-3.4922,-3.4842,-3.4629,-3.4229,-3.2812,-3.1915,-3.1267,-3.0816,-2.969,-2.8539,-2.8504,-2.8276,-2.7758,-2.6687,-2.6768,-2.6957,-2.6094,-2.4964,-2.3916,-2.3213,-2.2432,-2.2031,-2.276,-2.2044,0.0,0.0,0.0,-2.1109,-2.1622,0.0,-2.4169,-2.2032,-2.5535,-2.8297,-2.8191,-2.8336,-2.8434,-2.8382,-2.8671,-2.9459,-3.0955,-3.0895,-3.151,-3.32,-3.4068,-3.4748,-3.507,-3.5151,-3.5297,-3.5511,-3.5538,-3.5885,-3.6393,-3.6473,-3.6647,-3.6885,-3.6885,-3.6885,-3.6885,-3.6885,-3.6885,-3.6885,-3.6885,-3.6885,-3.6885,-3.6885,-3.6885,-3.6885,-3.6885,-3.6885,-3.6885,-0.1542,-0.1579,-0.1589,-0.1579,-0.1912,-0.2233,-0.2444,-0.2551,-0.2664,-0.2852,-0.6559,-0.9728,-1.109,-1.7951,-2.3238,-2.5159,-2.7543,-2.8157,-2.6377,-2.159,-1.9505,-2.1041,-1.4495,-1.2518,-1.6145,-1.3144,-1.134,-1.0876,-1.0457,-1.0457,-1.0876,-1.1279,-1.2859,-1.5492,-1.9045,-2.2255,-2.5177,-2.749,-2.998,-3.2353,-3.2051,-3.3146,-3.4763,-3.3263,-3.3731,-3.5151,-3.487,-3.4802,-3.4614,-3.336,-3.2402,-3.152,-3.0686,-2.9683,-2.8887,-2.8812,-2.9021,-2.9108,-2.838,-2.7473,-2.6531,-2.5727,-2.4175,-2.2777,-2.2487,-2.3086,-2.3562,-2.3014,-2.3514,-2.3915,-2.3372,-2.302,0.0,0.0,-2.2265,0.0,0.0,-2.1934,-2.2202,-2.3036,-2.5123,-2.6599,-2.6854,-2.64,-2.7081,-2.9379,-2.8794,-2.9691,-3.2826,-3.3574,-3.4175,-3.4815,-3.5044,-3.5204,-3.5204,-3.5485,-3.5778,-3.614,-3.6366,-3.6647,-3.6885,-3.6885,-3.6885,-3.6885,-3.6885,-3.6885,-3.6885,-3.6885,-3.6885,-3.6885,-3.6885,-3.6885,-3.6885,-3.6885,-3.6885,-3.6885,-0.1928,-0.2787,-0.3196,-0.2166,-0.2108,-0.286,-0.4789,-0.5455,-0.7061,-1.0884,-1.1827,-1.2984,-1.4987,-1.7581,-1.9891,-2.173,-2.3956,-2.4871,-2.4037,-2.099,-1.9379,-1.9823,-1.3867,-1.2277,-1.5884,-1.3877,-1.2502,-1.1898,-1.13,-1.1194,-1.158,-1.2972,-1.4751,-1.6997,-2.0731,-2.4178,-2.7212,-2.8588,-3.0034,-3.1423,-3.1904,-3.3227,-3.4804,-3.4456,-3.467,-3.5177,-3.5084,-3.5044,-3.4871,-3.3712,-3.2736,-3.1949,-3.1272,-2.9965,-2.8659,-2.8881,-2.8972,-2.8953,-2.8527,-2.8932,-2.8706,-2.5882,-2.4594,-2.3282,-2.0645,-2.1366,-2.2363,-2.1552,-2.3002,-2.4212,-2.3439,-2.2913,0.0,0.0,0.0,0.0,0.0,-2.0735,-2.1002,-2.193,-2.3603,-2.485,-2.5293,-2.5732,-2.6734,-2.8513,-2.8684,-2.9633,-3.1704,-3.3133,-3.3975,-3.4175,-3.4843,-3.5191,-3.5191,-3.5297,-3.5485,-3.5778,-3.6072,-3.6366,-3.6647,-3.6805,-3.6885,-3.6885,-3.6885,-3.6719,-3.6387,-3.6733,-3.6664,-3.6387,-3.6788,-3.6885,-3.6885,-3.6885,-3.6885,-3.6885,-0.2497,-0.3769,-0.4444,-0.3253,-0.3913,-0.5287,-0.7424,-0.8417,-1.0545,-1.5221,-1.444,-1.459,-1.7535,-1.8295,-1.9194,-2.0686,-2.4149,-2.536,-2.3262,-2.2855,-2.2431,-2.1753,-1.7514,-1.67,-2.0021,-1.7302,-1.5361,-1.4319,-1.2967,-1.2339,-1.245,-1.3815,-1.5501,-1.7571,-2.118,-2.4645,-2.7831,-2.957,-3.0955,-3.2118,-3.2893,-3.3895,-3.4871,-3.5124,-3.5137,-3.5057,-3.5164,-3.5191,-3.5084,-3.4124,-3.3174,-3.2298,-3.1744,-3.0378,-2.8991,-2.9211,-2.9477,-2.953,-2.9047,-2.9451,-2.9396,-2.6899,-2.5578,-2.4085,-2.1023,-2.1655,-2.2426,-2.0837,-2.2497,-2.4173,-2.3933,-2.3438,-2.3033,0.0,0.0,0.0,0.0,-2.0317,-2.0762,-2.1355,-2.2512,-2.3607,-2.4372,-2.481,-2.5837,-2.7737,-2.8003,-2.8965,-3.0969,-3.2559,-3.3561,-3.3881,-3.4736,-3.5191,-3.5191,-3.5191,-3.5338,-3.5578,-3.5939,-3.6219,-3.6513,-3.6794,-3.6885,-3.6885,-3.6885,-3.6608,-3.6109,-3.6664,-3.6595,-3.6178,-3.6664,-3.6885,-3.6885,-3.6885,-3.6885,-3.6885,-0.3489,-0.4763,-0.5619,-0.5244,-0.7333,-0.9373,-1.0304,-1.1449,-1.3288,-1.626,-1.522,-1.5633,-1.9248,-2.0825,-2.1861,-2.239,-2.8079,-2.9553,-2.4605,-2.7122,-2.8376,-2.7437,-2.5136,-2.5263,-2.8155,-2.303,-1.9555,-1.7913,-1.5215,-1.375,-1.3477,-1.387,-1.5147,-1.7177,-2.0343,-2.3606,-2.6946,-3.0143,-3.2603,-3.4389,-3.4963,-3.5191,-3.5177,-3.5191,-3.5017,-3.4855,-3.5097,-3.5191,-3.5085,-3.4491,-3.3523,-3.2594,-3.196,-3.0851,-2.9815,-2.9853,-3.0417,-3.0827,-3.0048,-2.9227,-2.8641,-2.8627,-2.7033,-2.5077,-2.3502,-2.3863,-2.3765,-2.1199,-2.2248,-2.3913,-2.4891,-2.4541,-2.4233,0.0,0.0,0.0,-2.008,-2.0575,-2.1109,-2.1149,-2.1857,-2.2785,-2.3995,-2.3634,-2.4396,-2.7028,-2.668,-2.7642,-3.0568,-3.1872,-3.2929,-3.3788,-3.4696,-3.5177,-3.5191,-3.5191,-3.5338,-3.5551,-3.5925,-3.6219,-3.65,-3.6794,-3.6885,-3.6885,-3.6885,-3.6608,-3.6109,-3.6664,-3.6595,-3.6178,-3.6664,-3.6885,-3.6885,-3.6885,-3.6885,-3.6885,-0.6647,-0.8825,-1.107,-1.2795,-1.2131,-1.1873,-1.3401,-1.6054,-1.98,-2.5121,-2.6698,-2.7677,-2.8425,-2.8821,-2.7502,-2.3542,-2.6413,-2.8407,-2.8453,-2.7921,-2.9497,-3.3838,-2.8165,-2.655,-3.0033,-2.3898,-2.0353,-1.9673,-1.5952,-1.4123,-1.414,-1.4663,-1.541,-1.6455,-1.8635,-2.1942,-2.5958,-2.7781,-3.094,-3.4683,-3.5044,-3.507,-3.4897,-3.511,-3.5017,-3.4855,-3.5097,-3.5191,-3.5006,-3.3822,-3.3095,-3.2504,-3.1285,-3.0533,-3.0119,-3.0314,-3.0802,-3.1308,-3.1263,-3.122,-3.0747,-2.8985,-2.764,-2.6149,-2.3977,-2.4873,-2.5811,-2.4484,-2.4962,-2.5653,-2.5743,-2.432,-2.3252,0.0,0.0,0.0,-2.1221,-2.0953,-2.1029,-2.1683,-2.1577,-2.1817,-2.2779,-2.3118,-2.4026,-2.5825,-2.6065,-2.7202,-2.9686,-3.0728,-3.1791,-3.2902,-3.4226,-3.4977,-3.5191,-3.5191,-3.5231,-3.5311,-3.5832,-3.6112,-3.6206,-3.6672,-3.6885,-3.6885,-3.6885,-3.6608,-3.6109,-3.6664,-3.6595,-3.6178,-3.6664,-3.6885,-3.6885,-3.6885,-3.6885,-3.6885,-0.7727,-1.0999,-1.4507,-1.6706,-1.7104,-1.7488,-1.8553,-1.8874,-2.1197,-2.7426,-2.8548,-2.8688,-2.8465,-2.9552,-2.8484,-2.4146,-2.596,-2.6875,-2.5781,-2.7576,-2.9285,-3.0674,-2.8403,-2.7941,-2.9706,-2.4722,0.0,-2.0409,-1.6828,-1.4838,-1.431,-1.4517,-1.5061,-1.587,-1.7533,-2.0228,-2.381,-2.7224,-3.0363,-3.3201,-3.4649,-3.5097,0.0,-3.5137,-3.5097,-3.4977,-3.5137,-3.5191,-3.5045,-3.3849,-3.3252,-3.2801,-3.1405,-3.0929,-3.0886,-3.0788,-3.134,-3.1913,-3.1975,-3.2128,-3.1943,-3.0465,-2.9632,-2.8489,-2.5905,-2.6246,-2.6721,-2.5298,-2.5572,-2.5984,-2.5726,-2.4738,-2.3745,-2.3024,-2.2512,-2.1991,-2.1475,-2.1221,-2.1221,-2.1563,-2.1537,-2.163,-2.2004,-2.2458,-2.3354,-2.4823,-2.5331,-2.6412,-2.8217,-2.99,-3.1276,-3.2367,-3.3788,-3.4776,-3.5191,-3.5191,-3.5191,-3.5204,-3.5792,-3.6072,-3.614,-3.6687,-3.6885,-3.6885,-3.6885,-3.6608,-3.6109,-3.6664,-3.6595,-3.6178,-3.6664,-3.6885,-3.6885,-3.6885,-3.6885,-3.6885,-0.8639,-1.2712,-1.6651,-1.8246,-2.1405,-2.3926,-2.4565,-2.2001,-2.1913,-2.7423,-2.7147,-2.6309,-2.5756,-2.7562,-2.7724,-2.49,-2.6201,-2.5481,-2.1467,-2.6899,-2.851,-2.4465,-2.7726,-2.9234,-2.8551,-2.5391,-2.2737,0.0,-1.7698,-1.552,-1.4176,-1.3904,-1.4265,-1.5199,-1.6506,-1.8715,-2.1863,-2.764,-3.0574,-3.1546,-3.4164,-3.5191,-3.5191,-3.5191,-3.5191,-3.5191,-3.5191,-3.5191,-3.5045,-3.4216,-3.3746,-3.3265,-3.2007,-3.1667,-3.1718,-3.1315,-3.1857,-3.2559,-3.2411,-3.2504,-3.2527,-3.2225,-3.1917,-3.1067,-2.8607,-2.8074,-2.7561,-2.572,-2.5724,-2.601,-2.5803,-2.5719,-2.5024,-2.2979,-2.2686,-2.2458,-2.1737,-2.1756,-2.1716,-2.143,-2.1817,0.0,-2.1569,-2.1823,-2.2565,-2.3981,-2.4489,-2.5371,-2.6854,-2.9182,-3.1008,-3.2064,-3.3557,-3.4601,-3.5137,-3.5177,-3.5191,-3.5204,-3.5792,-3.6072,-3.614,-3.6687,-3.6885,-3.6885,-3.6885,-3.6664,-3.6263,-3.6733,-3.6608,-3.6263,-3.6733,-3.6885,-3.6885,-3.6885,-3.6885,-3.6885,-1.4355,-1.6964,-1.8681,-1.8656,-2.2185,-2.6002,-2.8931,-3.0787,-3.2375,-3.3866,-3.6371,-3.7039,-3.4591,-3.2814,-3.0649,-2.7795,-2.5902,-2.5332,-2.65,-2.7575,-2.8573,-2.952,-2.9917,-2.9783,-2.9188,-2.5463,-2.2863,-2.1418,-1.7714,-1.5212,-1.3937,-1.3457,-1.3415,-1.3753,-1.4139,-1.7759,-2.3928,-2.7948,-3.1213,-3.3768,-3.478,-3.5191,-3.5191,-3.5191,-3.5191,-3.5191,-3.5191,-3.5191,-3.5085,-3.4452,-3.3915,-3.3356,-3.2698,-3.2175,-3.1857,-3.2209,-3.2461,-3.2699,-3.3097,-3.2897,-3.2581,-3.2527,-3.2112,-3.1563,-3.1067,-3.098,-3.0886,-3.0496,-2.9187,-2.8241,-2.8655,-2.7567,-2.5999,-2.4182,-2.4052,-2.4239,-2.4369,-2.3594,-2.2993,-2.2905,-2.2806,-2.2345,-2.1283,-2.167,-2.2405,-2.3372,-2.3078,-2.4249,-2.7375,-2.8422,-2.9887,-3.2024,-3.3706,-3.4652,-3.4882,-3.5084,-3.5191,-3.5204,-3.5792,-3.6072,-3.614,-3.6687,-3.6885,-3.6885,-3.6885,-3.6872,-3.6761,-3.6872,-3.6817,-3.6761,-3.6872,-3.6885,-3.6885,-3.6885,-3.6885,-3.6885,-1.6928,-1.8712,-2.03,-2.2067,-2.5576,-2.9392,-3.3071,-3.6394,-3.7529,-3.4926,-3.5977,-3.5875,-3.3269,-3.3907,-3.296,-2.9014,-2.7287,-2.6247,-2.6053,-2.587,-2.6261,-2.7348,-2.6956,-2.6488,-2.606,-2.3755,-2.1817,-2.0247,-1.7733,-1.578,-1.444,-1.3717,-1.3425,-1.3581,-1.5499,-1.8621,-2.2791,-2.7604,-3.0702,-3.2481,-3.4412,-3.5191,-3.5191,-3.5191,-3.5191,-3.5191,-3.5191,-3.5191,-3.5125,-3.4702,-3.4411,-3.4017,-3.3187,-3.2915,-3.287,-3.2663,-3.2812,-3.3063,-3.3314,-3.3093,-3.2781,-3.2634,-3.226,-3.1851,-3.1751,-3.1711,-3.1711,-3.1711,-3.089,-3.0071,-2.9575,-2.7451,-2.5709,-2.5552,-2.5291,-2.5106,-2.5291,-2.469,-2.3737,-2.2411,-2.2749,-2.2379,-2.0504,-2.1346,-2.2044,-2.2131,-2.2585,-2.3901,-2.6213,-2.7459,-2.9185,-3.1557,-3.3031,-3.4095,-3.4802,-3.5057,-3.5191,-3.5204,-3.5631,-3.5764,-3.5653,-3.6362,-3.6642,-3.6484,-3.6761,-3.6885,-3.6885,-3.6885,-3.6885,-3.6885,-3.6885,-3.6885,-3.6885,-3.6885,-3.6992,-3.7155,-1.9055,-2.0498,-2.2424,-2.622,-2.9736,-3.3094,-3.6112,-3.957,-4.0331,-3.5971,-3.5179,-3.4331,-3.2367,-3.4847,-3.5075,-3.1126,-2.9346,-2.7527,-2.5432,-2.4554,-2.4129,-2.4129,-2.3788,-2.3422,-2.3065,-2.2253,-2.1007,-1.9151,-1.7973,-1.6584,-1.5009,-1.4152,-1.4085,-1.4717,-1.7801,-2.0428,-2.292,-2.7792,-3.0466,-3.1628,-3.415,-3.5191,-3.5191,-3.5191,-3.5191,-3.5191,-3.5191,-3.5191,-3.5164,-3.4989,-3.4869,-3.4631,-3.374,-3.3709,-3.382,-3.3097,-3.3169,-3.3494,-3.3427,-3.32,-3.2919,-3.2594,-3.2323,-3.199,-3.1667,-3.1669,-3.1711,-3.1711,-3.1711,-3.1269,-2.9753,-2.7682,-2.6308,-2.6837,-2.6136,-2.5662,-2.604,-2.4997,-2.3732,-2.246,-2.2622,-2.2172,-2.0478,-2.1297,-2.1777,-2.1496,-2.2458,-2.3714,-2.5277,-2.6787,-2.8609,-3.0969,-3.2335,-3.3524,-3.4427,-3.4923,-3.5191,-3.5204,-3.5498,-3.551,-3.5423,-3.6026,-3.6289,-3.6263,-3.6608,-3.6817,-3.6885,-3.6885,-3.6885,-3.6885,-3.6885,-3.6925,-3.7008,-3.6912,-3.7155,-3.7489,-2.244,-2.4129,-2.6086,-2.9657,-3.3572,-3.6333,-3.6636,-3.9779,-4.1892,-4.114,-4.0999,-4.0818,-4.0259,-3.8487,-3.7102,-3.6676,-3.1912,-2.8823,-2.858,-2.5867,-2.4253,-2.4253,-2.3975,-2.3617,-2.3295,-2.2742,-2.1569,-1.9711,-1.8729,-1.7214,-1.5164,-1.4589,-1.5575,-1.7923,-1.9357,-2.3005,-2.8135,-2.9408,-3.168,-3.4462,-3.4991,-3.5191,-3.5191,-3.5191,-3.5191,-3.5191,-3.5191,-3.5191,-3.5191,-3.5164,-3.4977,-3.475,-3.4644,-3.4496,-3.4215,-3.3884,-3.379,-3.3788,-3.3494,-3.32,-3.2874,-3.2353,-3.2177,-3.1947,-3.1452,-3.1529,-3.1711,-3.1711,-3.1711,-3.1269,-2.9753,-3.0125,-2.9861,-2.7629,-2.6381,-2.6213,-2.7727,-2.4107,-2.2333,-2.5243,-2.3115,-2.1705,-2.2524,-2.2025,-2.193,-2.2679,-2.2372,-2.3327,-2.6119,-2.6848,-2.8165,-3.04,-3.23,-3.3249,-3.3196,-3.4509,-3.5191,-3.5204,-3.5498,-3.5725,-3.6032,-3.5808,-3.6097,-3.6817,-3.6387,-3.6455,-3.6885,-3.6885,-3.6885,-3.6885,-3.6885,-3.7088,-3.7315,-3.6992,-3.7246,-3.7782,-2.2084,-2.461,-2.7106,-2.9111,-3.2071,-3.4339,-3.4993,-3.6274,-3.7193,-3.7098,-3.9844,-4.1817,-4.1857,-4.0575,-3.9186,-3.7744,-3.5422,-3.2583,-2.9205,-2.7794,-2.6356,-2.4549,-2.4251,-2.395,-2.3593,-2.3171,-2.2902,-2.2669,-2.0166,-1.885,-1.8727,-1.7918,-1.9099,-2.2031,-2.4173,-2.6863,-2.9873,-3.1995,-3.3796,-3.5311,-3.5605,-3.5725,-3.5698,-3.5525,-3.5458,-3.5431,-3.5257,-3.5191,-3.5191,-3.5191,-3.5124,-3.499,-3.4869,-3.4735,-3.4496,-3.4028,-3.3881,-3.3814,-3.3494,-3.3334,-3.3051,-3.2382,-3.2041,-3.1749,-3.0986,-3.1016,-3.1202,-3.1202,-3.1474,-3.1537,-3.0948,-3.0595,-2.9852,-2.8092,-2.6736,-2.6273,-2.7253,-2.4212,-2.2754,-2.5069,-2.3184,-2.1885,-2.2439,-2.2245,-2.2512,-2.3581,-2.2779,-2.3233,-2.5478,-2.6301,-2.7566,-2.9499,-3.1692,-3.2875,-3.2973,-3.4456,-3.5191,-3.5191,-3.5311,-3.5458,-3.5585,-3.5813,-3.6294,-3.6885,-3.6664,-3.6719,-3.6885,-3.6885,-3.6885,-3.6941,-3.7128,-3.7275,-3.7382,-3.7448,-3.7742,-3.8076,-2.3146,-2.5535,-2.7956,-2.9878,-3.1672,-3.3013,-3.3873,-3.3949,-3.3884,-3.3884,-3.7138,-3.987,-4.0898,-4.1329,-4.0894,-3.9238,-3.812,-3.5456,-3.0619,-2.9476,-2.7668,-2.4726,-2.4421,-2.4186,-2.3894,-2.4244,-2.4711,-2.5145,-2.3081,-2.2383,-2.2907,-2.1948,-2.3127,-2.6189,-2.8326,-3.0228,-3.1946,-3.4097,-3.5311,-3.5778,-3.5992,-3.6072,-3.6046,-3.5845,-3.5765,-3.5725,-3.5431,-3.5324,-3.5311,-3.5231,-3.5191,-3.5164,-3.495,-3.4949,-3.4842,-3.4295,-3.4082,-3.3948,-3.3627,-3.348,-3.321,-3.2314,-3.2004,-3.1669,-3.0666,-3.0616,-3.0781,-3.0882,-3.1344,-3.1711,-3.1711,-3.0996,-2.9841,-2.8118,-2.7162,-2.6656,-2.6665,-2.4337,-2.3345,-2.5364,-2.3314,-2.2079,-2.2843,-2.2687,-2.3113,-2.4489,-2.3888,-2.4115,-2.5677,-2.6226,-2.7415,-2.9366,-3.145,-3.2679,-3.2973,-3.4456,-3.5191,-3.5191,-3.5191,-3.5285,-3.5477,-3.6083,-3.6457,-3.6664,-3.6817,-3.6885,-3.6885,-3.6885,-3.7314,-3.7991,-3.8293,-3.8918,-3.9615,-3.9841,-3.9713,-3.9477,-2.6886,-2.7843,-2.9172,-3.3112,-3.3852,-3.3916,-3.3884,-3.3884,-3.3884,-3.3884,-3.3949,-3.5056,-3.7828,-4.0543,-4.2155,-4.2155,-3.9478,-3.6543,-3.3512,-3.0619,-2.7668,-2.4726,-2.4421,-2.4251,-2.4126,-2.6159,-2.6999,-2.6481,-2.7956,-2.8175,-2.7231,-2.639,-2.748,-3.0046,-3.076,-3.2581,-3.5138,-3.5431,-3.5792,-3.6072,-3.6072,-3.6072,-3.6072,-3.6126,-3.6072,-3.6032,-3.5725,-3.5631,-3.5525,-3.5297,-3.5191,-3.5191,-3.5191,-3.5191,-3.5137,-3.4895,-3.4549,-3.4255,-3.3961,-3.3654,-3.3163,-3.2058,-3.2003,-3.1868,-3.0514,-3.0373,-3.058,-3.0825,-3.1344,-3.1711,-3.1711,-3.1711,-3.0697,-2.7694,-2.7582,-2.752,-2.6522,-2.4224,-2.377,-2.6912,-2.3681,-2.2079,-2.4348,-2.3554,-2.3629,-2.5358,-2.5797,-2.6346,-2.7229,-2.6974,-2.7896,-3.0319,-3.1818,-3.2741,-3.2973,-3.4456,-3.5191,-3.5191,-3.5191,-3.5498,-3.6099,-3.6647,-3.6608,-3.6109,-3.6664,-3.6885,-3.6885,-3.6885,-3.8293,-4.0376,-4.0793,-4.2537,-4.4813,-4.4884,-4.3794,-4.2203,-2.4529,-2.6902,-2.8331,-2.7679,-2.9153,-2.961,-2.7265,-2.688,-2.688,-2.688,-2.8966,-3.0782,-3.1672,-3.4594,-3.7304,-3.9258,-3.8522,-3.6761,-3.3804,-3.2574,-2.9826,-2.4986,-2.4616,-2.5168,-2.6685,-2.7334,-2.8971,-3.1633,-3.0153,-2.9788,-3.0351,-3.0121,-3.138,-3.3863,-3.4085,-3.49,-3.6099,-3.6193,-3.6393,-3.6647,-3.6647,-3.6647,-3.6647,-3.6433,-3.6366,-3.6326,-3.6032,-3.5805,-3.5618,-3.5525,-3.5364,-3.5191,-3.5191,-3.5191,-3.5137,-3.4909,-3.4696,-3.4511,-3.3806,-3.3401,-3.2911,-3.1794,-3.1302,-3.0889,-3.0093,-3.0217,-3.058,-3.0825,-3.1344,-3.1711,-3.1711,-3.1503,-3.0671,-2.8482,-2.7689,-2.7196,-2.6999,-2.4439,-2.3938,-2.7493,-2.4994,-2.3823,-2.5897,-2.5424,-2.5155,-2.5491,-2.5824,-2.6292,-2.6921,-2.803,-2.8885,-2.9446,-3.1851,-3.3093,-3.2973,-3.4456,-3.5191,-3.5204,-3.5404,-3.5805,-3.638,-3.6754,-3.6817,-3.6664,-3.6817,-3.6885,-3.6885,-3.6885,-3.8293,-4.0446,-4.1028,-4.2765,-4.4987,-4.5424,-4.5277,-4.4491,-2.3472,-2.5376,-2.6297,-2.4551,-2.5656,-2.6092,-2.3949,-2.3626,-2.3626,-2.3626,-2.5516,-2.6871,-2.6871,-2.8966,-3.2072,-3.6161,-3.6546,-3.5255,-3.2334,-3.1997,-2.9829,-2.5132,-2.4763,-2.5759,-2.8005,-2.8977,-3.111,-3.4513,-3.3354,-3.326,-3.408,-3.3978,-3.4831,-3.6405,-3.6405,-3.6647,-3.7008,-3.7008,-3.7048,-3.7059,-3.7059,-3.6992,-3.6901,-3.6727,-3.6632,-3.662,-3.634,-3.6112,-3.5925,-3.5698,-3.5511,-3.5285,-3.4967,-3.4874,-3.4834,-3.4662,-3.4373,-3.4046,-3.3499,-3.3137,-3.2699,-3.1775,-3.1235,-3.0712,-2.999,-3.0021,-3.0316,-3.068,-3.1077,-3.14,-3.1483,-3.1356,-3.0572,-2.8724,-2.8341,-2.8016,-2.7307,-2.5873,-2.5629,-2.7738,-2.6315,-2.5517,-2.6547,-2.6774,-2.6747,-2.652,-2.7336,-2.7883,-2.8136,-2.8898,-2.9668,-3.0438,-3.2495,-3.3561,-3.348,-3.4616,-3.5244,-3.5364,-3.6661,-3.7476,-3.7796,-3.8114,-3.7743,-3.6885,-3.6885,-3.6885,-3.6885,-3.6885,-3.8363,-4.0607,-4.1072,-4.2775,-4.5058,-4.6544,-4.6549,-4.5654,-2.3355,-2.3494,-2.3494,-2.3494,-2.3494,-2.3494,-2.3487,-2.3421,-2.3421,-2.3421,-2.3487,-2.3494,-2.3494,-2.4155,-2.6897,-3.2709,-3.3421,-3.2378,-2.9661,-2.9429,-2.8039,-2.5028,-2.5051,-2.6245,-2.8512,-3.109,-3.3473,-3.5651,-3.714,-3.7889,-3.7849,-3.7569,-3.7569,-3.7809,-3.7809,-3.7809,-3.7809,-3.7809,-3.7635,-3.7382,-3.7382,-3.7195,-3.6885,-3.6885,-3.6885,-3.6845,-3.6592,-3.6513,-3.6433,-3.5872,-3.5618,-3.5458,-3.4648,-3.4279,-3.4213,-3.424,-3.3689,-3.3116,-3.3064,-3.2809,-3.2438,-3.1906,-3.158,-3.1068,-3.0024,-2.9812,-2.998,-3.0404,-3.0706,-3.1007,-3.1155,-3.1189,-3.0527,-2.8609,-2.9405,-2.9612,-2.7613,-2.8066,-2.843,-2.7856,-2.763,-2.7269,-2.6733,-2.7657,-2.8328,-2.8261,-2.9784,-3.0654,-3.0459,-2.9619,-3.0312,-3.2757,-3.3529,-3.4042,-3.4322,-3.491,-3.5351,-3.5672,-3.8407,-3.9786,-3.9815,-4.0053,-3.8994,-3.6885,-3.6885,-3.6885,-3.6885,-3.6885,-3.8446,-4.0786,-4.0911,-4.2607,-4.5207,-4.8021,-4.7661,-4.6123,-2.2634,-2.2774,-2.2774,-2.2774,-2.2774,-2.2568,-2.2038,-2.1906,-2.1906,-2.1906,-2.2428,-2.2774,-2.2774,-2.3421,-2.4411,-2.5911,-2.8443,-2.9721,-2.9014,-2.8654,-2.7444,-2.5152,-2.6764,-2.8832,-3.1162,-3.3782,-3.6139,-3.8238,-3.8581,-3.8553,-3.82,-3.8133,-3.7969,-3.7809,-3.7809,-3.7809,-3.7809,-3.7809,-3.7635,-3.7382,-3.7382,-3.7195,-3.6885,-3.6885,-3.6885,-3.6885,-3.6805,-3.6687,-3.6473,-3.634,-3.5827,-3.5251,-3.5077,-3.4196,-3.3349,-3.3615,-3.3566,-3.3303,-3.2826,-3.2508,-3.2179,-3.1603,-3.1158,-3.062,-2.9974,-3.0105,-3.0355,-3.0304,-3.0759,-3.1216,-3.1282,-3.1061,-3.075,-3.0227,-2.9705,-2.9176,-2.8634,-2.8762,-2.8841,-2.8695,-2.9058,-2.9269,-2.9295,-2.9411,-2.9394,-2.905,-2.9518,-3.0133,-3.0872,-3.0765,-3.1176,-3.227,-3.3531,-3.4255,-3.4322,-3.491,-3.5458,-3.5979,-3.6924,-3.7442,-3.7661,-3.7674,-3.7439,-3.6885,-3.6885,-3.6885,-3.6885,-3.6885,-3.8321,-4.0519,-4.0892,-4.2607,-4.523,-4.7734,-4.8632,-4.8615,-2.1906,-2.1972,-2.1972,-2.1972,-2.1972,-2.1832,-2.1441,-2.1375,-2.1375,-2.1375,-2.1766,-2.1972,-2.1972,-2.2641,-2.2958,-2.2634,-2.4923,-2.642,-2.642,-2.6152,-2.5589,-2.4692,-2.6943,-2.9481,-3.2243,-3.4943,-3.73,-3.9346,-3.9167,-3.8905,-3.8477,-3.8477,-3.8397,-3.821,-3.821,-3.821,-3.821,-3.821,-3.8076,-3.7782,-3.7635,-3.7408,-3.7128,-3.6981,-3.6885,-3.6885,-3.6885,-3.6834,-3.6619,-3.6211,-3.5792,-3.5267,-3.458,-3.3843,-3.3151,-3.3123,-3.2813,-3.2424,-3.1984,-3.183,-3.1753,-3.149,-3.1083,-3.0724,-3.0566,-3.0588,-3.0715,-3.106,-3.115,-3.1208,-3.143,-3.1138,-3.0783,-3.0662,-3.006,-2.9553,-2.9285,-2.9308,-2.9402,-2.9402,-3.0029,-3.063,-3.0967,-3.1289,-3.1202,-3.0575,-3.1098,-3.1454,-3.1373,-3.2047,-3.2629,-3.3048,-3.3862,-3.4389,-3.4523,-3.5244,-3.6408,-3.7871,-3.8178,-3.8346,-3.85,-3.85,-3.7922,-3.6885,-3.6885,-3.7008,-3.7128,-3.7128,-3.7974,-3.9209,-3.9335,-4.0312,-4.1966,-4.4373,-4.6268,-4.785,-2.1375,-2.1375,-2.1375,-2.1375,-2.1375,-2.1375,-2.1375,-2.1375,-2.1375,-2.1375,-2.1375,-2.1375,-2.1375,-2.1972,-2.2104,-2.1441,-2.2568,-2.3303,-2.3421,-2.3265,-2.3616,-2.4628,-2.7095,-2.9897,-3.3055,-3.5743,-3.7913,-3.9666,-3.9313,-3.902,-3.874,-3.87,-3.8718,-3.8718,-3.8718,-3.8718,-3.8718,-3.8718,-3.8544,-3.8281,-3.7996,-3.7702,-3.7422,-3.7155,-3.7032,-3.7048,-3.7008,-3.6952,-3.6857,-3.6003,-3.5623,-3.5255,-3.4015,-3.3436,-3.3193,-3.2731,-3.2073,-3.1457,-3.1191,-3.1252,-3.1384,-3.1336,-3.1244,-3.1246,-3.1442,-3.1174,-3.119,-3.209,-3.1733,-3.1359,-3.1784,-3.1281,-3.0718,-3.0455,-3.0242,-2.9962,-2.9366,-2.9686,-2.998,-2.998,-3.0795,-3.1558,-3.2128,-3.2818,-3.2969,-3.2298,-3.3147,-3.3239,-3.2086,-3.32,-3.4017,-3.4295,-3.4326,-3.4549,-3.4949,-3.5725,-3.7276,-3.9448,-3.9766,-3.9856,-3.9856,-3.9928,-3.8859,-3.6952,-3.6952,-3.7155,-3.7448,-3.7422,-3.7555,-3.7782,-3.7529,-3.7635,-3.8146,-4.0501,-4.2901,-4.5408,-2.1375,-2.1375,-2.1375,-2.1375,-2.1375,-2.1375,-2.1375,-2.1375,-2.1375,-2.1375,-2.1375,-2.1375,-2.1375,-2.1508,-2.1508,-2.1441,-2.1581,-2.2038,-2.2634,-2.2491,-2.3869,-2.7216,-2.9768,-3.2577,-3.5804,-3.8496,-3.9884,-3.996,-3.9666,-3.9372,-3.902,-3.8838,-3.8718,-3.8718,-3.8718,-3.8718,-3.8718,-3.8718,-3.8544,-3.8321,-3.8223,-3.7996,-3.7742,-3.7702,-3.7676,-3.7635,-3.7408,-3.7315,-3.7235,-3.6564,-3.5746,-3.4896,-3.4583,-3.3682,-3.2713,-3.2646,-3.235,-3.2012,-3.1759,-3.1541,-3.1336,-3.1119,-3.1558,-3.1985,-3.1765,-3.2055,-3.2404,-3.2609,-3.2492,-3.2355,-3.2463,-3.1421,-3.0542,-3.0415,-2.9626,-2.8916,-2.847,-2.9517,-3.0333,-3.0333,-3.1276,-3.2256,-3.303,-3.301,-3.3092,-3.3426,-3.3385,-3.3421,-3.3557,-3.3761,-3.4146,-3.4705,-3.4695,-3.495,-3.5485,-3.6126,-3.6624,-3.7046,-3.7345,-3.7439,-3.7439,-3.7751,-3.765,-3.7315,-3.7315,-3.7489,-3.7742,-3.7489,-3.7555,-3.7809,-3.7782,-3.7929,-3.8499,-4.0573,-4.1959,-4.3082,-2.1375,-2.1375,-2.1375,-2.1375,-2.1375,-2.1375,-2.1375,-2.1375,-2.1375,-2.1375,-2.1375,-2.1375,-2.1375,-2.1375,-2.1375,-2.1375,-2.1375,-2.154,-2.1774,-2.1635,-2.3136,-2.6767,-2.9598,-3.3244,-3.7983,-3.9652,-4.0019,-3.8958,-3.9077,-3.8953,-3.8604,-3.8314,-3.8369,-3.8718,-3.8718,-3.8718,-3.8718,-3.8718,-3.8651,-3.8504,-3.8388,-3.8183,-3.8036,-3.7889,-3.7809,-3.7753,-3.7676,-3.7529,-3.7286,-3.6685,-3.6044,-3.5403,-3.4671,-3.4263,-3.3862,-3.3066,-3.241,-3.2,-3.2012,-3.171,-3.1538,-3.1973,-3.2028,-3.2172,-3.2771,-3.2904,-3.3033,-3.3446,-3.3197,-3.2895,-3.2989,-3.1897,-3.0976,-3.0878,-2.9833,-2.9138,-2.9354,-2.9984,-3.0611,-3.1049,-3.1957,-3.2888,-3.3713,-3.3831,-3.3967,-3.4205,-3.4232,-3.4168,-3.3919,-3.4189,-3.4549,-3.4977,-3.5151,-3.5511,-3.6099,-3.6366,-3.6495,-3.6495,-3.6656,-3.6591,-3.6424,-3.6936,-3.7127,-3.7141,-3.744,-3.7782,-3.8036,-3.7946,-3.7986,-3.8093,-3.8093,-3.8143,-3.8409,-3.9343,-4.0789,-4.2461,-2.1375,-2.1375,-2.1375,-2.1375,-2.1375,-2.1375,-2.1375,-2.1375,-2.1375,-2.1375,-2.1375,-2.1375,-2.1375,-2.1375,-2.1375,-2.1375,-2.1375,-2.1387,-2.1265,-2.1109,-2.2787,-2.6698,-3.0422,-3.4513,-3.9179,-3.9787,-3.9439,-3.8216,-3.8417,-3.8392,-3.8047,-3.7964,-3.8086,-3.8499,-3.866,-3.8718,-3.8718,-3.8718,-3.8718,-3.8691,-3.8477,-3.837,-3.8388,-3.8103,-3.8036,-3.7979,-3.7956,-3.7782,-3.7499,-3.6917,-3.6466,-3.6034,-3.5009,-3.4903,-3.487,-3.3715,-3.2889,-3.2322,-3.2138,-3.1843,-3.1834,-3.2784,-3.2676,-3.2671,-3.39,-3.3928,-3.3872,-3.4472,-3.4013,-3.3492,-3.3508,-3.2422,-3.1459,-3.1237,-3.0207,-2.9559,-3.0054,-3.038,-3.0816,-3.1468,-3.2407,-3.3244,-3.3939,-3.45,-3.4751,-3.4599,-3.4973,-3.4887,-3.416,-3.4643,-3.5124,-3.5485,-3.5551,-3.5829,-3.6294,-3.6317,-3.6263,-3.6315,-3.6324,-3.6253,-3.6016,-3.6523,-3.6847,-3.7045,-3.7488,-3.7976,-3.837,-3.8348,-3.8348,-3.837,-3.837,-3.837,-3.837,-3.837,-3.9699,-4.146,-2.1375,-2.1375,-2.1375,-2.1375,-2.1375,-2.1375,-2.1375,-2.1375,-2.1375,-2.1375,-2.1375,-2.1375,-2.1375,-2.1375,-2.1375,-2.1375,-2.1375,-2.1375,-2.1421,-2.1157,-2.3559,-2.9277,-3.4909,-3.8094,-3.8534,-3.8595,-3.857,-3.8496,-3.8251,-3.7984,-3.7763,-3.8014,-3.8036,-3.7917,-3.8441,-3.8718,-3.8718,-3.8718,-3.8718,-3.8718,-3.8691,-3.8691,-3.8691,-3.8651,-3.8651,-3.8611,-3.833,-3.8281,-3.8116,-3.7555,-3.6976,-3.6406,-3.6089,-3.5442,-3.4782,-3.4592,-3.4351,-3.378,-3.2232,-3.1988,-3.2307,-3.2949,-3.3626,-3.4318,-3.494,-3.5243,-3.5458,-3.5471,-3.5031,-3.4527,-3.398,-3.275,-3.1653,-3.1043,-3.0237,-2.9569,-2.9314,-3.0194,-3.0891,-3.0965,-3.2155,-3.3145,-3.351,-3.4474,-3.4847,-3.4398,-3.5015,-3.5229,-3.4748,-3.5244,-3.5819,-3.6393,-3.5887,-3.5652,-3.5678,-3.5669,-3.5658,-3.5665,-3.5907,-3.6047,-3.6016,-3.6296,-3.6743,-3.7261,-3.7318,-3.7821,-3.8651,-3.8428,-3.8437,-3.8691,-3.8691,-3.8691,-3.8691,-3.8691,-3.882,-3.895,-2.1375,-2.1375,-2.1375,-2.1375,-2.1375,-2.1375,-2.1375,-2.1375,-2.1375,-2.1375,-2.1375,-2.1375,-2.1375,-2.1375,-2.1375,-2.1375,-2.1375,-2.1301,-2.1177,-2.1143,-2.3662,-2.9361,-3.4952,-3.7849,-3.7849,-3.829,-3.8094,-3.7299,-3.7441,-3.7447,-3.7335,-3.7097,-3.7388,-3.8036,-3.7691,-3.7717,-3.8137,-3.8137,-3.7917,-3.7555,-3.8369,-3.8499,-3.8208,-3.853,-3.8718,-3.866,-3.8584,-3.8437,-3.8281,-3.8067,-3.7683,-3.7227,-3.677,-3.6609,-3.6482,-3.5559,-3.501,-3.4435,-3.358,-3.3052,-3.2482,-3.157,-3.2428,-3.3688,-3.4449,-3.4864,-3.4976,-3.4836,-3.49,-3.4768,-3.3755,-3.2941,-3.2225,-3.1778,-3.0464,-2.9763,-3.0453,-3.0652,-3.0913,-3.1376,-3.2239,-3.2866,-3.3213,-3.3706,-3.4045,-3.4056,-3.482,-3.5245,-3.5031,-3.5909,-3.646,-3.65,-3.6452,-3.6327,-3.6158,-3.6324,-3.611,-3.5545,-3.5645,-3.5564,-3.5436,-3.6278,-3.6793,-3.7026,-3.7805,-3.8393,-3.866,-3.8584,-3.8611,-3.8718,-3.8718,-3.8718,-3.8718,-3.8718,-3.8718,-3.8718,-2.2547,-2.2686,-2.3009,-2.3861,-2.4051,-2.4051,-2.4051,-2.3266,-2.2686,-2.2686,-2.1972,-2.1375,-2.1375,-2.1375,-2.1766,-2.262,-2.2686,-2.3054,-2.3731,-2.4608,-2.6386,-2.9259,-3.4522,-3.736,-3.736,-3.7716,-3.747,-3.6624,-3.6797,-3.6905,-3.6832,-3.6643,-3.7,-3.7852,-3.7189,-3.727,-3.7788,-3.7555,-3.7205,-3.6901,-3.8007,-3.815,-3.7846,-3.8499,-3.8718,-3.8718,-3.8718,-3.8584,-3.8397,-3.8397,-3.825,-3.7976,-3.7514,-3.7469,-3.7443,-3.6405,-3.5767,-3.5245,-3.4101,-3.3963,-3.3712,-3.2158,-3.212,-3.2798,-3.4128,-3.4519,-3.4527,-3.4341,-3.4547,-3.4515,-3.3579,-3.3116,-3.2744,-3.2275,-3.1137,-3.0545,-3.1432,-3.13,-3.1291,-3.1837,-3.2483,-3.2953,-3.3195,-3.349,-3.3775,-3.4032,-3.4602,-3.5054,-3.5454,-3.6317,-3.6834,-3.6901,-3.7188,-3.7124,-3.6758,-3.6555,-3.613,-3.5498,-3.5411,-3.5243,-3.5028,-3.6058,-3.6622,-3.6843,-3.7949,-3.8499,-3.8718,-3.8718,-3.8718,-3.8718,-3.8718,-3.8718,-3.8718,-3.8718,-3.8718,-3.8718,-2.5039,-2.5615,-2.6461,-2.9265,-2.9796,-2.9796,-2.9796,-2.7453,-2.5615,-2.5615,-2.32,-2.1441,-2.1441,-2.1441,-2.262,-2.536,-2.5615,-2.6854,-2.9591,-3.2201,-3.2274,-2.9309,-3.4207,-3.6973,-3.6973,-3.6745,-3.6624,-3.6624,-3.6624,-3.6491,-3.6225,-3.6832,-3.7137,-3.719,-3.719,-3.7416,-3.7717,-3.7076,-3.6784,-3.6843,-3.7555,-3.7788,-3.7846,-3.8499,-3.8718,-3.8718,-3.8718,-3.8718,-3.8718,-3.8718,-3.8718,-3.8651,-3.837,-3.7919,-3.7342,-3.6992,-3.6885,-3.6328,-3.3573,-3.4631,-3.625,-3.5408,-3.3202,-3.1945,-3.4261,-3.4541,-3.427,-3.4283,-3.4054,-3.3778,-3.3458,-3.3399,-3.3149,-3.235,-3.2205,-3.2109,-3.1843,-3.2036,-3.2205,-3.2205,-3.2912,-3.3399,-3.3399,-3.3944,-3.427,-3.427,-3.4283,-3.484,-3.6015,-3.6357,-3.6901,-3.7782,-3.8103,-3.7963,-3.73,-3.6134,-3.5498,-3.5498,-3.5187,-3.5028,-3.5028,-3.5615,-3.6258,-3.6843,-3.7497,-3.8137,-3.8718,-3.8718,-3.8718,-3.8718,-3.8718,-3.8718,-3.8718,-3.8718,-3.8718,-3.8718,-2.248,-2.4256,-2.587,-2.6715,-2.8482,-2.9796,-2.9796,-2.9088,-2.8556,-2.8556,-2.7837,-2.7313,-2.7313,-2.7313,-2.7632,-2.8482,-2.8556,-2.8873,-2.9731,-3.2265,-3.2504,-2.9737,-3.4374,-3.6973,-3.6973,-3.6745,-3.6624,-3.6624,-3.6624,-3.6588,-3.6491,-3.6492,-3.6733,-3.7102,-3.6299,-3.6267,-3.6698,-3.6321,-3.5907,-3.5673,-3.7205,-3.7497,-3.7205,-3.8298,-3.8718,-3.8718,-3.8718,-3.8718,-3.8718,-3.8718,-3.8718,-3.866,-3.8611,-3.8464,-3.821,-3.7702,-3.7555,-3.7304,-3.6315,-3.5237,-3.4095,-3.2913,-3.3136,-3.3746,-3.4052,-3.4042,-3.3978,-3.3721,-3.3763,-3.3734,-3.3212,-3.3101,-3.2989,-3.2568,-3.2314,-3.2169,-3.2097,-3.2145,-3.2205,-3.2205,-3.2598,-3.2853,-3.2853,-3.3145,-3.3365,-3.3365,-3.4153,-3.4887,-3.5625,-3.6145,-3.6648,-3.7155,-3.7685,-3.8063,-3.8295,-3.7064,-3.6191,-3.5771,-3.5226,-3.5028,-3.5028,-3.6058,-3.6622,-3.6843,-3.7949,-3.8499,-3.8718,-3.8718,-3.8718,-3.8718,-3.8718,-3.8718,-3.8718,-3.8718,-3.8718,-3.8718,-2.287,-2.536,-2.7632,-2.8761,-3.1218,-3.3129,-3.3129,-3.2201,-3.1433,-3.1433,-3.0503,-2.9796,-2.9796,-2.9796,-3.0252,-3.1358,-3.2461,-3.3129,-3.3129,-3.4613,-3.4794,-3.3173,-3.568,-3.6619,-3.5546,-3.6238,-3.6624,-3.6624,-3.6624,-3.6624,-3.6624,-3.6455,-3.6626,-3.7074,-3.6139,-3.5907,-3.6245,-3.5848,-3.5419,-3.5158,-3.6771,-3.7134,-3.6914,-3.8208,-3.8718,-3.8718,-3.8718,-3.857,-3.8369,-3.8369,-3.8369,-3.8369,-3.8602,-3.8718,-3.8651,-3.829,-3.8183,-3.8143,-3.7956,-3.6736,-3.5307,-3.4251,-3.3802,-3.3762,-3.4102,-3.4027,-3.38,-3.3621,-3.3937,-3.4131,-3.3733,-3.3869,-3.3933,-3.3665,-3.3573,-3.3481,-3.3206,-3.3206,-3.3121,-3.3033,-3.3038,-3.3074,-3.3074,-3.3304,-3.3473,-3.3473,-3.4218,-3.4893,-3.5446,-3.5959,-3.6443,-3.6864,-3.7476,-3.8007,-3.8369,-3.7555,-3.6901,-3.6258,-3.5615,-3.538,-3.538,-3.635,-3.6914,-3.7264,-3.824,-3.8718,-3.8718,-3.8718,-3.8718,-3.8718,-3.8718,-3.8718,-3.8718,-3.8718,-3.8718,-3.8718,-2.4694,-2.7706,-3.0578,-3.3194,-3.6184,-3.822,-3.822,-3.6002,-3.4368,-3.4368,-3.2137,-3.0578,-3.0578,-3.0578,-3.1563,-3.4121,-3.6721,-3.822,-3.822,-3.822,-3.808,-3.7824,-3.7523,-3.608,-3.3259,-3.5443,-3.6624,-3.6624,-3.6624,-3.6624,-3.6624,-3.6624,-3.6736,-3.7038,-3.6432,-3.6212,-3.6272,-3.5642,-3.5282,-3.5216,-3.6258,-3.6784,-3.7005,-3.8208,-3.866,-3.8718,-3.8718,-3.8369,-3.7859,-3.7859,-3.7859,-3.8007,-3.8499,-3.8718,-3.8718,-3.8718,-3.8718,-3.8718,-3.8718,-3.8718,-3.853,-3.7981,-3.523,-3.2982,-3.4447,-3.4321,-3.3981,-3.3948,-3.4353,-3.4756,-3.4818,-3.5258,-3.5507,-3.5321,-3.5487,-3.5452,-3.4799,-3.473,-3.4577,-3.4218,-3.3992,-3.3823,-3.3823,-3.4109,-3.4242,-3.4221,-3.4493,-3.4933,-3.5407,-3.5715,-3.6136,-3.6713,-3.7367,-3.7717,-3.7788,-3.7846,-3.7555,-3.6901,-3.62,-3.5907,-3.6024,-3.6551,-3.7192,-3.7846,-3.8441,-3.8718,-3.8718,-3.8718,-3.8718,-3.8718,-3.8718,-3.8718,-3.8718,-3.8718,-3.8718,-3.8718,-2.2157,-2.6346,-3.0001,-3.0578,-3.4874,-3.822,-3.822,-3.7684,-3.7287,-3.7287,-3.6785,-3.64,-3.64,-3.64,-3.6645,-3.7247,-3.7824,-3.822,-3.822,-3.822,-3.7247,-3.5014,-3.6498,-3.608,-3.3259,-3.5443,-3.6624,-3.6624,-3.6624,-3.6624,-3.6624,-3.6624,-3.6649,-3.6699,-3.6334,-3.6225,-3.6201,-3.5609,-3.564,-3.6003,-3.6099,-3.6713,-3.7626,-3.7917,-3.8298,-3.8718,-3.8718,-3.8602,-3.8499,-3.8499,-3.8499,-3.8499,-3.866,-3.8718,-3.8718,-3.8718,-3.8718,-3.8718,-3.8718,-3.8718,-3.8593,-3.8295,-3.7391,-3.6338,-3.5502,-3.5275,-3.5138,-3.4839,-3.5007,-3.5268,-3.5655,-3.5679,-3.5665,-3.5774,-3.5907,-3.5718,-3.5129,-3.5003,-3.4811,-3.4242,-3.4182,-3.4088,-3.4088,-3.4562,-3.4787,-3.4532,-3.5016,-3.5242,-3.5095,-3.5187,-3.5479,-3.607,-3.6713,-3.7264,-3.7788,-3.824,-3.8208,-3.7555,-3.6421,-3.6129,-3.6622,-3.6713,-3.7192,-3.7846,-3.8441,-3.8718,-3.8718,-3.8718,-3.8718,-3.8718,-3.8718,-3.8718,-3.8718,-3.8718,-3.8718,-3.8718,-2.3127,-2.6854,-3.0252,-3.1563,-3.5336,-3.822,-3.822,-3.822,-3.822,-3.822,-3.822,-3.822,-3.822,-3.822,-3.822,-3.822,-3.822,-3.822,-3.822,-3.822,-3.7567,-3.6078,-3.689,-3.6732,-3.5239,-3.6124,-3.6624,-3.6624,-3.6624,-3.6624,-3.6624,-3.6624,-3.6624,-3.6624,-3.643,-3.6297,-3.6201,-3.5875,-3.6041,-3.6537,-3.6696,-3.719,-3.7813,-3.8257,-3.8451,-3.8451,-3.8668,-3.8499,-3.824,-3.824,-3.824,-3.8311,-3.8602,-3.8718,-3.8718,-3.8718,-3.8718,-3.8718,-3.8718,-3.8718,-3.8691,-3.8504,-3.8353,-3.7871,-3.666,-3.6283,-3.6092,-3.5981,-3.6213,-3.6516,-3.6569,-3.6752,-3.6901,-3.6844,-3.7006,-3.6894,-3.6251,-3.5875,-3.5555,-3.5056,-3.4657,-3.4414,-3.4547,-3.5016,-3.5271,-3.5219,-3.5801,-3.6062,-3.5895,-3.5602,-3.5544,-3.5895,-3.6492,-3.6946,-3.7296,-3.824,-3.8557,-3.8208,-3.7264,-3.6972,-3.7264,-3.7264,-3.7645,-3.8266,-3.853,-3.8718,-3.8718,-3.8718,-3.8718,-3.8718,-3.8718,-3.8718,-3.8718,-3.8718,-3.8718,-3.8718,-2.5155,-2.8229,-3.1248,-3.3593,-3.6324,-3.822,-3.822,-3.822,-3.822,-3.822,-3.822,-3.822,-3.822,-3.822,-3.822,-3.822,-3.822,-3.822,-3.822,-3.822,-3.822,-3.822,-3.7661,-3.7372,-3.7372,-3.6853,-3.6624,-3.6624,-3.6624,-3.6624,-3.6624,-3.6624,-3.6624,-3.6624,-3.6624,-3.6491,-3.6298,-3.6201,-3.6503,-3.6942,-3.7336,-3.7742,-3.8074,-3.8624,-3.8709,-3.8467,-3.8653,-3.8385,-3.8054,-3.8054,-3.8015,-3.8021,-3.8557,-3.8718,-3.8718,-3.8718,-3.8718,-3.8718,-3.8718,-3.8718,-3.866,-3.8651,-3.8718,-3.853,-3.7732,-3.7316,-3.7076,-3.7005,-3.7497,-3.7871,-3.759,-3.8012,-3.825,-3.7996,-3.8183,-3.8158,-3.7493,-3.6859,-3.6344,-3.5941,-3.5185,-3.474,-3.4992,-3.5347,-3.5672,-3.587,-3.648,-3.6784,-3.6784,-3.6329,-3.6058,-3.6058,-3.668,-3.6946,-3.6946,-3.8176,-3.8798,-3.874,-3.8314,-3.808,-3.8054,-3.7924,-3.8216,-3.8798,-3.87,-3.8718,-3.8718,-3.8718,-3.8718,-3.8718,-3.8718,-3.8718,-3.8718,-3.8718,-3.8718,-3.8718,-2.5541,-2.9861,-3.3518,-3.3916,-3.6324,-3.822,-3.822,-3.822,-3.822,-3.822,-3.822,-3.822,-3.822,-3.822,-3.822,-3.822,-3.822,-3.822,-3.822,-3.822,-3.822,-3.822,-3.7661,-3.7372,-3.7372,-3.6853,-3.6624,-3.6624,-3.6624,-3.6624,-3.6624,-3.6624,-3.6624,-3.6624,-3.6624,-3.6588,-3.6552,-3.6322,-3.6868,-3.7845,-3.7112,-3.7835,-3.923,-3.8239,-3.8537,-3.9355,-3.8828,-3.8775,-3.8929,-3.8929,-3.8743,-3.8588,-3.866,-3.8718,-3.8718,-3.8718,-3.8718,-3.8718,-3.8718,-3.8718,-3.8651,-3.8397,-3.8718,-3.8953,-3.857,-3.8459,-3.8298,-3.7788,-3.8137,-3.853,-3.849,-3.8593,-3.8651,-3.8611,-3.8593,-3.8432,-3.7839,-3.7128,-3.6525,-3.5966,-3.5344,-3.4933,-3.5028,-3.5507,-3.587,-3.5907,-3.648,-3.6784,-3.6784,-3.6713,-3.6713,-3.6713,-3.7296,-3.7658,-3.7658,-3.8562,-3.9033,-3.9033,-3.9254,-3.9182,-3.8929,-3.8401,-3.8492,-3.902,-3.878,-3.8718,-3.8718,-3.8718,-3.8718,-3.8718,-3.8718,-3.8718,-3.8718,-3.8718,-3.8718,-3.8718,-2.7632,-3.1238,-3.4509,-3.6078,-3.7363,-3.822,-3.822,-3.822,-3.822,-3.822,-3.6861,-3.6002,-3.64,-3.6785,-3.6826,-3.6464,-3.7824,-3.8604,-3.822,-3.822,-3.8148,-3.7991,-3.7761,-3.7529,-3.7372,-3.7142,-3.7072,-3.7072,-3.6781,-3.6624,-3.6624,-3.6624,-3.6624,-3.6624,-3.6624,-3.6624,-3.6624,-3.6491,-3.7175,-3.8318,-3.7875,-3.8454,-3.9466,-3.8755,-3.881,-3.9289,-3.9177,-3.9256,-3.9353,-3.9353,-3.9306,-3.9199,-3.9199,-3.9199,-3.9199,-3.9199,-3.9199,-3.9199,-3.9199,-3.9199,-3.9159,-3.9052,-3.9199,-3.9372,-3.9239,-3.9199,-3.9108,-3.8872,-3.9036,-3.9159,-3.8953,-3.8913,-3.8846,-3.87,-3.8718,-3.8602,-3.8369,-3.7426,-3.6421,-3.5485,-3.518,-3.5028,-3.5028,-3.5544,-3.6037,-3.6363,-3.7005,-3.7497,-3.7846,-3.7555,-3.7367,-3.7367,-3.7769,-3.8036,-3.8036,-3.8912,-3.9353,-3.9353,-3.9706,-3.9666,-3.9353,-3.9117,-3.9117,-3.9372,-3.9092,-3.8913,-3.8886,-3.874,-3.8718,-3.8718,-3.8718,-3.8766,-3.8913,-3.8913,-3.902,-3.9199]},{"header":{"parameterUnit":"m.s-1","parameterCategory":1,"la1":30.6,"la2":28.766,"lo1":-90.7593,"lo2":-88.6598,"dy":0.0162,"dx":0.0183,"nx":116,"ny":114,"refTime":"2024-06-17T18:00:00:Z","depth":0,"parameterNumber":3,"parameterNumberName":"V-component_of_WINDS"},"data":[0.0,0.0,0.0,0.0,0.0,0.0,0.0,0.0,0.0,0.0,0.0,0.0,0.0,0.0,0.0,0.0,0.0,0.0,0.0,0.0,0.0,0.0,0.0,0.0,0.0,0.0,0.0,0.0,0.0,0.0,0.0,0.0,0.0,0.0,0.0,0.0,0.0,0.0,0.0,0.0,0.0,0.0,0.0,0.0,0.0,0.0,0.0,0.0,0.0,0.0,0.0,0.0,0.0,0.0,0.0,0.0,0.0,0.0,0.0,0.0,0.0,0.0,0.0,0.0,0.0,0.0,0.0,0.0,0.0,0.0,0.0,0.0,0.0,0.0,0.0,0.0,0.0,0.0,0.0,0.0,0.0,0.0,0.0,0.0,0.0,0.0,0.0,0.0,0.0,0.0,0.0,0.0,0.0,0.0,0.0,0.0,0.0,0.0,0.0,0.0,0.0,0.0,0.0,0.0,0.0,0.0,0.0,0.0,0.0,0.0,0.0,0.0,0.0,0.0,0.0,0.0,0.0,0.0,0.0,0.0,0.0,0.0,0.0,0.0,0.0,0.0,0.0,0.0,0.0,0.0,0.0,0.0,0.0,0.0,0.0,0.0,0.0,0.0,0.0,0.0,0.0,0.0,0.0,0.0,0.0,0.0,0.0,0.0,0.0,0.0,0.0,0.0,0.0,0.0,0.0,0.0,0.0,0.0,0.0,0.0,0.0,0.0,0.0,0.0,0.0,0.0,0.0,0.0,0.0,0.0,0.0,0.0,0.0,0.0,0.0,0.0,0.0,0.0,0.0,0.0,0.0,0.0,0.0,0.0,0.0,0.0,0.0,0.0,0.0,0.0,0.0,0.0,0.0,0.0,0.0,0.0,0.0,0.0,0.0,0.0,0.0,0.0,0.0,0.0,0.0,0.0,0.0,0.0,0.0,0.0,0.0,0.0,0.0,0.0,0.0,0.0,0.0,0.0,0.0,0.0,0.0,0.0,0.0,0.0,0.0,0.0,0.0,0.0,0.0,0.0,0.0,0.0,0.0,0.0,0.0,0.0,0.0,0.0,0.0,0.0,0.0,0.0,0.0,0.0,0.0,0.0,0.0,0.0,0.0,0.0,0.0,0.0,0.0,0.0,0.0,0.0,0.0,0.0,0.0,0.0,0.0,0.0,0.0,0.0,0.0,0.0,0.0,0.0,0.0,0.0,0.0,0.0,0.0,0.0,0.0,0.0,0.0,0.0,0.0,0.0,0.0,0.0,0.0,0.0,0.0,0.0,0.0,0.0,0.0,0.0,0.0,0.0,0.0,0.0,0.0,0.0,0.0,0.0,0.0,0.0,0.0,0.0,0.0,0.0,0.0,0.0,0.0,0.0,0.0,0.0,0.0,0.0,0.0,0.0,0.0,0.0,0.0,0.0,0.0,0.0,0.0,0.0,0.0,0.0,0.0,0.0,0.0,0.0,0.0,0.0,0.0,0.0,0.0,0.0,0.0,0.0,0.0,0.0,0.0,0.0,0.0,0.0,0.0,0.0,0.0,0.0,0.0,0.0,0.0,0.0,0.0,0.0,0.0,0.0,0.0,0.0,0.0,0.0,0.0,0.0,0.0,0.0,0.0,0.0,0.0,0.0,0.0,0.0,0.0,0.0,0.0,0.0,0.0,0.0,0.0,0.0,0.0,0.0,0.0,0.0,0.0,0.0,0.0,0.0,0.0,0.0,0.0,0.0,0.0,0.0,0.0,0.0,0.0,0.0,0.0,0.0,0.0,0.0,0.0,0.0,0.0,0.0,0.0,0.0,0.0,0.0,0.0,0.0,0.0,0.0,0.0,0.0,0.0,0.0,0.0,0.0,0.0,0.0,0.0,0.0,0.0,0.0,0.0,0.0,0.0,0.0,0.0,0.0,0.0,0.0,0.0,0.0,0.0,0.0,0.0,0.0,0.0,0.0,0.0,0.0,0.0,0.0,0.0,0.0,0.0,0.0,0.0,0.0,0.0,0.0,0.0,0.0,0.0,0.0,0.0,0.0,0.0,0.0,0.0,0.0,0.0,0.0,0.0,0.0,0.0,0.0,0.0,0.0,0.0,0.0,0.0,0.0,0.0,0.0,0.0,0.0,0.0,0.0,0.0,0.0,0.0,0.0,0.0,0.0,0.0,0.0,0.0,0.0,0.0,0.0,0.0,0.0,0.0,0.0,0.0,0.0,0.0,0.0,0.0,0.0,0.0,0.0,0.0,0.0,0.0,0.0,0.0,0.0,0.0,0.0,0.0,0.0,0.0,0.0,0.0,0.0,0.0,0.0,0.0,0.0,0.0,0.0,0.0,0.0,0.0,0.0,0.0,0.0,0.0,0.0,0.0,0.0,0.0,0.0,0.0,0.0,0.0,0.0,0.0,0.0,0.0,0.0,0.0,0.0,0.0,0.0,0.0,0.0,0.0,0.0,0.0,0.0,0.0,0.0,0.0,0.0,0.0,0.0,0.0,0.0,0.0,0.0,0.0,0.0,0.0,0.0,0.0,0.0,0.0,0.0,0.0,0.0,0.0,0.0,0.0,0.0,0.0,0.0,0.0,0.0,0.0,0.0,0.0,0.0,0.0,0.0,0.0,0.0,0.0,0.0,0.0,0.0,0.0,0.0,0.0,0.0,0.0,0.0,0.0,0.0,0.0,0.0,0.0,0.0,0.0,0.0,0.0,0.0,0.0,0.0,0.0,0.0,0.0,0.0,0.0,0.0,0.0,0.0,0.0,0.0,0.0,0.0,0.0,0.0,0.0,0.0,0.0,0.0,0.0,0.0,0.0,0.0,0.0,0.0,0.0,0.0,0.0,0.0,0.0,0.0,0.0,0.0,0.0,0.0,0.0,0.0,0.0,0.0,0.0,0.0,0.0,0.0,0.0,0.0,0.0,0.0,0.0,0.0,0.0,0.0,0.0,0.0,0.0,0.0,0.0,0.0,0.0,0.0,0.0,0.0,0.0,0.0,0.0,0.0,0.0,0.0,0.0,0.0,0.0,0.0,0.0,0.0,0.0,0.0,0.0,0.0,0.0,0.0,0.0,0.0,0.0,0.0,0.0,0.0,0.0,0.0,0.0,0.0,0.0,0.0,0.0,0.0,0.0,0.0,0.0,0.0,0.0,0.0,0.0,0.0,0.0,0.0,0.0,0.0,0.0,0.0,0.0,0.0,0.0,0.0,0.0,0.0,0.0,0.0,0.0,0.0,0.0,0.0,0.0,0.0,0.0,0.0,0.0,0.0,0.0,0.0,0.0,0.0,0.0,0.0,0.0,0.0,0.0,0.0,0.0,0.0,0.0,0.0,0.0,0.0,0.0,0.0,0.0,0.0,0.0,0.0,0.0,0.0,0.0,0.0,0.0,0.0,0.0,0.0,0.0,0.0,0.0,0.0,0.0,0.0,0.0,0.0,0.0,0.0,0.0,0.0,0.0,0.0,0.0,0.0,0.0,0.0,0.0,0.0,0.0,0.0,0.0,0.0,0.0,0.0,0.0,0.0,0.0,0.0,0.0,0.0,0.0,0.0,0.0,0.0,0.0,0.0,0.0,0.0,0.0,0.0,0.0,0.0,0.0,0.0,0.0,0.0,0.0,0.0,0.0,0.0,0.0,0.0,0.0,0.0,0.0,0.0,0.0,0.0,0.0,0.0,0.0,0.0,0.0,0.0,0.0,0.0,0.0,0.0,0.0,0.0,0.0,0.0,0.0,0.0,0.0,0.0,0.0,0.0,0.0,0.0,0.0,0.0,0.0,0.0,0.0,0.0,0.0,0.0,0.0,0.0,0.0,0.0,0.0,0.0,0.0,0.0,0.0,0.0,0.0,0.0,0.0,0.0,0.0,0.0,0.0,0.0,0.0,0.0,0.0,0.0,0.0,0.0,0.0,0.0,0.0,0.0,0.0,0.0,0.0,0.0,0.0,0.0,0.0,0.0,0.0,0.0,0.0,0.0,0.0,0.0,0.0,0.0,0.0,0.0,0.0,0.0,0.0,0.0,0.0,0.0,0.0,0.0,0.0,0.0,0.0,0.0,0.0,0.0,0.0,0.0,0.0,0.0,0.0,0.0,0.0,0.0,0.0,0.0,0.0,0.0,0.0,0.0,0.0,0.0,0.0,0.0,0.0,0.0,0.0,0.0,0.0,0.0,0.0,0.0,0.0,0.0,0.0,0.0,0.0,0.0,0.0,0.0,0.0,0.0,0.0,0.0,0.0,0.0,0.0,0.0,0.0,0.0,0.0,0.0,0.0,0.0,0.0,0.0,0.0,0.0,0.0,0.0,0.0,0.0,0.0,0.0,0.0,0.0,0.0,0.0,0.0,0.0,0.0,0.0,0.0,0.0,0.0,0.0,0.0,0.0,0.0,0.0,0.0,0.0,0.0,0.0,0.0,0.0,0.0,0.0,0.0,0.0,0.0,0.0,0.0,0.0,0.0,0.0,0.0,0.0,0.0,0.0,0.0,0.0,0.0,0.0,0.0,0.0,0.0,0.0,0.0,0.0,0.0,0.0,0.0,0.0,0.0,0.0,0.0,0.0,0.0,0.0,0.0,0.0,0.0,0.0,0.0,0.0,0.0,0.0,0.0,0.0,0.0,0.0,0.0,0.0,0.0,0.0,0.0,0.0,0.0,0.0,0.0,0.0,0.0,0.0,0.0,0.0,0.0,0.0,0.0,0.0,0.0,0.0,0.0,0.0,0.0,0.0,0.0,0.0,0.0,0.0,0.0,0.0,0.0,0.0,0.0,0.0,0.0,0.0,0.0,0.0,0.0,0.0,0.0,0.0,0.0,0.0,0.0,0.0,0.0,0.0,0.0,0.0,0.0,0.0,0.0,0.0,0.0,0.0,0.0,0.0,0.0,0.0,0.0,0.0,0.0,0.0,0.0,0.0,0.0,0.0,0.0,0.0,0.0,0.0,0.0,0.0,0.0,0.0,0.0,0.0,0.0,0.0,0.0,0.0,0.0,0.0,0.0,0.0,0.0,0.0,0.0,0.0,0.0,0.0,0.0,0.0,0.0,0.0,0.0,0.0,0.0,0.0,0.0,0.0,0.0,0.0,0.0,0.0,0.0,0.0,0.0,0.0,0.0,0.0,0.0,0.0,0.0,0.0,0.0,0.0,0.0,0.0,0.0,0.0,0.0,0.0,0.0,0.0,0.0,0.0,0.0,0.0,0.0,0.0,0.0,0.0,0.0,0.0,0.0,0.0,0.0,0.0,0.0,0.0,0.0,0.0,0.0,0.0,0.0,0.0,0.0,0.0,0.0,0.0,0.0,0.0,0.0,0.0,0.0,0.0,0.0,0.0,0.0,0.0,0.0,0.0,0.0,0.0,0.0,0.0,0.0,0.0,0.0,0.0,0.0,0.0,0.0,0.0,0.0,0.0,0.0,0.0,0.0,0.0,0.0,0.0,0.0,0.0,0.0,0.0,0.0,0.0,0.0,0.0,0.0,0.0,0.0,0.0,0.0,0.0,0.0,0.0,0.0,0.0,0.0,0.0,0.0,0.0,0.0,0.0,0.0,0.0,0.0,0.0,0.0,0.0,0.0,0.0,0.0,0.0,0.0,0.0,0.0,0.0,0.0,0.0,0.0,0.0,0.0,0.0,0.0,0.0,0.0,0.0,0.0,0.0,0.0,0.0,0.0,0.0,0.0,0.0,0.0,0.0,0.0,0.0,0.0,0.0,0.0,0.0,0.0,0.0,0.0,0.0,0.0,0.0,0.0,0.0,0.0,0.0,0.0,0.0,0.0,0.0,0.0,0.0,0.0,0.0,0.0,0.0,0.0,0.0,0.0,0.0,0.0,0.0,0.0,0.0,0.0,0.0,0.0,0.0,0.0,0.0,0.0,0.0,0.0,0.0,0.0,0.0,0.0,0.0,0.0,0.0,0.0,0.0,0.0,0.0,0.0,0.0,0.0,0.0,0.0,0.0,0.0,0.0,0.0,0.0,0.0,0.0,0.0,0.0,0.0,0.0,0.0,0.0,0.0,0.0,0.0,0.0,0.0,0.0,0.0,0.0,0.0,0.0,0.0,0.0,0.0,0.0,0.0,0.0,0.0,0.0,0.0,0.0,0.0,0.0,0.0,0.0,0.0,0.0,5.7242,5.2888,0.0,0.0,0.0,0.0,0.0,0.0,0.0,0.0,0.0,0.0,0.0,0.0,0.0,0.0,0.0,0.0,0.0,0.0,0.0,0.0,0.0,0.0,0.0,3.3527,3.4518,3.5749,3.6243,3.666,3.7067,0.0,0.0,0.0,0.0,0.0,3.5466,3.5127,3.574,3.7338,3.8191,4.0563,4.4225,4.3275,3.9924,3.4709,0.0,0.0,0.0,0.0,0.0,0.0,0.0,0.0,0.0,0.0,0.0,0.0,0.0,0.0,0.0,0.0,0.0,0.0,0.0,0.0,0.0,0.0,0.0,0.0,0.0,0.0,0.0,0.0,0.0,0.0,0.0,0.0,0.0,0.0,0.0,0.0,0.0,0.0,0.0,0.0,0.0,0.0,0.0,0.0,0.0,0.0,0.0,0.0,0.0,0.0,0.0,0.0,0.0,0.0,0.0,0.0,0.0,0.0,0.0,0.0,0.0,0.0,0.0,0.0,0.0,0.0,0.0,0.0,0.0,0.0,6.4469,6.0666,0.0,0.0,0.0,0.0,0.0,0.0,0.0,0.0,0.0,0.0,0.0,0.0,0.0,0.0,0.0,0.0,0.0,0.0,0.0,0.0,0.0,3.244,3.4452,3.5384,3.6597,3.841,3.8561,3.8527,3.8379,3.8247,0.0,0.0,0.0,3.8143,3.8438,3.7959,3.9187,4.2169,4.4967,4.9027,5.416,5.503,5.0354,4.1122,3.9084,0.0,0.0,0.0,0.0,0.0,0.0,0.0,0.0,0.0,0.0,0.0,0.0,0.0,0.0,0.0,0.0,0.0,0.0,0.0,0.0,0.0,0.0,0.0,0.0,0.0,0.0,0.0,0.0,0.0,0.0,0.0,0.0,0.0,0.0,0.0,0.0,0.0,0.0,0.0,0.0,0.0,0.0,0.0,0.0,0.0,0.0,0.0,0.0,0.0,0.0,0.0,0.0,0.0,0.0,0.0,0.0,0.0,0.0,0.0,0.0,0.0,0.0,0.0,7.3531,7.4913,7.7589,7.7027,7.7376,7.8107,7.2748,7.0122,6.9226,6.4425,0.0,0.0,0.0,0.0,0.0,0.0,0.0,0.0,0.0,0.0,0.0,0.0,0.0,0.0,0.0,0.0,0.0,0.0,0.0,3.3675,3.6248,3.7257,3.8669,4.1004,4.1185,4.1144,4.1017,4.0348,3.9678,3.9076,3.8429,3.8495,3.9321,4.0145,4.285,4.7573,5.463,5.9215,6.1424,6.2233,6.1422,5.8982,5.2819,4.8786,4.6452,0.0,0.0,0.0,0.0,0.0,0.0,0.0,0.0,0.0,0.0,0.0,0.0,0.0,0.0,0.0,0.0,0.0,0.0,0.0,0.0,0.0,0.0,0.0,0.0,0.0,0.0,0.0,0.0,0.0,0.0,0.0,0.0,0.0,0.0,0.0,0.0,0.0,0.0,0.0,0.0,0.0,5.4676,5.6398,0.0,0.0,0.0,0.0,0.0,0.0,0.0,0.0,0.0,0.0,0.0,0.0,0.0,7.4078,7.7361,8.022,8.2025,8.2899,8.5583,8.6983,8.7189,8.7778,8.7765,8.7262,8.6427,0.0,7.1937,7.0486,0.0,0.0,0.0,0.0,0.0,0.0,0.0,0.0,0.0,0.0,0.0,0.0,0.0,0.0,0.0,0.0,0.0,0.0,0.0,0.0,0.0,4.1204,4.407,4.658,4.8981,4.9038,4.5957,4.5949,4.4643,4.1488,4.1092,4.1424,4.2415,4.5321,5.0788,5.8819,6.4226,6.7979,7.0121,7.0967,7.1146,7.0622,6.7104,6.128,5.3797,4.8357,0.0,0.0,0.0,0.0,0.0,0.0,0.0,0.0,0.0,0.0,0.0,0.0,0.0,0.0,0.0,0.0,0.0,0.0,0.0,0.0,0.0,0.0,0.0,0.0,0.0,0.0,0.0,0.0,0.0,0.0,0.0,0.0,0.0,0.0,0.0,0.0,0.0,0.0,0.0,5.47,5.9595,5.8571,6.011,6.0123,0.0,0.0,0.0,0.0,0.0,0.0,0.0,0.0,0.0,7.8939,8.0488,8.2569,8.5478,8.738,8.8608,8.918,9.0566,9.1433,9.1822,9.2183,9.2146,9.1822,9.1822,8.8522,8.2895,7.8963,7.4806,7.0647,0.0,0.0,0.0,0.0,6.8878,6.9585,0.0,0.0,0.0,0.0,0.0,0.0,0.0,0.0,0.0,0.0,0.0,0.0,4.1557,4.628,5.0365,5.3147,5.6035,5.5771,5.1111,5.0635,4.8515,4.3944,4.3433,4.3835,4.5017,5.1351,5.9362,6.9106,7.2819,7.5824,7.8123,7.8777,7.9078,7.9028,7.7922,7.1801,6.1923,5.5701,5.1486,4.8385,0.0,0.0,0.0,0.0,0.0,0.0,0.0,0.0,0.0,0.0,0.0,0.0,0.0,0.0,0.0,0.0,0.0,0.0,0.0,0.0,0.0,0.0,0.0,0.0,0.0,0.0,0.0,0.0,0.0,0.0,0.0,0.0,0.0,0.0,0.0,0.0,0.0,5.9707,6.3965,6.1553,6.5009,6.5879,0.0,0.0,0.0,0.0,0.0,0.0,7.5991,7.8104,8.1464,8.6401,8.809,8.9988,9.2227,9.3144,9.3871,9.4452,9.4265,9.4602,9.5442,9.5217,9.4992,9.4805,9.485,9.3927,9.1929,8.6203,8.1702,7.8095,7.5484,7.3491,7.2392,7.4999,7.5665,7.5968,0.0,0.0,0.0,0.0,0.0,0.0,0.0,0.0,0.0,0.0,0.0,4.3266,4.7501,5.2496,5.6862,6.0117,5.9837,5.833,5.5627,5.2406,4.9157,4.5898,4.4258,4.4226,4.5994,5.7596,6.7486,7.5366,7.9672,8.2678,8.4346,8.4384,8.4408,8.4334,8.2657,7.8353,7.216,6.7623,6.281,5.7541,4.9615,0.0,0.0,0.0,0.0,0.0,0.0,0.0,0.0,0.0,0.0,0.0,0.0,0.0,0.0,0.0,0.0,0.0,0.0,0.0,0.0,0.0,0.0,0.0,0.0,0.0,0.0,0.0,0.0,0.0,0.0,0.0,0.0,0.0,0.0,0.0,0.0,0.0,0.0,6.7498,7.1255,0.0,0.0,0.0,0.0,7.3376,7.7055,8.1021,8.5142,8.6248,8.8652,9.2829,9.3837,9.5086,9.6767,9.7626,9.8486,9.9233,9.8486,9.8523,9.9308,9.8523,9.7738,9.6933,9.7167,9.6294,9.4421,9.0338,8.7332,8.5139,8.3433,8.1957,8.0818,8.1309,8.1972,8.2556,0.0,0.0,0.0,0.0,0.0,3.0426,3.0464,3.2156,3.3678,3.4379,4.0751,4.6487,4.9765,5.7469,6.3499,6.6331,6.8889,6.8508,6.4203,5.9869,5.6192,5.3365,4.9647,5.1566,5.9959,6.8198,7.5337,8.1329,8.402,8.5351,8.536,8.5466,8.5194,8.4644,8.4104,8.2658,8.0145,7.3023,6.7968,6.4106,5.7318,5.1402,0.0,0.0,0.0,0.0,0.0,0.0,0.0,0.0,0.0,0.0,0.0,0.0,0.0,0.0,0.0,0.0,0.0,0.0,0.0,0.0,0.0,0.0,0.0,0.0,0.0,0.0,0.0,0.0,0.0,0.0,0.0,0.0,0.0,0.0,0.0,0.0,0.0,7.329,7.7429,0.0,7.5471,7.7576,7.9826,8.1506,8.4754,8.8037,9.1089,9.254,9.4503,9.7114,9.8026,9.8822,9.9482,9.9781,10.0096,10.0395,10.0096,10.0096,10.0395,10.0096,9.976,9.9461,9.9004,9.8177,9.6981,9.5024,9.2885,9.0714,8.8964,8.8019,8.7539,8.7134,8.7164,8.7399,0.0,0.0,0.0,0.0,3.0507,3.0637,3.0974,3.2981,3.5191,3.7304,4.4642,5.1286,5.5426,6.3753,6.9987,7.2262,7.4872,7.4073,6.8583,6.4153,6.0069,5.6347,5.4418,5.8786,7.0166,7.5196,8.0326,8.5705,8.7178,8.7571,8.7,8.7122,8.6844,8.6269,8.6093,8.6015,8.5578,7.9296,7.4752,7.1299,6.5152,5.929,5.368,0.0,0.0,0.0,0.0,0.0,0.0,0.0,0.0,0.0,0.0,0.0,0.0,0.0,0.0,0.0,0.0,0.0,0.0,0.0,0.0,0.0,0.0,0.0,0.0,0.0,0.0,0.0,0.0,0.0,0.0,0.0,0.0,0.0,0.0,7.3466,7.839,7.8243,8.3023,8.5118,8.2048,8.4681,8.7263,8.8899,9.1513,9.3954,9.6146,9.726,9.839,9.959,10.05,10.0907,10.0992,10.1588,10.17,10.1402,10.1402,10.129,10.0992,10.0822,10.0581,10.0581,10.009,9.9639,9.9079,9.8184,9.6943,9.5395,9.3426,9.2328,9.1752,9.1146,9.0608,9.0123,0.0,0.0,0.0,3.0605,3.0597,3.0905,3.1854,3.3509,3.6793,4.2804,5.0317,5.7699,6.4512,7.1294,7.6062,7.7814,7.7195,7.4251,6.8466,6.4677,6.0153,5.4531,5.8442,6.5433,7.5387,7.8238,8.2497,8.8394,8.9264,8.9696,8.9726,8.9693,8.9652,8.9625,8.8806,8.8505,8.8445,8.6728,8.3565,7.9232,7.3095,6.7625,6.2374,0.0,0.0,0.0,0.0,0.0,0.0,0.0,0.0,0.0,0.0,0.0,0.0,0.0,0.0,0.0,0.0,0.0,0.0,0.0,0.0,0.0,0.0,0.0,0.0,0.0,0.0,0.0,0.0,0.0,0.0,0.0,0.0,0.0,7.3927,7.8807,8.2387,8.2527,8.8013,9.0276,8.6375,9.0313,9.3805,9.544,9.7074,9.8709,10.0307,10.0418,10.0418,10.0492,10.1198,10.1607,10.1607,10.3204,10.3613,10.2796,10.2796,10.2387,10.1607,10.0789,10.0418,10.0381,10.0612,10.0699,10.0587,9.9693,9.932,9.9097,9.6803,9.4926,9.3491,9.3333,9.2242,9.0848,0.0,0.0,3.0631,3.0655,3.077,3.1107,3.1939,3.409,3.7567,4.2957,5.1389,5.9268,6.5544,7.2795,7.7881,7.9555,7.8954,7.6742,7.2587,6.6905,6.2685,6.047,6.9172,7.592,7.9895,8.433,8.7966,9.0749,9.1629,9.2055,9.2041,9.1505,9.1253,9.1205,8.9865,8.961,9.006,8.8349,8.6976,8.542,8.0018,7.4784,6.9702,0.0,0.0,0.0,0.0,0.0,0.0,0.0,0.0,0.0,0.0,0.0,0.0,0.0,0.0,0.0,0.0,0.0,0.0,0.0,0.0,0.0,0.0,0.0,0.0,0.0,0.0,0.0,0.0,0.0,0.0,0.0,7.5905,8.0311,7.9786,8.4109,8.7982,8.9819,9.2596,9.4437,9.4511,9.5737,9.7223,9.882,9.9935,10.1012,10.2015,10.261,10.3316,10.3799,10.4096,10.4207,10.4207,10.4597,10.469,10.4505,10.4505,10.4393,10.4207,10.3984,10.3501,10.2981,10.2404,10.179,10.1195,10.0377,10.0006,9.9783,9.7343,9.6132,9.5649,9.5003,9.376,9.231,0.0,3.0664,3.0719,3.0783,3.1116,3.1674,3.2536,3.4842,3.9022,4.6014,5.3538,6.1098,6.8599,7.4659,7.8694,7.9992,7.8381,7.5466,7.1239,6.6261,6.5131,6.8924,7.5949,8.1358,8.477,8.847,9.0973,9.2257,9.3108,9.3495,9.3502,9.3077,9.2765,9.2574,9.1884,9.1709,9.1899,9.0242,8.9525,8.9152,8.4913,8.0539,7.6172,7.2517,6.9285,6.6283,6.2982,6.195,6.1667,5.8578,0.0,0.0,0.0,0.0,0.0,0.0,0.0,0.0,0.0,0.0,0.0,0.0,0.0,0.0,0.0,0.0,0.0,0.0,0.0,0.0,0.0,0.0,0.0,0.0,8.2415,8.6969,8.7527,8.9756,9.2282,9.4771,9.6183,9.7483,9.8783,9.8895,9.9563,10.1198,10.17,10.2498,10.3687,10.4207,10.469,10.521,10.521,10.521,10.521,10.5508,10.5508,10.521,10.5508,10.5508,10.521,10.521,10.4913,10.4505,10.3613,10.3019,10.2498,10.131,10.0789,10.0604,0.0,0.0,0.0,0.0,9.4808,9.3879,0.0,3.0715,3.0773,3.0885,3.1557,3.238,3.328,3.5625,4.0703,5.0156,5.5859,6.2656,7.2109,7.6172,7.8554,7.9447,7.6476,7.2476,6.7524,6.5342,6.8377,7.7586,8.0085,8.3784,8.9151,9.0858,9.2133,9.3099,9.3848,9.4242,9.4319,9.4242,9.4039,9.3802,9.4095,9.4025,9.3654,9.2123,9.1398,9.1033,8.8219,8.5069,8.1665,7.7914,7.5312,7.3091,6.8932,6.7168,6.6527,6.4759,0.0,0.0,0.0,0.0,0.0,0.0,0.0,0.0,0.0,0.0,0.0,0.0,0.0,0.0,0.0,0.0,0.0,0.0,0.0,0.0,0.0,0.0,0.0,0.0,8.8455,9.2988,9.5477,9.5217,9.5551,9.778,9.8746,9.9563,10.0381,10.0492,10.1198,10.2703,10.3,10.3799,10.5285,10.5508,0.0,0.0,0.0,10.5693,10.5508,10.6288,10.6288,10.5508,10.6213,10.6213,10.5508,10.5508,10.5396,10.5322,10.4616,10.4207,10.4022,10.2424,10.1718,10.1292,9.9749,9.8672,9.7817,9.6146,9.5551,9.5403,0.0,3.0782,3.0884,3.0892,3.1559,3.2382,3.3281,3.5625,4.0701,5.0154,5.5347,6.1752,7.1204,7.4758,7.6935,7.8292,7.5847,7.3117,7.0486,7.2955,7.5871,7.8861,8.3901,8.7569,8.9624,9.0836,9.2199,9.3719,9.4004,9.4477,9.5167,9.4428,9.4436,9.5007,9.4079,9.3819,9.405,9.3421,9.2574,9.1558,9.01,8.8001,8.5394,8.2561,8.1691,8.1505,7.8495,7.8206,7.8669,7.4864,7.1939,6.9306,6.5949,6.0393,0.0,0.0,0.0,0.0,0.0,0.0,0.0,0.0,0.0,0.0,0.0,0.0,0.0,0.0,0.0,0.0,0.0,0.0,0.0,8.6635,9.139,9.5551,9.804,9.8263,9.8338,9.882,9.9563,10.0418,10.1198,10.1904,10.2721,10.3687,10.4987,10.5786,10.6213,10.7383,10.7885,10.7217,10.8386,10.8517,10.7086,10.7997,10.7997,10.7086,10.7309,0.0,10.7086,10.7086,10.6808,10.6213,10.5991,10.5619,10.4913,10.391,10.2721,10.1292,9.9749,9.9006,9.8672,9.7,9.6369,9.6146,3.0743,3.0837,3.1046,3.1441,3.2185,3.3046,3.3906,3.6288,4.0739,4.8472,5.2884,5.823,6.5911,6.8293,6.96,7.0298,6.9409,6.9546,7.1133,7.4864,7.919,8.4071,8.7274,8.9593,9.1034,9.1991,9.2913,9.3739,9.4266,9.4948,9.5749,9.528,9.5405,9.5996,9.5428,9.5205,9.5116,9.4133,9.3329,9.2657,9.1193,8.9667,8.7986,8.566,8.5198,8.5453,8.3069,8.2876,8.3282,8.0278,7.7998,7.5882,7.2555,6.7762,6.2422,0.0,0.0,0.0,0.0,0.0,0.0,0.0,0.0,0.0,0.0,0.0,0.0,0.0,0.0,7.7242,7.9135,0.0,8.9013,9.1873,9.5105,9.7817,9.9452,10.0009,10.0307,10.0307,10.0715,10.1421,10.261,10.3093,10.391,10.5099,10.5897,10.6808,10.7625,10.8405,10.8888,10.8888,10.9706,10.9706,10.8888,10.8888,10.8888,10.8795,10.8386,10.8294,10.8294,10.8294,10.7811,10.6994,10.6622,10.6213,10.5693,10.4505,10.3204,10.2015,10.0789,9.9824,9.9006,9.8152,9.7595,9.7074,3.0801,3.0963,3.1321,3.1988,3.281,3.3672,3.4569,3.6912,4.0621,4.6359,5.0065,5.4309,5.9898,6.1257,6.1732,6.1598,6.3683,6.6884,7.1334,7.5818,8.1547,8.8898,8.9604,9.0571,9.2153,9.2911,9.3391,9.353,9.4263,9.5022,9.5843,9.5843,9.6061,9.6473,9.6834,9.6665,9.5983,9.492,9.4193,9.3685,9.2179,9.0907,8.9762,8.806,8.7348,8.7031,8.5009,8.4065,8.365,8.2603,8.1051,7.9229,7.708,7.3808,6.9277,6.1591,5.9034,0.0,0.0,0.0,0.0,0.0,0.0,0.0,0.0,7.0016,7.2728,7.6841,8.0705,8.4332,8.7591,9.0731,9.3738,9.6508,9.8215,9.9494,10.0402,10.0921,10.1293,10.1477,10.1589,10.2313,10.391,10.4096,10.4913,10.6492,10.6808,10.7495,10.9111,10.9297,10.9594,11.0114,11.0411,11.0392,11.0114,10.9594,10.9594,11.0114,10.9389,10.9111,10.8888,10.8888,10.8405,10.7625,10.69,10.6511,10.6102,10.4802,10.3613,10.2592,10.2015,10.0789,9.9526,9.9229,9.8672,9.8003,0.0,3.1435,3.1988,3.2066,3.2812,3.3672,3.4569,3.6911,4.0226,4.471,4.8224,5.201,5.6494,5.7653,5.8062,5.8007,6.5394,7.0808,7.2624,8.0004,8.5687,8.8722,8.9618,9.059,9.1752,9.2042,9.253,9.3224,9.3528,9.4091,9.4862,9.4862,9.5264,9.5997,9.7016,9.6756,9.5636,9.6398,9.5653,9.3871,9.3675,9.233,9.0462,9.0107,8.8883,8.707,8.524,8.2711,8.0444,8.162,7.9544,7.6734,7.8641,7.5825,7.1204,6.7914,6.3795,6.0045,5.9057,6.0367,6.3278,6.8445,6.9297,7.1732,0.0,8.3923,8.3775,8.7861,9.0833,9.279,9.3051,9.5183,9.715,9.8134,9.9021,9.9982,10.0981,10.0592,10.0517,10.1385,10.2109,10.2889,10.391,10.4597,10.5675,10.7309,10.822,10.9,10.9891,11.0578,11.0689,11.0095,11.1526,11.1506,11.0114,11.0689,11.0689,11.0114,11.0003,10.9594,10.8888,10.8888,10.8405,10.7606,10.7495,10.6696,10.5322,10.5099,10.4077,10.2721,10.2592,10.2015,10.1087,9.9638,9.9043,9.8746,0.0,3.1514,3.2262,3.277,3.3593,3.4453,3.5311,3.7262,3.9601,4.2368,4.4845,4.7351,5.0119,5.0627,5.0953,5.1438,6.0746,6.775,7.0516,7.959,8.6081,8.8691,8.9795,9.0746,9.1688,9.2289,9.2768,9.3103,9.3167,9.387,9.5099,9.5099,9.5806,9.7068,9.738,9.7096,9.6426,9.6387,9.5752,9.4742,9.4448,9.3163,9.1369,9.0545,8.8766,8.6434,8.3661,8.1051,0.0,7.8795,7.7237,7.5706,7.8271,7.5992,7.1824,6.8741,6.6568,6.5575,6.7494,6.8432,7.0041,7.5014,7.7414,8.02,8.6344,8.7693,8.8618,9.2246,9.4595,9.6168,9.6647,9.7963,9.924,10.0092,10.0499,10.1092,10.1907,10.1406,10.0979,10.1477,10.1793,10.2498,10.391,10.469,10.6102,10.822,10.8703,10.952,11.0689,11.1098,11.1415,11.1526,11.2101,11.2175,11.1506,11.1415,11.1415,11.1526,11.0986,11.0578,11.03,10.9817,10.8888,10.7606,10.7606,10.6696,10.521,10.521,10.4207,10.2703,10.2593,10.2315,10.1814,10.029,9.9489,9.8932,0.0,3.1806,3.2675,3.3535,3.4403,3.5231,3.5898,3.7497,3.9056,4.026,4.2121,4.3845,4.521,4.5682,4.6271,4.7162,5.6192,6.3764,6.8317,7.7349,8.4264,8.8091,8.9485,9.0647,9.1688,9.2542,9.2988,9.2988,9.2988,9.3694,9.5068,9.5068,9.5848,9.722,9.7167,9.7015,9.67,9.6262,9.5869,9.5608,9.496,9.3621,9.1819,9.0385,8.7473,8.3802,8.1192,7.846,7.5859,7.4375,7.2815,7.1939,7.4486,7.3499,7.1001,6.8843,6.8727,6.9781,7.2056,7.3648,7.5664,7.9699,8.3526,8.6821,8.8711,9.0411,9.2338,9.494,9.6508,9.7653,9.8557,9.9426,10.0407,10.1499,10.1703,10.2018,10.289,10.1888,10.1089,10.1198,10.1012,10.1514,10.3094,10.4207,10.5916,10.8405,10.8682,10.9479,11.1209,11.1504,11.1781,11.2509,11.2509,11.2509,11.2509,11.1878,11.1878,11.2509,11.1878,11.1486,11.1204,11.0105,10.8787,10.7415,10.7415,10.6599,10.5412,10.5412,10.4411,10.2909,10.2685,10.2517,10.2203,10.0907,9.9996,9.9215,0.0,0.0,3.3436,3.4305,3.5181,3.5814,3.5976,3.7498,3.8629,3.866,4.0811,4.2618,4.3408,4.495,4.6319,4.731,5.3649,6.0374,6.6942,7.3675,8.0246,8.6578,8.8434,9.009,9.1688,9.2542,9.2988,9.2988,9.2988,9.3434,9.4251,9.4251,9.4697,9.5511,9.6075,9.6139,9.5867,9.6438,9.6535,9.6192,9.5337,9.3687,9.1499,8.9787,8.4741,7.8481,7.784,7.4534,7.0109,6.8008,6.5501,6.3665,6.6108,6.7518,6.8451,6.9433,7.0485,7.1038,6.9876,7.3532,7.8363,8.1234,8.5686,9.0044,9.2643,9.4575,9.6085,9.7026,9.7411,9.7779,9.8411,9.9335,10.05,10.1903,10.2086,10.2495,10.3519,10.1611,10.0091,10.0326,9.9638,9.9753,10.1111,10.302,10.5006,10.7514,10.8212,10.9304,11.1209,11.1903,11.2328,11.2509,11.2509,11.2509,11.2509,11.2509,11.2509,11.2509,11.2509,11.2021,11.0909,10.9115,10.7794,10.6982,10.6982,10.6501,10.5819,10.5819,10.4802,10.3305,10.3305,10.2788,10.2012,10.12,10.0518,9.987,0.0,0.0,0.0,3.438,3.5214,3.6019,3.6636,3.776,3.8554,3.859,4.0803,0.0,0.0,0.0,0.0,0.0,5.3121,5.8439,6.2563,7.0834,7.6861,7.9842,8.4388,8.7341,8.8418,8.983,9.0796,9.1353,9.1353,9.2059,9.3397,9.3397,9.4102,9.542,9.5632,9.5536,9.5258,9.5299,9.5459,9.555,9.3984,9.2907,9.1759,8.7417,8.2185,7.6465,0.0,6.7344,6.4585,6.3057,6.1299,6.0324,6.3857,6.3662,6.2842,6.6528,6.8563,7.061,7.5288,7.8459,8.1455,8.5554,8.9156,9.222,9.4151,9.5545,9.6454,9.6326,9.5921,9.5532,9.547,9.6594,9.7944,9.9127,10.111,10.2612,10.302,10.2797,10.2091,10.0474,10.1012,10.1182,10.0518,10.1926,10.4316,10.7699,10.8194,10.9283,11.1622,11.1893,11.1983,11.2103,11.2103,11.2103,11.2103,11.2103,11.2103,11.2103,11.2103,11.1322,10.9908,10.9309,10.8291,10.7019,10.7019,10.6481,10.5799,10.5901,10.4978,10.3478,10.34,10.2806,10.1992,10.1518,10.0599,9.9555,0.0,0.0,0.0,0.0,0.0,0.0,0.0,0.0,0.0,0.0,0.0,0.0,0.0,0.0,0.0,0.0,0.0,5.5564,5.9022,6.5748,7.0809,7.3498,7.7579,8.0335,8.1469,8.2813,8.4045,8.5194,8.6512,8.8017,8.9709,9.0765,9.1799,9.2802,9.2802,9.2816,9.2813,9.2628,9.2264,9.1656,8.9832,8.8097,8.6107,8.1559,7.636,0.0,6.5106,6.1079,5.8296,5.7514,5.7167,5.7488,6.0236,6.1713,6.3043,6.6191,6.9556,7.3373,7.8808,8.1713,8.4152,8.8156,9.0903,9.2998,9.4388,9.527,9.5667,9.5019,9.3875,9.2874,9.2653,9.3236,9.4582,9.7057,9.9452,10.1495,10.3019,10.3093,10.261,10.131,10.1774,10.1888,10.0907,10.1722,10.3588,10.6686,10.7582,10.8911,11.0914,11.1515,11.1789,11.1911,11.1874,11.1874,11.1874,11.1874,11.1874,11.1874,11.1789,11.0899,10.9312,10.9192,10.8324,10.6812,10.6812,10.6484,10.6086,10.63,10.5585,10.4292,10.3991,10.3303,10.2411,10.1787,10.0809,9.9656,0.0,0.0,0.0,0.0,0.0,0.0,0.0,0.0,0.0,0.0,0.0,0.0,0.0,0.0,0.0,0.0,0.0,0.0,5.6226,5.8892,6.2586,6.7697,6.8753,6.9988,7.162,7.2477,7.3695,7.5361,7.8966,8.1599,8.3273,8.6087,8.7455,8.753,8.753,8.7816,8.8272,8.8224,8.6929,8.4709,8.2999,7.9697,7.5507,7.2899,6.7782,6.1781,6.0006,5.6121,5.1884,5.1966,5.361,5.5658,5.5965,6.183,6.8618,6.8761,7.3471,7.8965,8.0347,8.3271,8.6514,8.9101,9.104,9.2559,9.3504,9.397,9.3952,9.3162,9.1284,8.9761,8.9593,8.9331,9.0722,9.5403,9.7297,9.9526,10.339,10.2721,10.1997,10.2721,10.2201,10.2017,10.2519,10.2386,10.301,10.4578,10.6702,10.8319,10.9411,11.0793,11.1619,11.189,11.189,11.189,11.189,11.189,11.1816,11.1816,11.1509,11.0591,10.9008,10.8796,10.7881,10.6376,10.6376,10.6502,10.671,10.671,10.63,10.5689,10.4913,10.3889,10.29,10.2107,10.1086,10.0175,0.0,0.0,0.0,0.0,0.0,0.0,0.0,0.0,0.0,0.0,0.0,0.0,0.0,0.0,0.0,0.0,0.0,0.0,5.2597,5.5866,5.8836,6.1446,6.4808,6.7104,6.8161,6.9594,7.0818,7.181,7.3472,7.5095,7.6705,7.7523,7.8551,7.9754,7.9754,7.9852,7.9894,7.8999,7.8298,7.7558,7.493,7.356,7.2681,6.8876,6.4731,6.066,5.8345,5.541,5.2905,5.421,5.8232,6.2804,6.3519,6.7305,7.1968,7.4613,7.801,8.1607,8.4542,8.6954,8.8984,9.0227,9.1398,9.2394,9.2804,9.2667,9.1803,8.9442,8.6733,8.3867,8.0976,8.4265,8.8047,8.9942,9.6554,10.209,10.3799,10.521,10.5508,10.391,10.4486,10.4894,10.4297,10.4796,10.5583,10.6997,10.688,10.7914,11.0625,11.1111,11.1294,11.1397,11.1397,11.1397,11.1397,11.1397,11.1103,11.0499,11.0398,10.9509,10.7988,10.7887,10.7388,10.6376,10.6376,10.6502,10.671,10.6894,10.6189,10.509,10.4905,10.3905,10.2477,10.1984,10.089,9.958,0.0,0.0,0.0,0.0,0.0,0.0,0.0,0.0,0.0,0.0,0.0,0.0,0.0,0.0,0.0,0.0,0.0,0.0,0.0,5.243,5.446,5.6106,5.8123,5.954,6.0281,6.1612,6.2691,6.3445,6.5979,6.7846,6.9102,7.0427,7.1572,7.2477,7.2509,7.2509,7.2423,7.1736,7.0715,0.0,0.0,6.6437,6.5199,6.2846,6.0252,5.773,5.6302,5.6798,5.842,6.0257,6.3634,6.7537,7.0016,7.3451,7.7127,8.0154,8.2776,8.5278,8.767,8.9232,9.0295,9.0709,9.097,9.0861,8.9662,8.8736,8.711,8.3443,8.0593,7.8039,7.5899,7.9333,8.3485,8.6515,9.3685,9.9896,10.2879,10.4393,10.5307,10.541,10.5987,10.6401,10.6617,10.7004,10.781,10.9215,10.8219,10.8502,11.0619,11.1001,11.1221,11.1221,11.1221,11.1221,11.1221,11.1221,11.0817,10.9995,10.9995,10.9187,10.7609,10.7609,10.7205,10.6376,10.6376,10.6601,10.6779,10.6995,10.6401,10.5523,10.519,10.4206,10.2907,10.2309,10.138,10.0492,0.0,0.0,0.0,0.0,0.0,0.0,0.0,0.0,0.0,0.0,0.0,0.0,0.0,0.0,0.0,0.0,0.0,0.0,0.0,0.0,5.0586,5.2083,5.1355,5.1185,5.1742,5.2597,5.3364,5.404,5.8127,6.0517,6.1353,6.3931,6.5191,6.5304,6.537,6.536,6.5304,6.5172,6.3588,6.1148,6.1156,5.931,5.6519,0.0,5.5763,5.4525,5.4736,5.8729,6.432,6.7128,6.9406,7.1782,7.5988,7.9823,8.3174,8.5373,8.7478,8.9276,9.0232,9.0753,9.0988,9.0988,9.0192,8.8638,8.5802,8.383,8.1305,7.6773,7.4189,7.2605,7.2196,7.4684,7.8643,8.4205,8.9989,9.5808,10.1694,10.2521,10.3579,10.6817,10.6783,10.711,10.88,10.8914,10.9504,11.0983,11.0002,10.9592,11.0185,11.0803,11.1221,11.1221,11.1221,11.1221,11.1221,11.1111,11.0597,10.979,10.9679,10.8894,10.7425,10.7425,10.7095,10.6376,10.6376,10.659,10.7019,10.7019,10.6813,10.6325,10.5508,10.4616,10.3612,10.2685,10.2184,10.1792,0.0,0.0,0.0,0.0,0.0,0.0,0.0,0.0,0.0,0.0,4.5472,4.4792,0.0,0.0,0.0,0.0,0.0,0.0,0.0,0.0,0.0,5.1363,5.1076,5.0937,5.1059,5.1746,5.2146,5.216,5.3727,5.4895,5.5619,5.6193,5.6849,5.7544,5.755,5.755,5.7499,5.6707,5.5708,5.4635,5.4741,5.4419,5.3936,5.4718,0.0,0.0,5.5962,5.7718,6.0658,6.813,7.4621,8.0,8.2386,8.5414,8.8372,9.001,9.1217,9.2228,9.2934,9.2588,9.203,9.203,8.9915,8.7206,8.4975,8.1406,7.7216,7.265,7.0472,6.8531,6.5782,7.1153,7.7432,8.1828,8.8443,9.5447,10.2399,10.3307,10.4104,10.6423,10.7502,10.8388,10.9196,10.9592,11.0385,11.1893,11.1017,11.0598,11.1196,11.1199,11.1221,11.1221,11.1221,11.1221,11.1221,11.0487,10.979,10.8982,10.8285,10.7498,10.6596,10.6596,10.6486,10.6376,10.6376,10.659,10.7019,10.7019,10.6813,10.6325,10.5508,10.4709,10.3799,10.2816,10.2,10.1222,0.0,0.0,0.0,0.0,0.0,0.0,0.0,0.0,4.5839,4.8428,4.8488,4.8116,4.7587,4.7612,0.0,0.0,0.0,0.0,0.0,0.0,0.0,0.0,5.1122,5.0996,5.0905,5.1627,5.1717,5.1113,0.0,5.2384,5.2263,5.2324,5.2582,5.3004,5.3042,5.3037,5.2966,5.2477,5.2296,5.2384,5.2932,5.3454,5.4044,0.0,0.0,0.0,5.6434,5.8936,6.2429,6.694,7.3777,8.0948,8.4204,8.7729,9.0923,9.207,9.286,9.3592,9.4324,9.3826,9.2979,9.2566,9.0012,8.6383,8.1627,7.729,7.2705,6.7195,6.5237,6.4123,6.2974,6.7773,7.3254,7.7344,8.3054,8.9775,9.7871,9.9155,10.1007,10.578,10.7293,10.8482,10.9794,11.0698,11.1515,11.2294,11.1815,11.1509,11.1518,11.1294,11.1221,11.1221,11.1221,11.1001,11.0597,11.0193,10.9408,10.8196,10.7792,10.7205,10.6376,10.6376,10.6497,10.6601,10.6601,10.6812,10.7215,10.7215,10.6614,10.5675,10.5396,10.4393,10.3297,10.2723,10.2315,10.1796,0.0,0.0,0.0,0.0,0.0,0.0,0.0,4.4922,4.7483,5.0243,5.1401,5.1634,5.0859,4.9829,4.9138,0.0,0.0,0.0,0.0,0.0,0.0,0.0,0.0,5.1117,5.0959,0.0,0.0,5.0928,5.1741,0.0,0.0,0.0,0.0,0.0,5.0664,5.0678,5.0634,5.0606,5.1065,0.0,0.0,5.4063,0.0,0.0,0.0,0.0,0.0,5.9964,6.3638,6.5452,7.0762,7.7388,8.2031,8.6953,9.1228,9.2186,9.3212,9.42,9.5238,9.4856,9.3918,9.3108,9.0085,8.5513,7.8711,7.3718,6.885,6.2843,6.102,6.0805,6.1581,6.4899,6.8954,7.3428,7.7883,8.3907,9.2917,9.4973,9.8111,10.5004,10.6992,10.8376,11.0211,11.1493,11.2287,11.2392,11.2193,11.1884,11.1518,11.1294,11.1221,11.1221,11.1221,11.0817,10.9995,10.979,10.8982,10.7609,10.7388,10.7021,10.6376,10.6376,10.6502,10.671,10.671,10.6918,10.7316,10.7316,10.658,10.5377,10.5285,10.4319,10.3019,10.2796,10.2721,10.2498,0.0,0.0,0.0,0.0,0.0,0.0,0.0,4.6225,4.8625,5.1869,5.3147,5.3709,5.3563,5.1478,5.0037,0.0,0.0,0.0,0.0,0.0,0.0,0.0,0.0,0.0,0.0,0.0,0.0,5.2065,5.2929,0.0,0.0,0.0,0.0,0.0,0.0,5.0687,5.0692,5.0809,0.0,0.0,0.0,0.0,0.0,0.0,0.0,0.0,0.0,5.9078,5.9549,6.5101,6.7494,6.9032,7.4322,8.1657,8.8557,9.0016,9.2094,9.4288,9.6082,9.5846,9.4874,9.4078,8.9738,8.4217,7.8565,7.2529,6.6757,6.1909,6.0277,5.9956,6.0768,6.306,6.6716,7.2384,7.5987,8.1399,9.0927,9.4573,9.8344,10.3799,10.6929,10.8903,10.9809,11.13,11.2189,11.221,11.2004,11.1811,11.1497,11.1294,11.1221,11.1221,11.1221,11.0817,10.9995,10.9276,10.8505,10.7609,10.6911,10.6507,10.6376,10.6376,10.6502,10.671,10.671,10.6918,10.7316,10.7316,10.6914,10.6195,10.5508,10.469,10.3799,10.3019,10.2721,10.2498,0.0,0.0,0.0,0.0,0.0,0.0,4.4986,4.6316,4.859,5.347,5.4053,5.4177,5.4623,5.3354,5.2029,0.0,0.0,0.0,0.0,0.0,0.0,0.0,0.0,0.0,0.0,0.0,5.237,5.2274,5.3119,0.0,0.0,0.0,0.0,0.0,0.0,5.1304,5.0921,5.1416,0.0,0.0,0.0,0.0,0.0,0.0,0.0,0.0,0.0,0.0,6.005,6.1735,6.3736,6.5889,6.7893,7.2719,7.8829,8.4725,8.8583,9.1542,9.4467,9.5665,9.5665,9.3913,8.9542,8.4101,7.7948,7.1603,6.5796,6.1458,5.9543,5.9028,6.0316,6.1418,6.3713,6.8524,7.0362,7.4214,8.2849,8.6133,9.0786,9.9221,10.2885,10.6099,10.9507,11.0993,11.161,11.1293,11.1206,11.081,11.0112,11.078,11.1221,11.1221,11.0707,11.0083,10.9276,10.8526,10.7719,10.6911,10.6617,10.6376,10.6376,10.6376,10.6585,10.6914,10.6914,10.7118,10.7491,10.7491,10.7103,10.6325,10.5508,10.469,10.391,10.3,10.2721,10.2498,0.0,0.0,0.0,0.0,0.0,4.1248,4.5205,4.6321,4.8475,5.3412,5.4018,5.4218,5.4792,5.4099,5.3085,5.1822,0.0,0.0,0.0,0.0,0.0,0.0,0.0,0.0,0.0,0.0,5.3004,5.3178,5.4331,5.4734,0.0,0.0,5.3816,5.2687,0.0,0.0,0.0,0.0,0.0,0.0,0.0,0.0,0.0,0.0,0.0,0.0,0.0,0.0,0.0,0.0,0.0,6.3339,6.3154,6.5599,7.0317,7.9286,8.4495,8.8191,9.2048,9.4154,9.4777,9.2831,8.85,8.3141,7.7121,7.077,6.5044,6.119,5.9158,5.8495,5.9854,6.0366,6.17,6.5114,6.6717,6.9966,7.7004,8.0616,8.5836,9.4736,9.862,10.2591,10.7685,11.0098,11.1288,11.1213,11.0611,11.0113,10.9577,11.0186,11.0589,11.0487,10.99,10.9297,10.8526,10.7902,10.7205,10.6376,10.6376,10.6376,10.6376,10.6376,10.659,10.7019,10.7019,10.72,10.7606,10.7606,10.6975,10.5991,10.5396,10.4616,10.3501,10.2889,10.2721,10.2498,0.0,0.0,0.0,0.0,0.0,0.0,0.0,4.6439,4.8475,5.1028,5.2885,5.3984,5.4023,5.3242,5.2695,5.2695,0.0,0.0,0.0,0.0,0.0,0.0,0.0,0.0,0.0,0.0,5.4414,5.5271,5.7024,5.7355,5.6353,5.6367,5.5371,5.3551,0.0,0.0,0.0,0.0,0.0,0.0,0.0,0.0,0.0,0.0,0.0,0.0,0.0,0.0,0.0,0.0,0.0,0.0,0.0,6.1593,6.484,7.4303,8.024,8.4708,8.904,9.105,9.1657,9.0849,8.6407,8.0938,7.6041,6.9912,6.4371,6.108,5.9228,5.8436,5.9258,6.0056,6.1196,6.2937,6.6455,7.065,7.5349,8.0646,8.6003,9.1258,9.4508,9.8515,10.4006,10.8508,11.1398,11.2415,11.0787,10.9993,11.0618,10.9687,10.9013,10.8799,10.8799,10.8395,10.7609,10.7609,10.7205,10.6376,10.6376,10.6376,10.6376,10.6376,10.659,10.7019,10.7019,10.72,10.7606,10.7606,10.6696,10.521,10.521,10.4207,10.2721,10.2721,10.2721,10.261,0.0,0.0,0.0,0.0,0.0,0.0,0.0,4.4915,4.6248,4.9934,5.0463,5.1172,5.293,5.2344,5.2031,5.2656,0.0,0.0,0.0,0.0,0.0,0.0,0.0,0.0,0.0,0.0,5.4726,5.6208,5.7883,5.885,5.9102,5.8503,5.7314,5.5615,5.4693,5.4076,0.0,0.0,0.0,0.0,0.0,0.0,0.0,0.0,0.0,0.0,0.0,0.0,0.0,0.0,0.0,0.0,0.0,0.0,0.0,6.539,7.1686,7.764,8.0959,8.3119,8.3948,8.1986,7.8919,7.5249,7.0954,6.6659,6.2829,6.015,5.9231,5.9145,5.9928,6.0295,6.2108,6.7109,6.7985,6.992,7.5289,8.0386,8.5874,9.2145,10.1204,10.7607,10.9408,11.0315,11.089,11.1198,11.0306,10.95,10.8815,10.8687,10.8722,10.882,10.8306,10.7902,10.7609,10.7095,10.6691,10.6376,10.6376,10.6376,10.6376,10.6376,10.6507,10.6776,10.6901,10.7215,10.7396,10.688,10.6511,10.5916,10.4802,10.4096,10.3501,10.2889,10.2721,10.261,0.0,0.0,0.0,0.0,0.0,0.0,0.0,4.4099,4.5233,4.8231,4.8787,4.9766,5.1953,5.1445,5.1406,5.2617,0.0,0.0,0.0,0.0,0.0,0.0,0.0,0.0,5.1875,5.3238,5.515,5.7534,5.8934,6.0218,6.1384,6.0827,5.9494,5.7502,5.6535,5.5603,0.0,0.0,0.0,0.0,0.0,0.0,0.0,0.0,0.0,0.0,0.0,0.0,0.0,0.0,0.0,0.0,0.0,0.0,0.0,0.0,6.3931,6.9188,7.4325,7.7208,7.8316,7.6775,7.4368,7.1445,6.8031,6.4714,6.1728,5.9636,5.9011,5.9046,5.9866,6.027,6.1912,6.6261,6.7388,6.9311,7.4017,7.9745,8.6313,9.3994,10.3194,10.9218,10.9787,11.0508,11.099,11.1306,11.0219,10.9214,10.8609,10.8287,10.8097,10.812,10.7594,10.7195,10.7073,10.6691,10.6376,10.6376,10.6376,10.6376,10.6376,10.6376,10.6502,10.671,10.6816,10.6911,0.0,10.6414,10.5989,10.5396,10.4393,10.3799,10.3409,10.2907,10.2721,10.2592,0.0,0.0,0.0,0.0,0.0,0.0,0.0,0.0,4.5234,4.6094,4.7656,4.9375,5.1055,5.0547,5.0781,5.2461,0.0,0.0,0.0,0.0,0.0,0.0,0.0,0.0,5.2652,5.3526,5.5705,5.9162,6.0091,6.1452,6.3169,6.3084,6.1675,5.9136,5.8282,5.7318,0.0,0.0,0.0,0.0,0.0,0.0,0.0,0.0,0.0,0.0,0.0,0.0,0.0,0.0,0.0,0.0,0.0,0.0,0.0,0.0,0.0,0.0,0.0,7.235,7.3876,7.3876,7.1615,6.8788,6.6512,6.3576,0.0,5.9343,5.8591,5.8462,5.9467,6.0229,6.1137,6.2499,6.5761,6.9233,7.2478,7.9651,8.7861,9.6791,10.1701,10.4914,10.6397,10.9418,11.1506,11.2286,11.0189,10.9088,10.9707,10.8188,10.72,10.7019,10.6816,10.659,10.6397,10.6397,10.6397,10.6376,10.6376,10.6376,10.6376,10.6376,10.6502,10.6689,10.6689,10.6512,10.6111,10.6,10.5208,10.3984,10.391,10.339,10.2721,10.2721,10.2721,10.2721,0.0,0.0,0.0,0.0,0.0,0.0,0.0,0.0,0.0,0.0,4.625,4.7578,4.9297,4.9336,4.9883,0.0,0.0,0.0,0.0,0.0,0.0,0.0,0.0,0.0,5.254,5.4047,5.6464,5.9771,6.1281,6.2902,6.4597,6.4018,6.2412,5.9919,5.9122,5.7864,0.0,0.0,0.0,0.0,0.0,0.0,0.0,0.0,0.0,0.0,5.5072,5.5654,0.0,0.0,0.0,0.0,0.0,0.0,0.0,0.0,5.5798,5.6901,5.9626,0.0,6.382,6.382,6.3246,6.2365,0.0,5.9832,5.8547,5.7581,5.7726,5.8851,6.152,6.163,6.3663,7.0702,7.1524,7.3074,7.8169,8.6998,9.5208,10.1308,10.5674,10.8003,10.7788,10.9206,11.0308,11.0615,10.9594,10.8903,10.8817,10.7991,10.7394,10.6982,10.7118,10.6978,10.659,10.659,10.6601,10.6376,10.6376,10.6376,10.6376,10.6376,10.6418,10.6518,10.659,10.6374,10.5785,10.5406,10.4689,10.391,10.3316,10.2907,10.2721,10.2721,10.2721,10.2721,0.0,0.0,0.0,0.0,0.0,0.0,0.0,0.0,0.0,0.0,0.0,0.0,0.0,0.0,0.0,0.0,0.0,0.0,0.0,0.0,0.0,0.0,0.0,5.1868,5.3022,5.4294,5.6811,6.0612,6.1871,6.3563,6.565,6.5281,6.3714,6.117,5.9254,5.7784,0.0,0.0,0.0,0.0,0.0,0.0,0.0,0.0,0.0,0.0,5.3742,5.4334,0.0,5.5391,5.6333,5.718,0.0,0.0,0.0,0.0,5.4286,5.4656,5.5464,5.8535,6.1508,6.1508,6.1814,6.1887,6.1031,5.9673,5.8327,5.7519,5.7997,5.9318,6.1777,6.3135,6.5668,7.1233,7.3532,7.7466,8.5496,9.1763,9.7948,10.4291,10.6605,10.7899,10.8713,10.942,10.9821,10.9994,10.9313,10.8793,10.8696,10.7994,10.751,10.7296,10.7394,10.722,10.6779,10.6779,10.6714,10.6486,10.6486,10.6481,10.6376,10.6376,10.6376,10.6397,10.6098,10.5699,10.5078,10.4493,10.3909,10.339,10.2907,10.2721,10.2721,10.2721,10.2721,10.2721,0.0,0.0,0.0,0.0,0.0,0.0,0.0,0.0,0.0,0.0,0.0,0.0,0.0,0.0,0.0,0.0,0.0,0.0,0.0,0.0,0.0,0.0,5.1503,5.2232,5.4012,5.4773,5.7214,6.1437,6.2362,6.3976,6.6234,6.6462,6.5047,6.2207,5.9124,5.7582,0.0,0.0,0.0,0.0,0.0,0.0,0.0,0.0,0.0,0.0,0.0,0.0,0.0,5.479,5.5703,5.6444,5.5775,0.0,0.0,0.0,0.0,0.0,5.462,5.8976,6.3013,6.2242,6.2989,6.3649,6.2646,6.0664,5.8829,5.8143,5.8535,5.971,6.1924,6.4824,6.7687,7.0146,7.527,8.246,9.2445,9.514,9.8651,10.5589,10.6017,10.6508,10.8519,10.9091,10.931,10.9387,10.8899,10.8701,10.8701,10.8015,10.7606,10.7606,10.7606,10.7415,10.7099,10.7116,10.6901,10.6714,10.6693,10.6606,10.6381,10.6397,10.6302,10.6192,10.5401,10.4804,10.4206,10.3505,10.2997,10.2593,10.2593,10.2593,10.2593,10.2611,10.2611,10.2593,0.0,0.0,0.0,0.0,0.0,0.0,0.0,0.0,0.0,0.0,0.0,0.0,0.0,0.0,0.0,0.0,0.0,0.0,0.0,0.0,0.0,5.3202,5.264,5.3351,5.5581,5.6478,5.8574,6.199,6.3515,6.4858,6.5988,6.6902,6.5277,6.1466,5.9493,5.8198,5.7576,5.8326,0.0,0.0,0.0,0.0,0.0,0.0,0.0,0.0,0.0,0.0,0.0,5.2538,5.4152,5.5491,5.3393,0.0,0.0,0.0,0.0,0.0,5.6492,6.1117,6.393,5.9758,6.0896,6.2609,6.1117,5.9428,5.8143,5.8033,5.8107,5.9722,6.4824,6.7283,7.066,7.7099,8.2847,8.8727,9.4979,9.7969,10.0576,10.3413,10.5198,10.612,10.5808,10.6612,10.7226,10.7408,10.7516,10.7503,10.7503,10.7604,10.7606,10.7606,10.7606,10.7587,10.7492,10.7318,10.7215,10.6995,10.6792,10.6689,10.6611,10.6497,10.6009,10.529,10.5201,10.4407,10.3215,10.3104,10.2689,10.22,10.22,10.22,10.2182,10.2407,10.2314,10.22,0.0,0.0,0.0,0.0,0.0,0.0,0.0,0.0,0.0,0.0,0.0,0.0,0.0,0.0,0.0,0.0,0.0,0.0,0.0,0.0,5.3487,5.5559,5.5348,5.5654,5.6644,5.7896,6.0154,6.3484,6.4723,6.5974,6.7244,6.6387,6.4285,6.1158,5.947,5.8439,5.8052,5.8451,0.0,0.0,0.0,0.0,0.0,0.0,0.0,0.0,0.0,0.0,0.0,0.0,5.3209,5.4891,5.3265,0.0,0.0,0.0,0.0,0.0,5.4656,5.8646,6.1789,6.0812,6.4348,6.7724,6.6545,6.4693,6.3192,6.3198,6.3548,6.4835,6.7884,7.1144,7.5928,8.3679,8.827,9.2463,9.7138,9.8787,10.0715,10.3793,10.458,10.5108,10.5699,10.6287,10.6714,10.6816,10.6982,10.7101,10.7101,10.7298,10.7415,10.7415,10.7511,10.7606,10.7606,10.7492,10.7412,10.7215,10.7116,10.6898,10.671,10.6606,10.6003,10.5107,10.4593,10.3893,10.2991,10.2492,10.2298,10.2104,10.2104,10.2104,10.2086,10.2219,10.22,10.2012,0.0,0.0,0.0,0.0,0.0,0.0,0.0,0.0,0.0,0.0,0.0,0.0,0.0,0.0,0.0,0.0,0.0,0.0,0.0,5.3061,5.4098,5.6971,5.7716,5.8157,5.8412,5.9827,6.2017,6.5014,6.6024,6.7141,6.8405,6.5907,6.3417,6.1027,5.9353,5.8544,5.8452,5.846,5.9209,0.0,0.0,0.0,0.0,0.0,0.0,0.0,0.0,0.0,0.0,0.0,0.0,0.0,0.0,0.0,0.0,5.2742,5.172,5.161,5.3948,5.7141,6.0433,6.3257,6.7403,7.0946,7.1431,6.9463,6.7838,6.8762,6.9341,7.0033,7.1268,7.5857,8.1778,8.8751,9.2475,9.5768,9.9438,10.0094,10.1602,10.5007,10.4714,10.4801,10.6297,10.6486,10.659,10.659,10.6796,10.6901,10.6901,10.7101,10.72,10.72,10.7394,10.751,10.7511,10.7511,10.7491,10.7394,10.7296,10.7116,10.6792,10.6689,10.5992,10.4798,10.421,10.3395,10.2617,10.1991,10.1776,10.2006,10.2006,10.2008,10.199,10.1988,10.2008,10.1805,0.0,0.0,0.0,0.0,0.0,0.0,0.0,0.0,0.0,0.0,0.0,0.0,0.0,0.0,0.0,0.0,0.0,0.0,0.0,5.3223,5.4414,5.6216,5.8505,6.0436,6.1995,6.2876,6.4203,6.601,6.7479,6.8341,6.8541,6.5996,6.3477,6.1036,5.9348,5.8569,5.8542,5.8215,5.8971,6.031,0.0,0.0,0.0,0.0,0.0,0.0,0.0,0.0,0.0,0.0,0.0,0.0,0.0,0.0,5.4226,5.3371,5.2527,5.2931,5.7508,6.0089,6.2401,6.6349,6.658,6.6941,7.1244,6.9771,6.8546,7.2211,7.244,7.2691,7.5124,8.1454,8.7458,9.1015,9.5583,9.9548,10.2118,10.3708,10.5102,10.6192,10.6202,10.6276,10.6413,10.6397,10.6397,10.6397,10.6606,10.6693,10.6693,10.6918,10.7002,10.7002,10.7002,10.7101,10.7298,10.7298,10.7376,10.7587,10.7218,10.7019,10.7015,10.6606,10.5516,10.399,10.388,10.3019,10.1608,10.1477,10.1497,10.1517,10.1517,10.1711,10.1793,10.1578,10.1711,10.1793,0.0,0.0,0.0,0.0,0.0,0.0,0.0,0.0,0.0,0.0,0.0,0.0,0.0,0.0,0.0,0.0,0.0,0.0,0.0,5.3369,5.4763,5.6909,5.9043,6.0689,6.183,6.4124,6.6381,6.8468,6.8949,6.8982,6.8493,6.5949,6.3406,6.0977,5.9818,5.886,5.8176,5.8587,5.9241,5.9936,5.9106,0.0,0.0,0.0,0.0,0.0,0.0,0.0,0.0,0.0,5.1348,5.2783,5.1828,5.3261,5.4911,5.3025,5.1867,5.1977,5.5306,5.8841,6.2338,6.5372,6.8345,7.1223,7.394,7.5151,7.6566,7.9594,7.9898,7.9911,8.0922,8.4206,8.7993,9.1862,9.566,9.9255,10.2293,10.3696,10.4687,10.5495,10.6082,10.6376,10.6376,10.6376,10.6376,10.6376,10.6497,10.6502,10.6502,10.671,10.6796,10.6796,10.6901,10.7002,10.7081,10.7081,10.7215,10.72,10.7218,10.7101,10.6998,10.6693,10.5583,10.388,10.388,10.2999,10.1514,10.1514,10.1514,10.1514,10.1514,10.1517,10.1614,10.1497,10.1517,10.1484,0.0,0.0,0.0,0.0,0.0,0.0,0.0,0.0,0.0,0.0,0.0,0.0,0.0,0.0,0.0,0.0,0.0,0.0,5.2155,5.301,5.4462,5.667,5.8525,6.0265,6.1926,6.4707,6.6867,6.836,6.8722,6.8469,6.7653,6.5368,6.3245,6.1339,6.022,5.9403,5.8853,5.8782,5.9091,5.9543,5.8964,5.7833,0.0,0.0,0.0,0.0,0.0,0.0,0.0,0.0,5.0644,5.22,5.1715,5.3314,5.5069,5.355,5.3298,5.3765,5.517,5.851,6.2326,6.523,6.9865,7.4403,7.72,7.9305,8.1543,8.4705,8.4888,8.4495,8.4547,8.5905,8.8308,9.2244,9.5703,9.8989,10.2186,10.3483,10.44,10.4913,10.5783,10.6376,10.6376,10.6376,10.6376,10.6376,10.6376,10.6376,10.6376,10.6486,10.6606,10.6606,10.6677,10.68,10.6898,10.6898,10.6901,10.7019,10.7079,10.7002,10.6898,10.671,10.5604,10.388,10.388,10.2999,10.1514,10.1514,10.1514,10.1514,10.1514,10.1514,10.1514,10.1514,10.1514,10.1404,0.0,0.0,0.0,0.0,0.0,0.0,0.0,0.0,0.0,0.0,0.0,0.0,0.0,0.0,0.0,0.0,0.0,0.0,5.13,5.2114,5.3397,5.5109,5.6809,5.9357,6.2867,6.4653,6.5392,6.5006,6.64,6.6705,6.5964,6.4212,6.297,6.2105,6.0447,6.0177,6.0811,5.8692,5.831,5.9082,5.9015,5.7325,0.0,0.0,0.0,0.0,0.0,0.0,0.0,0.0,5.0294,5.0308,5.43,5.5034,5.4583,5.5365,5.7299,5.9013,5.8217,5.9758,6.2634,6.6709,7.0784,7.5272,8.0783,8.1267,8.186,8.6503,8.6327,8.5341,8.5341,8.6714,8.8991,9.2362,9.6025,9.9382,10.1993,10.3787,10.4811,10.4811,10.5699,10.6376,10.6376,10.6376,10.6376,10.6376,10.6376,10.6376,10.6376,10.6376,10.6376,10.6376,10.6376,10.6481,10.671,10.671,10.6776,10.6998,10.6812,10.671,10.6689,10.6481,10.5495,10.388,10.388,10.2999,10.1514,10.1514,10.1514,10.1514,10.1514,10.1514,10.1514,10.1514,10.1514,10.1514,0.0,0.0,0.0,0.0,0.0,0.0,0.0,0.0,0.0,0.0,0.0,0.0,0.0,0.0,0.0,0.0,0.0,0.0,5.1365,5.2184,5.3159,5.4326,5.6583,5.8298,5.9315,6.1431,6.3949,6.6819,6.6455,6.5833,6.5005,6.3844,6.258,6.1224,6.1339,6.0394,5.8623,5.8016,5.8237,5.8977,5.8331,5.8099,0.0,0.0,0.0,0.0,0.0,0.0,0.0,0.0,0.0,0.0,5.1932,5.4506,5.6654,5.4531,5.6014,5.807,5.6686,6.0578,6.5742,6.8641,7.5432,8.2045,8.4753,8.547,8.6374,8.923,8.9011,8.8132,8.7453,8.7551,8.891,9.2525,9.4921,9.7494,10.0801,10.218,10.2895,10.2895,10.3781,10.4384,10.4384,10.5117,10.5495,10.5495,10.6082,10.6376,10.6376,10.6376,10.6376,10.6376,10.6376,10.6418,10.6481,10.5893,10.5583,10.5703,10.4995,10.5094,10.5789,10.5599,10.4614,10.3109,10.3696,10.2999,10.1514,10.1514,10.1514,10.1514,10.1514,10.1514,10.1514,10.1514,10.1514,10.1514,0.0,0.0,0.0,0.0,0.0,0.0,0.0,0.0,0.0,0.0,5.1206,5.1405,0.0,0.0,0.0,0.0,0.0,0.0,0.0,5.1875,5.2734,5.3944,5.5855,5.7601,5.9248,6.0878,6.2788,6.4993,6.4569,6.3942,6.3089,6.3237,6.2775,6.1814,6.2548,6.1344,5.8727,5.8237,5.8037,5.8053,5.8192,5.8106,5.7674,0.0,0.0,0.0,0.0,0.0,0.0,0.0,0.0,0.0,5.0789,5.3001,5.5291,5.4816,5.6963,5.9707,6.0615,6.4787,6.9926,7.4294,8.0021,8.5504,8.889,8.9666,8.994,9.1005,9.0359,8.9357,8.8572,8.8037,8.876,9.2,9.4089,9.6281,9.917,10.0892,10.1894,10.1894,10.2901,10.3604,10.3604,10.4196,10.4798,10.5107,10.5605,10.6009,10.6397,10.6376,10.6376,10.6376,10.6082,10.5899,10.5899,10.4997,10.4614,10.4614,10.41,10.4109,10.4416,10.4603,10.3917,10.2705,10.2889,10.2375,10.1514,10.1514,10.1514,10.1514,10.1514,10.1514,10.1514,10.1514,10.1514,10.1514,0.0,0.0,0.0,0.0,0.0,0.0,0.0,0.0,0.0,0.0,5.0892,5.1404,0.0,0.0,0.0,0.0,0.0,0.0,0.0,5.1406,5.2187,5.3906,5.5077,5.7517,6.1513,6.2052,6.1815,6.0843,6.1516,6.1518,6.0825,6.2435,6.3237,6.3302,6.3549,6.2371,6.0067,5.8562,5.7293,5.6447,5.7886,5.7199,5.532,5.5956,0.0,0.0,0.0,0.0,0.0,0.0,0.0,0.0,5.0572,5.12,5.1984,5.5375,5.8929,6.272,6.6993,7.033,7.4368,8.1583,8.4519,8.7133,9.2929,9.361,9.2785,9.2224,9.0899,8.9747,8.916,8.8464,8.8774,9.1166,9.3491,9.5611,9.744,9.9885,10.151,10.1619,10.2606,10.3321,10.3305,10.3625,10.4116,10.4813,10.4887,10.529,10.6082,10.6213,10.6213,10.6213,10.5422,10.4997,10.4997,10.421,10.3806,10.3806,10.3696,10.3293,10.2595,10.3403,10.3403,10.2705,10.1788,10.1494,10.1624,10.1514,10.1514,10.1514,10.1514,10.1514,10.1514,10.1514,10.1514,10.1514,0.0,0.0,0.0,0.0,0.0,0.0,0.0,0.0,0.0,0.0,0.0,0.0,0.0,0.0,0.0,0.0,0.0,0.0,0.0,5.1406,5.2187,5.3906,5.6796,5.9572,6.2214,6.1133,6.0309,5.9826,5.9963,6.0319,6.0825,6.1864,6.2704,6.3225,6.1797,6.0119,5.8156,5.4981,5.3855,5.4206,5.3888,5.4244,5.4845,5.3422,5.2324,0.0,0.0,0.0,0.0,0.0,0.0,0.0,5.0667,5.2063,5.2959,5.2501,5.6823,6.1886,6.2267,6.7777,7.5028,8.1729,8.8299,9.3693,9.5684,9.5947,9.5347,9.3745,9.2802,9.197,9.1001,9.04,9.0536,9.1897,9.3024,9.4696,9.7393,9.8825,9.9832,10.039,10.0907,10.118,10.1408,10.2203,10.2887,10.3199,10.3806,10.421,10.4394,10.4394,10.4394,10.4394,10.4284,10.421,10.421,10.3403,10.2999,10.2999,10.2301,10.1898,10.1808,10.2595,10.2889,10.2705,10.1788,10.1918,10.2412,10.1808,10.1514,10.1514,10.1514,10.1514,10.1514,10.1514,10.1514,10.1514,0.0,0.0,0.0,0.0,0.0,0.0,0.0,0.0,0.0,0.0,0.0,0.0,0.0,0.0,0.0,0.0,0.0,0.0,0.0,5.1406,5.2539,5.5117,5.7772,5.965,6.0655,5.9431,5.8638,5.8286,5.7896,5.855,6.0204,6.2326,6.3743,6.4455,6.2278,6.015,5.8001,5.4516,5.294,5.2825,5.3165,5.3361,5.3392,5.2768,5.1619,5.0247,4.9196,0.0,0.0,0.0,0.0,0.0,0.0,0.0,5.1547,5.2562,5.6024,6.0374,6.418,6.9936,7.6864,8.5343,9.1492,9.5712,9.6539,9.6685,9.6397,9.54,9.4408,9.3365,9.2332,9.1458,9.1126,9.1758,9.2945,9.4309,9.5854,9.7582,9.8872,9.9308,9.9778,10.0103,10.0193,10.1085,10.1905,10.2396,10.2799,10.3206,10.3677,10.3808,10.3813,10.388,10.3513,10.3293,10.3293,10.2485,10.2081,10.2081,10.1698,10.1514,10.1514,10.1898,10.2081,10.2081,10.1698,10.1677,10.2081,10.1698,10.1514,10.1514,10.1514,10.1514,10.1514,10.1514,10.1514,10.1514,0.0,0.0,0.0,0.0,0.0,0.0,0.0,0.0,0.0,0.0,0.0,0.0,0.0,0.0,0.0,0.0,0.0,0.0,0.0,5.1523,5.3047,5.625,5.7889,5.8756,5.8704,5.7779,5.7249,5.7209,5.6362,5.7594,6.0858,6.3243,6.5013,6.5994,6.3352,6.0805,5.8281,5.4905,5.2654,5.1493,5.2899,5.2523,5.1239,5.1976,5.0676,4.8481,4.8481,4.8556,4.8713,4.8736,0.0,0.0,0.0,0.0,4.9532,5.2834,5.5178,5.8349,6.5911,7.2141,7.8956,8.905,9.3345,9.529,9.6098,9.6392,9.6502,9.6502,9.5595,9.4481,9.3445,9.2357,9.1685,9.1725,9.3149,9.4314,9.4503,9.6646,9.8245,9.839,9.899,9.9391,9.9391,9.9995,10.0688,10.1584,10.1715,10.2107,10.308,10.3101,10.3206,10.3414,10.2791,10.2481,10.2485,10.1788,10.1514,10.1514,10.1514,10.1514,10.1514,10.1514,10.1514,10.1514,10.1514,10.1514,10.1514,10.1514,10.1514,10.1514,10.1514,10.1514,10.1514,10.1514,10.1514,10.1514,0.0,0.0,0.0,0.0,0.0,0.0,0.0,0.0,0.0,0.0,5.1346,5.1391,5.139,5.1401,0.0,0.0,0.0,0.0,5.1406,0.0,0.0,5.539,5.6405,5.7506,5.8654,5.7189,5.6931,5.8127,5.7247,6.0017,6.6058,6.4282,6.4705,6.6776,6.3277,6.0141,5.7332,5.3696,5.1046,4.9311,4.9543,4.9088,4.8269,4.8389,4.776,4.681,4.681,4.7256,4.7901,4.8127,4.8509,0.0,0.0,0.0,4.8993,4.9532,5.226,5.5659,5.8164,6.8349,8.0277,8.8683,9.2097,9.3639,9.4446,9.5144,9.5639,9.5639,9.5938,9.5842,9.4741,9.4284,9.3836,9.3167,9.3862,9.4781,9.5698,9.6706,9.7625,9.8317,9.8479,9.8552,9.8552,9.8682,9.9047,9.987,9.9943,10.0308,10.1095,10.1204,10.1309,10.1596,10.1486,10.1495,10.1698,10.1587,10.1514,10.1514,10.1514,10.1514,10.1514,10.1514,10.1514,10.1514,10.1514,10.1514,10.1514,10.1514,10.1514,10.1514,10.1514,10.1514,10.1514,10.1514,10.1514,10.1514,0.0,0.0,0.0,0.0,0.0,0.0,0.0,0.0,0.0,0.0,0.0,5.1395,5.1395,5.1403,0.0,0.0,0.0,0.0,5.1406,5.2226,0.0,5.4531,5.4958,5.5352,5.5839,5.4652,5.4717,5.6165,5.528,5.905,6.7096,6.5936,6.7821,7.1892,6.7242,6.3425,6.0141,5.5018,5.1133,4.8437,4.8437,4.9806,5.1444,4.8259,4.8779,5.084,4.7804,4.6861,4.7128,4.7866,4.8167,4.8321,4.8928,0.0,0.0,0.0,5.1065,5.5077,6.2448,7.0367,7.8589,8.7142,9.0482,9.206,9.3345,9.4263,9.4813,9.4813,9.5031,9.5335,9.5801,9.4855,9.4122,9.4344,9.4633,9.505,9.5518,9.6372,9.7073,9.7382,9.7758,9.7953,9.7953,9.811,9.8386,9.875,9.8681,9.8805,9.9259,9.9696,10.0083,10.0509,10.1005,10.1193,10.1275,10.1295,10.1295,10.1295,10.1417,10.1514,10.1514,10.1514,10.1514,10.1514,10.1514,10.1514,10.1514,10.1514,10.1514,10.1514,10.1514,10.1514,10.1514,10.1514,10.1514,10.1514,0.0,0.0,0.0,0.0,0.0,0.0,0.0,0.0,0.0,0.0,0.0,0.0,5.14,0.0,0.0,0.0,0.0,0.0,5.1406,0.0,0.0,0.0,5.3666,5.3546,5.3296,5.2616,5.2919,5.4164,5.3741,5.8396,6.7789,6.7981,7.1598,7.77,7.2156,6.7276,6.2901,5.7582,5.3456,5.044,5.031,5.2235,5.481,5.1936,5.3237,5.5914,5.0912,4.8942,4.8713,4.8363,4.8189,4.8207,4.858,4.8773,0.0,0.0,0.0,5.3679,6.4058,6.9141,7.3707,8.2847,8.6664,8.883,9.1289,9.2464,9.3161,9.3565,9.3639,9.4153,9.5804,9.5052,9.44,9.5145,9.5481,9.5668,9.5668,9.6301,9.6762,9.6762,9.7139,9.7349,9.7289,9.7536,9.7689,9.7803,9.767,9.7721,9.8009,9.8771,9.942,9.9878,10.0703,10.1184,10.1307,10.1307,10.1307,10.1307,10.1397,10.1514,10.1514,10.1514,10.1514,10.1514,10.1514,10.1514,10.1514,10.1514,10.1514,10.1514,10.1514,10.1514,10.1514,10.1514,10.1514,10.1514,0.0,0.0,0.0,0.0,0.0,0.0,0.0,0.0,0.0,0.0,0.0,0.0,5.1404,5.1406,5.1406,5.1406,0.0,0.0,0.0,0.0,0.0,0.0,0.0,0.0,5.2355,5.2319,5.2623,5.3274,5.4049,5.9627,6.959,7.036,7.5168,8.2947,7.7,7.0535,6.3949,6.1197,5.8814,5.6869,5.6416,5.5953,5.6021,6.0869,6.1956,6.0375,5.6435,5.5024,5.4354,5.0019,4.8907,4.9151,4.8371,4.8488,4.8742,0.0,0.0,0.0,5.6135,5.9985,6.4604,7.4294,7.914,8.2737,8.7399,8.9069,9.0097,9.162,9.1913,9.2427,9.4116,9.494,9.5416,9.5471,9.6267,9.6932,9.6932,9.697,9.6989,9.6989,9.6837,9.6662,9.6487,9.6484,9.6615,9.6951,9.6946,9.7189,9.7796,9.8571,9.9186,9.9615,10.0417,10.0991,10.1494,10.1494,10.1494,10.1494,10.1514,10.1514,10.1514,10.1514,10.1514,10.1514,10.1514,10.1514,10.1514,10.1514,10.1514,10.1514,10.1514,10.1514,10.1514,10.1514,10.1514,10.1514,0.0,0.0,0.0,0.0,0.0,0.0,0.0,0.0,0.0,0.0,0.0,0.0,0.0,5.1406,5.1406,5.1406,5.1406,0.0,0.0,0.0,0.0,0.0,0.0,0.0,5.1414,5.1397,5.1737,5.239,5.2164,5.6439,6.4826,6.559,6.8754,7.3788,7.3877,7.2241,6.8943,6.313,5.9505,5.7759,5.8397,6.0555,6.3333,6.2711,6.4891,6.7609,6.2485,5.947,5.7701,5.6188,5.3732,5.1175,5.0284,4.9664,4.911,4.8624,4.858,4.9954,5.5638,5.7851,6.0784,7.0023,7.511,7.8846,8.27,8.6187,8.8793,8.9381,8.9895,9.0427,9.1014,9.2684,9.4153,9.4666,9.557,9.6234,9.6234,9.6234,9.6418,9.6934,9.6378,9.6097,9.6552,9.6472,9.6425,9.6558,9.6295,9.6235,9.6442,9.7585,9.8438,9.8885,10.0104,10.0981,10.1291,10.1291,10.1291,10.1291,10.1397,10.1514,10.1514,10.1514,10.1514,10.1514,10.1514,10.1514,10.1514,10.1514,10.1514,10.1514,10.1514,10.1514,10.1514,10.1514,10.1514,10.1514,0.0,0.0,0.0,0.0,0.0,0.0,0.0,0.0,5.117,5.1235,0.0,0.0,0.0,0.0,5.1406,5.1406,5.1363,5.1309,5.1197,5.1149,0.0,0.0,0.0,0.0,5.1297,5.1293,5.1511,5.1885,5.1664,5.4708,6.0864,6.22,6.4943,6.8785,6.941,7.0269,7.0941,6.5929,6.256,6.0737,6.268,6.5331,6.8248,6.8707,7.1482,7.4443,6.9448,6.6248,6.4143,6.2155,5.8832,5.5084,5.2747,5.0377,4.8453,4.8475,4.8644,4.9565,5.3045,5.4652,5.7427,6.6044,6.999,7.3419,7.9659,8.2961,8.5237,8.7166,8.8196,8.8897,8.9396,9.0919,9.2371,9.3382,9.4632,9.5497,9.5569,9.5515,9.5645,9.6216,9.5809,9.5712,9.6245,9.6423,9.6453,9.6394,9.6117,9.5858,9.5695,9.6856,9.7906,9.8849,10.0188,10.1101,10.1291,10.1291,10.1291,10.1291,10.1397,10.1514,10.1514,10.1514,10.1514,10.1514,10.1514,10.1514,10.1514,10.1514,10.1514,10.1514,10.1514,10.1514,10.1514,10.1514,10.1514,10.1514,0.0,0.0,0.0,0.0,0.0,0.0,0.0,0.0,5.1265,5.128,0.0,0.0,0.0,0.0,0.0,5.1483,5.1344,5.1233,5.1174,5.1081,0.0,0.0,0.0,0.0,5.2089,5.2085,5.2039,5.1885,5.2736,5.4851,5.8198,6.0704,6.4551,6.9122,6.4243,6.4699,6.9205,6.9287,6.809,6.6339,6.9404,7.0119,7.034,7.9192,8.1944,8.0612,7.7295,7.5534,7.3865,6.7787,6.3975,6.0902,5.5509,5.0514,4.6752,4.7516,4.8273,4.8693,0.0,0.0,0.0,6.1922,6.3419,6.6148,7.8004,7.9089,7.9157,8.488,8.6689,8.771,8.931,8.9762,9.0384,9.1759,9.3541,9.479,9.502,9.488,9.4755,9.4792,9.5184,9.5455,9.5492,9.6208,9.6608,9.6414,9.6394,9.6197,9.5715,9.6458,9.7725,9.9521,10.0589,10.1218,10.1514,10.1514,10.1514,10.1514,10.1514,10.1514,10.1514,10.1514,10.1514,10.1514,10.1514,10.1514,10.1514,10.1514,10.1514,10.1514,10.1514,10.1514,10.1514,10.1514,10.1514,10.1514,0.0,0.0,0.0,0.0,0.0,5.2961,5.3022,5.2581,5.2426,0.0,0.0,0.0,5.2421,5.2889,5.3237,5.3139,5.3107,5.2489,5.1074,5.0959,5.0867,5.0778,5.1563,5.199,5.1973,5.1973,5.1944,5.1885,5.1548,5.251,5.4621,5.5923,5.8245,6.1312,6.1164,6.1371,6.1847,6.0866,6.4296,7.0189,6.8001,7.128,7.7689,7.9252,8.1642,8.4049,8.3315,8.1633,7.9319,7.6618,7.1954,6.5847,5.7261,5.2207,4.9267,4.8736,4.9578,5.0377,4.893,0.0,0.0,0.0,0.0,0.0,6.7463,7.0354,7.3356,7.9711,8.108,8.235,8.6347,8.7494,8.8196,8.933,9.1634,9.347,9.3955,9.3959,9.4092,9.4613,9.4117,9.4226,9.5382,9.5675,9.6023,9.6572,9.6472,9.6256,9.5939,9.6541,9.7434,9.8698,9.92,9.9862,10.0613,10.0613,10.0907,10.1514,10.1514,10.1514,10.1514,10.1514,10.1514,10.1514,10.1514,10.1514,10.1514,10.1514,10.1514,10.1514,10.1514,10.1514,10.1514,10.1514,10.1514,10.1514,0.0,0.0,0.0,0.0,0.0,5.5067,5.5436,5.5103,5.4995,0.0,0.0,0.0,5.4781,5.6184,5.6632,5.5426,5.4619,5.3539,5.2032,5.124,5.0794,5.0712,5.1467,5.2236,5.2967,5.262,5.262,5.2967,5.1779,5.151,5.2164,5.2964,5.4331,5.6093,5.6621,5.7251,5.7735,5.5033,5.9116,6.7628,6.9672,7.3725,7.884,8.1653,8.4237,8.6391,8.6675,8.5807,8.424,8.29,7.6917,6.866,6.0904,5.6133,5.3038,5.1024,5.1862,5.3014,5.1008,5.1343,5.2872,5.5323,0.0,0.0,6.5287,6.7197,6.9392,7.6614,7.8301,7.9599,8.336,8.4389,8.5211,8.6711,8.8377,9.0224,9.232,9.282,9.31,9.3509,9.329,9.3492,9.441,9.5088,9.5675,9.6171,9.6386,9.6375,9.602,9.6582,9.7216,9.788,9.8506,9.9276,10.0283,10.0283,10.0686,10.1514,10.1514,10.1514,10.1514,10.1514,10.1514,10.1514,10.1514,10.1514,10.1514,10.1514,10.1514,10.1514,10.1514,10.1514,10.1514,10.1514,10.1514,10.1514,0.0,0.0,5.4449,5.566,5.6522,5.7304,5.8201,5.824,5.8238,0.0,5.7879,5.7824,5.8774,6.0598,6.0782,5.8311,5.6284,5.4675,5.3576,5.1842,5.0784,5.0707,5.1543,5.2736,5.4164,5.3741,5.3703,5.4203,5.2774,5.1582,5.0707,5.1428,5.2197,5.2885,5.1813,5.2958,5.5455,5.2028,5.4629,6.187,7.1743,7.5932,7.7145,8.4834,8.785,8.7978,8.8324,8.8488,8.8301,8.6708,7.9764,7.0848,6.563,6.1597,5.811,5.435,5.5129,0.0,5.409,5.4006,0.0,5.9423,5.7523,0.0,6.6654,6.6492,6.6466,7.3805,7.6023,7.7404,7.9818,8.0532,8.1413,8.3372,8.4259,8.6109,9.0166,9.1302,9.1672,9.1654,9.2335,9.2868,9.2941,9.4336,9.5272,9.5345,9.606,9.6343,9.606,9.6509,9.6852,9.7118,9.8051,9.902,9.9989,10.0099,10.0576,10.1404,10.1514,10.1514,10.1514,10.1514,10.1514,10.1514,10.1514,10.1514,10.1514,10.1514,10.1514,10.1514,10.1514,10.1514,10.1514,10.1514,10.1514,10.1514,0.0,5.5773,5.665,5.8983,5.9531,5.9961,6.0818,6.0349,6.0424,6.1818,6.2478,6.3828,6.6576,6.484,6.3195,6.2448,5.9547,5.6775,5.4433,5.2646,5.1395,5.0745,5.2125,5.2774,5.2428,5.4241,5.428,5.2428,5.2774,5.2164,5.0707,5.0861,5.1015,5.1159,5.0659,5.0697,5.1285,5.4608,5.8181,6.199,6.5091,7.2571,8.205,8.3815,8.6516,8.937,8.9912,9.0052,8.9436,8.6363,8.2215,7.7103,6.9867,6.7378,6.584,5.9139,5.9934,6.2259,5.9028,5.9254,5.9841,5.7529,5.8767,0.0,5.7577,5.9477,6.2541,6.5335,6.6973,6.9218,7.3635,7.5418,7.6338,7.6768,8.0101,8.3894,8.7391,8.8621,8.907,8.89,9.0172,9.1363,9.1987,9.2978,9.3859,9.4483,9.4948,9.5522,9.6279,9.6101,9.6133,9.6535,9.6777,9.7371,9.8337,9.8998,9.9732,10.0503,10.122,10.1514,10.1514,10.1514,10.1514,10.1514,10.1514,10.1514,10.1514,10.1514,10.1514,10.1514,10.1514,10.1514,10.1514,10.1514,10.1514,10.1514,5.631,5.7216,5.847,6.0664,6.1406,6.2265,6.4018,6.3939,6.4559,6.7158,6.934,7.0593,7.0332,6.9143,6.758,6.5511,6.2248,5.9181,5.6555,5.4395,5.262,5.1356,5.2082,5.2928,5.378,5.4664,5.4895,5.4434,5.3626,5.2549,5.1279,5.0899,5.1698,5.3442,5.1885,5.2388,5.4538,5.5697,5.8429,6.2508,6.8637,7.6064,8.3769,8.7084,8.9597,9.1452,9.173,9.1486,9.0412,8.623,8.3281,8.0174,7.3821,7.2095,7.1175,6.4968,6.5226,6.6642,6.2457,6.1966,6.2322,6.1075,6.0518,0.0,0.0,5.9368,6.0344,6.4697,6.4205,6.4757,7.0395,7.0689,7.0731,7.2735,7.5742,7.845,8.0081,8.4205,8.7302,8.801,8.8157,8.8838,9.0446,9.1363,9.2537,9.4189,9.4747,9.5233,9.5753,9.5958,9.6157,9.6375,9.6492,9.7176,9.8484,9.8924,9.9695,10.0907,10.1274,10.1514,10.1514,10.1514,10.1514,10.1514,10.1514,10.1514,10.1514,10.1514,10.1514,10.1514,10.1514,10.1514,10.1514,10.1514,10.1514,10.1514,5.6835,5.8125,5.9726,6.1406,6.2578,6.4022,6.6317,6.6784,6.8223,7.1991,7.5356,7.6396,7.3821,7.3767,7.2855,7.0177,6.6145,6.2874,6.0731,5.7595,5.5171,5.3692,5.2967,5.3659,5.5895,5.5164,5.5093,5.5791,5.4049,5.2659,5.1659,5.1015,5.2461,5.5524,5.3706,5.519,5.8943,5.7181,5.966,6.5582,7.5044,7.991,8.228,8.9087,9.1803,9.2024,9.2831,9.2648,9.1326,8.6628,8.4288,8.2401,7.7147,7.6177,7.588,7.0461,7.0428,7.1132,6.6492,6.5324,6.552,6.573,6.3529,6.1721,0.0,0.0,0.0,6.477,6.2867,6.1948,6.7273,6.6184,6.5576,6.8829,7.123,7.2618,7.2389,7.856,8.3793,8.5561,8.5657,8.6337,8.8302,8.8923,9.0445,9.3382,9.3561,9.4052,9.5189,9.5955,9.6414,9.6453,9.6645,9.7309,9.8631,9.8961,9.9769,10.098,10.1404,10.1514,10.1514,10.1514,10.1514,10.1514,10.1514,10.1514,10.1514,10.1514,10.1514,10.1514,10.1514,10.1514,10.1514,10.1514,10.1514,10.1514,5.7734,5.8515,5.9725,6.1405,6.3043,6.4521,6.5567,6.6345,6.8605,7.355,7.6683,7.9044,8.0716,7.9138,7.8561,8.0103,7.3848,6.9512,6.8794,6.3665,6.0376,5.9808,5.6896,5.578,5.6813,5.6011,5.4208,5.1399,5.2626,5.2395,5.0822,5.0745,5.1562,5.3175,5.464,5.6666,5.9049,6.1169,6.6966,7.497,7.8321,7.7723,7.5652,8.3618,8.7068,8.8152,9.1803,9.3051,9.2317,8.8115,8.6628,8.536,7.9029,7.9741,8.1489,7.4132,7.4888,7.7311,7.3507,7.3016,7.2443,6.7663,6.9372,6.9533,5.9258,0.0,6.2474,5.8825,0.0,5.9795,6.1227,0.0,0.0,6.2606,6.6446,6.907,6.8357,7.1544,7.478,7.7119,8.1726,8.4846,8.5128,8.4592,8.6097,9.0702,8.8928,8.9953,9.5197,9.607,9.6472,9.6647,9.6666,9.6795,9.6979,9.8411,9.9181,9.9402,10.0796,10.1514,10.1514,10.1514,10.1514,10.1514,10.1514,10.1514,10.1514,10.1514,10.1514,10.1514,10.1514,10.1514,10.1514,10.1514,10.1514,10.1514,5.7811,5.8982,6.0268,6.1479,6.3157,6.491,6.6776,7.2038,7.6209,7.7375,8.156,8.461,8.4967,8.2813,8.1857,8.3227,7.8726,7.4431,7.1174,6.7767,6.4661,6.1978,5.9905,5.8515,5.7892,5.6942,5.5275,5.2859,5.2572,5.2067,5.1311,5.0713,5.2851,5.7329,5.7962,6.1521,6.6987,6.6689,6.8964,7.3057,7.5844,7.5652,7.5007,8.6885,9.1657,9.2152,9.3877,9.4189,9.3161,8.9087,8.7068,8.5747,8.2537,8.1576,8.0997,7.7803,7.751,7.7489,7.4043,7.4,7.4001,7.0275,6.9825,6.8626,6.2108,6.0625,6.0576,6.0309,0.0,0.0,0.0,0.0,0.0,0.0,6.3121,6.4759,6.297,6.6736,7.0905,7.4216,7.5974,7.816,8.1497,8.2333,8.4315,8.8225,8.7495,8.8778,9.3125,9.4958,9.6112,9.6685,9.6685,9.6906,9.7383,9.808,9.8888,9.9805,10.0503,10.098,10.1514,10.1514,10.1514,10.1514,10.1514,10.1514,10.1514,10.1514,10.1514,10.1514,10.1514,10.1514,10.1514,10.1514,10.1514,10.1514,5.804,0.0,6.0301,6.12,6.2994,6.5412,6.8683,7.5623,8.0498,8.042,8.4672,8.7838,8.8192,8.6452,8.5907,8.7571,8.448,8.0554,7.6141,7.3217,7.0206,6.6902,6.3964,6.2074,6.1274,5.8863,5.6675,5.471,5.3019,5.2399,5.2779,5.0973,5.3525,5.9641,6.0596,6.519,7.2185,7.1848,7.3176,7.5698,7.7739,7.914,8.1012,9.028,9.4648,9.5785,9.5565,9.5144,9.4042,9.0152,8.7984,8.664,8.5391,8.3553,8.1723,8.1197,8.0407,7.8933,7.5624,7.572,7.586,7.1937,6.977,6.7655,6.4214,6.163,6.0529,6.2426,6.0566,0.0,0.0,0.0,5.7997,5.9306,0.0,6.1852,5.9822,6.2905,6.6665,7.0216,7.1252,7.3354,7.7714,7.8772,8.0938,8.5049,8.4739,8.6427,9.1216,9.3602,9.5308,9.6355,9.6575,9.6979,9.7566,9.7806,9.8594,9.9989,10.0209,10.0686,10.1514,10.1514,10.1514,10.1514,10.1514,10.1514,10.1514,10.1514,10.1514,10.1514,10.1514,10.1514,10.1514,10.1514,10.1514,10.1514,5.8886,5.908,5.9432,6.0292,6.2588,6.6017,7.1091,7.4214,7.7493,8.1669,8.3924,8.6643,9.0731,9.0502,9.1711,9.5774,9.2429,8.9135,8.6783,8.1283,7.7868,7.7345,6.9879,6.6528,6.8233,6.234,5.8003,5.5467,5.3798,5.3798,5.5308,5.1674,5.2551,5.7318,6.1452,6.5915,7.073,7.6043,8.237,8.8739,8.8059,9.1069,9.5511,9.1235,9.2519,9.6575,9.5804,9.5455,9.4941,9.1657,9.0092,8.9163,8.6806,8.6204,8.6021,8.4273,8.4284,8.4089,8.0702,8.0644,7.9725,7.2027,7.046,6.9199,6.3064,6.3429,6.4628,6.3123,6.4604,6.5705,6.4323,6.3246,0.0,0.0,6.1068,0.0,0.0,5.9858,6.0384,6.2865,6.8674,7.2834,7.378,7.2532,7.428,8.0718,7.8977,8.1436,9.0188,9.2244,9.3896,9.5492,9.6282,9.6722,9.6722,9.7493,9.83,9.9125,9.9916,10.0686,10.1514,10.1514,10.1514,10.1514,10.1514,10.1514,10.1514,10.1514,10.1514,10.1514,10.1514,10.1514,10.1514,10.1514,10.1514,10.1514,5.9891,6.0795,6.1636,6.2032,6.3324,6.6344,7.2459,7.8012,8.2785,8.6308,8.9456,9.3122,9.7724,9.7529,9.8041,10.061,9.8134,9.4678,9.0495,8.6393,8.3523,8.2174,7.6686,7.3117,7.2019,6.7454,6.303,5.8808,5.7135,5.6599,5.7079,5.4292,5.5535,6.0266,6.3334,6.8515,7.5146,7.8678,8.2517,8.6334,8.7655,9.1289,9.5787,9.4666,9.5254,9.6649,9.6392,9.6282,9.597,9.3897,9.1964,9.0378,8.9705,8.7801,8.5809,8.5694,8.5044,8.3936,8.2264,8.2702,8.2202,7.611,7.3906,7.1788,6.6232,6.5756,6.5878,6.3719,6.5409,6.6636,6.4506,6.2952,0.0,0.0,0.0,0.0,0.0,5.6969,5.7703,6.015,6.4738,6.8274,6.961,7.0697,7.3325,7.8206,7.8809,8.1415,8.7105,9.1033,9.3345,9.3896,9.5731,9.6685,9.6685,9.6979,9.7493,9.83,9.9108,9.9916,10.0686,10.1294,10.1514,10.1514,10.1514,10.1574,10.1694,10.1611,10.1594,10.1694,10.1591,10.1514,10.1514,10.1514,10.1514,10.1514,6.1824,6.2738,6.3556,6.3393,6.5743,6.9604,7.5377,8.1794,8.7059,9.0051,9.3817,9.7626,10.1385,10.1806,10.2317,10.3699,10.2306,9.895,9.3517,9.1243,8.8933,8.6244,8.2617,7.9635,7.7414,7.3659,6.8934,6.3283,6.1499,6.0313,5.9692,5.6861,5.7599,6.1403,6.4584,6.9717,7.6335,8.1106,8.5049,8.8243,9.0372,9.3125,9.597,9.6502,9.6539,9.6318,9.6612,9.6685,9.6558,9.5699,9.4006,9.2326,9.2518,9.03,8.7757,8.826,8.7306,8.5761,8.4358,8.4631,8.403,7.8817,7.6584,7.4402,6.9303,6.8944,6.9149,6.7236,6.8099,6.9221,6.9139,6.5959,6.3282,0.0,0.0,0.0,0.0,5.5915,5.7042,5.8572,6.1851,6.4861,6.7076,6.8164,7.0866,7.6078,7.6937,7.958,8.5086,8.9454,9.2207,9.3088,9.5437,9.6685,9.6685,9.6685,9.7089,9.7916,9.8741,9.9512,10.0319,10.109,10.1514,10.1514,10.1514,10.1614,10.1793,10.1594,10.1578,10.181,10.1594,10.1514,10.1514,10.1514,10.1514,10.1514,6.4554,6.506,6.5462,6.4827,6.9772,7.5317,7.9609,8.5171,8.9922,9.2805,9.6779,10.0115,10.1988,10.3512,10.4815,10.5621,10.5022,10.222,9.6442,9.5967,9.4096,9.0094,8.7841,8.5974,8.4454,8.0481,7.5275,6.88,6.6564,6.4688,6.3068,5.9338,5.8702,6.0905,6.5139,6.954,7.4412,8.31,8.9729,9.4483,9.6061,9.6685,9.6649,9.6685,9.6208,9.5602,9.6428,9.6685,9.6724,9.6896,9.5994,9.4828,9.5002,9.356,9.1762,9.1708,9.0906,8.9529,8.7111,8.6566,8.5444,8.0283,7.8648,7.7037,7.2332,7.3036,7.4382,7.3325,7.2769,7.3595,7.7179,7.178,6.6919,0.0,0.0,0.0,5.517,5.6528,5.7997,5.8107,6.0052,6.2707,6.5925,6.4934,6.7026,7.4133,7.3303,7.5946,8.3985,8.7418,9.0317,9.2831,9.5327,9.6649,9.6685,9.6685,9.7089,9.7843,9.8704,9.9512,10.0283,10.109,10.1514,10.1514,10.1514,10.1614,10.1793,10.1594,10.1578,10.181,10.1594,10.1514,10.1514,10.1514,10.1514,10.1514,6.674,6.9678,7.2717,7.4218,7.4487,7.6308,8.1721,8.6094,9.0716,9.6268,10.0296,10.4199,10.8204,10.8988,10.9288,10.929,10.8712,10.6713,10.2815,10.0895,9.9183,9.7581,9.3955,9.1459,9.0416,8.3686,7.87,7.5728,6.9441,6.6445,6.6522,6.2121,6.1376,6.377,6.512,6.9591,7.6332,8.1694,8.829,9.529,9.6282,9.6355,9.5878,9.6465,9.6208,9.5602,9.6428,9.6685,9.6669,9.6345,9.5606,9.4735,9.4528,9.3623,9.2526,9.1763,9.1229,9.0603,8.9212,8.8316,8.7281,8.5081,8.2608,8.018,7.8122,7.8292,7.8276,7.6202,7.769,7.8081,7.3845,7.1773,6.9494,0.0,0.0,0.0,5.8205,5.7471,5.7776,5.9575,5.9281,5.9942,6.2585,6.3625,6.6122,7.0954,7.149,7.461,8.1562,8.4425,8.7198,9.0244,9.3877,9.6098,9.6685,9.6685,9.6795,9.7016,9.8447,9.9218,9.9475,10.0927,10.1514,10.1514,10.1514,10.1614,10.1793,10.1594,10.1578,10.181,10.1594,10.1514,10.1514,10.1514,10.1514,10.1514,6.9847,7.4149,7.8753,8.1429,8.1785,8.2942,8.6589,8.9516,9.3206,9.8479,10.2505,10.591,10.8597,11.0774,11.19,11.1797,11.0788,10.88,10.5609,10.4509,10.319,10.1318,9.9258,9.744,9.5854,8.9905,0.0,7.9452,7.3809,6.9807,6.7324,6.4319,6.3191,6.3798,6.6153,7.0109,7.5515,8.3321,8.9769,9.4907,9.6175,9.6428,0.0,9.6539,9.6428,9.6098,9.6539,9.6685,9.6614,9.6087,9.5386,9.4591,9.42,9.3452,9.2643,9.2182,9.183,9.1385,9.0452,8.9485,8.8514,8.7546,8.5602,8.3476,8.1694,8.138,8.1184,8.0083,8.0037,7.9822,7.8592,7.4475,6.9451,6.3909,6.1851,6.0419,5.8902,5.8205,5.8205,5.9245,5.9171,5.9428,6.0456,6.1704,6.4163,6.8201,6.9596,7.2445,7.7524,8.215,8.593,8.8776,9.2831,9.5547,9.6685,9.6685,9.6685,9.6722,9.8337,9.9108,9.9125,10.0796,10.1514,10.1514,10.1514,10.1614,10.1793,10.1594,10.1578,10.181,10.1594,10.1514,10.1514,10.1514,10.1514,10.1514,7.4029,7.8865,8.395,8.6535,8.9588,9.2099,9.3305,9.4825,9.7089,10.0586,10.45,10.7008,10.7022,11.0803,11.3298,11.3192,11.2095,11.0097,10.7008,10.7385,10.6403,10.3395,10.3701,10.2799,10.0394,9.644,9.0145,0.0,7.8018,7.3017,6.6514,6.5413,6.4016,6.2555,6.698,7.077,7.4556,8.6184,9.2212,9.4111,9.5976,9.6685,9.6685,9.6685,9.6685,9.6685,9.6685,9.6685,9.6614,9.6123,9.5295,9.4429,9.4121,9.3287,9.2444,9.2582,9.2355,9.1944,9.1209,9.0222,8.9216,8.8536,8.7692,8.638,8.3972,8.3451,8.3581,8.4125,8.1587,8.0799,8.5732,7.7854,6.8752,6.3135,6.2328,6.1704,5.9722,5.9673,5.9563,5.8877,5.9942,0.0,5.9159,5.9857,6.1998,6.5888,6.7283,6.9706,7.378,8.0041,8.4905,8.8096,9.2042,9.4905,9.6539,9.6649,9.6685,9.6722,9.8337,9.9108,9.9125,10.0796,10.1514,10.1514,10.1514,10.1594,10.1697,10.1611,10.1614,10.1697,10.1611,10.1514,10.1514,10.1514,10.1514,10.1514,8.013,8.5043,8.8838,8.8005,9.2855,9.7894,10.0895,10.1691,10.2877,10.5601,10.9097,11.1303,11.1188,11.2581,11.3392,11.332,11.3608,11.3096,11.1182,11.0598,10.9497,10.7586,10.63,10.4511,10.2,9.6502,9.0436,8.3951,7.7694,7.1565,6.5566,6.3312,6.2442,6.2849,6.4444,7.0573,8.0137,8.6659,9.1296,9.4375,9.6045,9.6685,9.6685,9.6685,9.6685,9.6685,9.6685,9.6685,9.6724,9.6785,9.5774,9.4521,9.4627,9.3609,9.2355,9.2233,9.2145,9.2019,9.171,9.0537,8.9363,8.9216,8.8078,8.6865,8.638,8.6287,8.632,8.6417,8.6291,8.5331,8.2633,7.7177,7.1431,6.6439,6.6195,6.6709,6.6953,6.4824,6.3172,6.3038,6.2658,6.1288,5.8474,5.9538,6.1557,6.4323,6.3515,6.6623,7.5212,7.6783,8.074,8.7986,9.1363,9.3929,9.5675,9.6392,9.6685,9.6722,9.8337,9.9108,9.9125,10.0796,10.1514,10.1514,10.1514,10.1477,10.1517,10.1477,10.1497,10.1517,10.1477,10.1514,10.1514,10.1514,10.1514,10.1514,8.8115,9.0707,9.3006,9.4408,9.8451,10.2713,10.6098,10.8183,10.8993,10.8091,10.9104,11.0206,11.098,11.2216,11.3311,11.4506,11.4207,11.3689,11.3413,11.2613,11.1801,11.0977,10.9384,10.7487,10.5501,10.0392,9.4266,8.7051,8.0611,7.424,6.7935,6.4535,6.3159,6.3725,6.7301,7.3659,8.2009,8.7384,9.1098,9.3668,9.5845,9.6685,9.6685,9.6685,9.6685,9.6685,9.6685,9.6685,9.6668,9.6322,9.568,9.4908,9.4208,9.3434,9.2663,9.2239,9.202,9.193,9.184,9.0922,8.9913,8.951,8.8482,8.7509,8.7088,8.6978,8.6978,8.6978,8.7231,8.6111,8.181,7.7923,7.427,7.0804,6.9486,6.9096,6.9486,6.7834,6.6226,6.5201,6.4131,6.2439,5.9867,6.007,6.0566,6.0908,6.2157,6.5668,7.2018,7.4682,7.9375,8.6701,8.9988,9.2885,9.5455,9.6318,9.6685,9.6722,9.7897,9.8763,9.9301,10.0416,10.1187,10.1617,10.1517,10.1514,10.1514,10.1514,10.1514,10.1514,10.1514,10.1514,10.1514,10.1514,10.1808,10.2081,9.4982,9.592,9.7373,10.0705,10.3915,10.6786,10.9512,11.2915,11.389,11.0503,10.9487,10.951,11.0595,11.2009,11.3615,11.5407,11.4502,11.4109,11.4715,11.3987,11.3518,11.3518,11.1914,11.0194,10.8513,10.4692,9.8567,9.0096,8.4556,7.8022,7.061,6.6759,6.5215,6.5876,7.173,7.759,8.3351,8.8144,9.1383,9.3507,9.5773,9.6685,9.6685,9.6685,9.6685,9.6685,9.6685,9.6685,9.6612,9.5969,9.5639,9.5309,9.4136,9.3566,9.3235,9.2499,9.2224,9.2024,9.184,9.1216,9.0445,8.9857,8.8958,8.804,8.745,8.7159,8.6978,8.6978,8.6978,8.5766,8.1746,7.9829,7.778,7.4493,7.2918,7.1968,7.1666,7.0712,6.9291,6.737,6.5583,6.3713,6.1649,6.0667,5.9832,5.9061,6.1704,6.5154,6.9449,7.3223,7.8338,8.5086,8.8538,9.1639,9.4427,9.5951,9.6685,9.6722,9.753,9.8398,9.9342,9.9997,10.0899,10.1697,10.1614,10.1497,10.1514,10.1514,10.1514,10.1514,10.1514,10.1624,10.1677,10.1587,10.2081,10.2999,9.793,10.0503,10.2716,10.3003,10.7087,11.0385,11.0696,11.3711,11.5488,11.4389,11.4191,11.3882,11.3294,11.399,11.4613,11.4791,11.5314,11.5601,11.5702,11.4897,11.441,11.441,11.2792,11.1111,10.9303,10.6705,10.1203,9.2733,8.8349,8.1203,7.1535,6.8822,6.8485,7.0411,7.5527,8.0894,8.627,8.9018,9.2168,9.5329,9.6301,9.6685,9.6685,9.6685,9.6685,9.6685,9.6685,9.6685,9.6685,9.6612,9.6098,9.5474,9.5346,9.4777,9.4006,9.3253,9.2996,9.2831,9.2024,9.1216,9.0628,9.0732,8.9468,8.8222,8.8358,8.7666,8.6978,8.6978,8.6978,8.5766,8.1746,8.319,8.2745,7.5909,7.6889,7.806,7.683,7.4887,7.2906,7.1039,6.785,6.4987,6.2843,6.0615,6.015,6.2205,6.1361,6.409,7.1762,7.2409,7.5962,8.3381,8.726,8.9825,9.1051,9.4813,9.6685,9.6722,9.753,9.832,9.9164,10.0076,10.0885,10.1497,10.1694,10.1711,10.1514,10.1514,10.1514,10.1514,10.1514,10.1898,10.2522,10.1808,10.2505,10.3806,10.5885,10.5808,10.6487,10.9598,11.0478,11.188,11.4907,11.6597,11.7291,11.6993,11.5715,11.4892,11.5002,11.4383,11.4413,11.5308,11.5184,11.5289,11.5787,11.5492,11.5307,11.5186,11.4091,11.2678,11.0997,10.901,10.4112,9.6273,9.1435,8.5245,7.7817,7.4275,7.4182,7.715,8.0797,8.5037,8.9605,9.2266,9.478,9.7016,9.7823,9.8154,9.808,9.7603,9.7419,9.7346,9.6869,9.6685,9.6685,9.6685,9.6502,9.6135,9.5639,9.5272,9.4777,9.3492,9.3088,9.2905,9.2024,9.1583,9.127,9.0971,9.0014,8.904,8.8729,8.7891,8.7203,8.7203,8.7064,8.65,8.4886,8.4058,8.3288,8.2166,8.0932,8.0262,8.0719,7.8581,7.6206,7.4117,7.0052,6.7107,6.6223,6.2818,6.1851,6.4787,6.2585,6.3833,7.0,7.1653,7.51,8.1048,8.6485,8.9713,9.0592,9.4666,9.6685,9.6685,9.7016,9.7918,9.9284,9.9576,10.0399,10.1514,10.1594,10.1574,10.1514,10.1514,10.1514,10.1494,10.2008,10.2412,10.2705,10.2889,10.3696,10.4614,11.1889,11.0606,11.0583,11.501,11.4205,11.419,11.7886,11.8393,11.8411,11.8411,11.6898,11.5995,11.6299,11.511,11.4685,11.5798,11.539,11.5296,11.5785,11.5799,11.5803,11.5708,11.4894,11.3786,11.241,11.0496,10.6507,10.0616,9.5452,9.0194,8.4934,8.1025,8.0818,8.3857,8.6536,8.9691,9.3109,9.5294,9.7016,9.83,9.8888,9.9108,9.9035,9.8484,9.8264,9.8154,9.7346,9.7052,9.7016,9.6795,9.6685,9.6612,9.6025,9.5859,9.5565,9.4226,9.3639,9.3272,9.2391,9.1987,9.1711,9.1409,9.069,8.9897,8.9377,8.8444,8.7683,8.7358,8.7152,8.6978,8.6978,8.5159,8.4122,8.5741,8.3752,8.2192,8.2681,8.0544,7.8028,7.5667,7.0832,6.7825,6.8148,6.4402,6.3503,6.7283,6.5632,6.6256,7.0426,7.2055,7.5322,8.0681,8.6407,8.9784,9.0592,9.4666,9.6685,9.6685,9.6685,9.7607,9.9323,9.9644,10.0506,10.1594,10.1497,10.1514,10.1514,10.1514,10.1315,10.1106,10.191,10.2217,10.22,10.2783,10.3795,10.4887,11.4182,11.4596,11.5393,11.7899,11.8298,11.828,11.8411,11.8411,11.8411,11.8411,11.8393,11.811,11.7293,11.6506,11.6016,11.6016,11.5882,11.5899,11.5917,11.5785,11.5803,11.5708,11.4894,11.4091,11.32,11.0821,10.8286,10.5718,10.0805,9.6274,9.2114,8.8737,8.816,9.0123,9.2603,9.4791,9.6705,9.7512,9.8337,9.9108,9.9108,9.9108,9.9108,9.9088,9.9108,9.8998,9.8154,9.7897,9.7769,9.6979,9.6685,9.6685,9.6685,9.6685,9.6539,9.5712,9.4923,9.4116,9.3308,9.2464,9.1894,9.2285,9.1643,9.0779,9.0378,8.9477,8.8498,8.7502,8.7152,8.6978,8.6978,8.6978,8.6387,8.4606,8.4889,8.454,8.2235,8.017,7.7899,7.5213,6.9638,6.6468,6.7584,6.4714,6.4811,6.9669,7.0756,7.2261,7.4683,7.4111,7.6644,8.3161,8.7271,8.9803,9.0592,9.4666,9.6685,9.6685,9.6685,9.753,9.9181,10.0686,10.1614,10.1793,10.1594,10.1514,10.1514,10.1514,10.0908,10.0092,10.0809,10.0976,10.08,10.0811,10.2395,10.4621,11.8902,11.8588,11.8576,11.9893,11.9704,11.9592,12.0188,12.0315,12.0315,12.0315,11.9789,11.9295,11.8981,11.8206,11.742,11.6905,11.682,11.6813,11.6686,11.6225,11.6113,11.6611,11.5811,11.4413,11.2503,11.1704,10.9312,10.5312,10.2411,9.8974,9.4996,9.3921,9.4126,9.5461,9.6252,9.7538,9.9181,9.9438,9.9989,10.0686,10.0686,10.0686,10.0686,10.0099,9.9916,9.9805,9.8998,9.8374,9.786,9.7603,9.7163,9.6685,9.6685,9.6685,9.6539,9.5749,9.5327,9.4979,9.432,9.351,9.2938,9.3327,9.238,9.1324,9.126,8.9984,8.8498,8.7502,8.7152,8.6978,8.6978,8.6554,8.6314,8.6691,8.506,8.37,8.3559,8.0881,7.8297,7.6706,7.3235,7.1198,7.1759,6.9853,6.8995,7.0036,7.083,7.2114,7.3964,7.7011,7.936,8.0901,8.7509,9.0922,9.0592,9.4666,9.6685,9.6722,9.7273,9.8374,9.9952,10.098,10.1497,10.1594,10.1497,10.1514,10.1514,10.1514,10.0908,10.0107,10.1388,10.1516,10.0893,10.2024,10.2901,10.3711,12.1105,12.0681,12.0484,12.1011,12.0702,12.0488,12.1092,12.1195,12.1195,12.1195,12.0691,12.0277,12.0277,11.9789,11.8915,11.7817,11.7698,11.7603,11.7588,11.7113,11.6919,11.6979,11.6499,11.5002,11.2584,11.2298,11.0306,10.6418,10.4001,10.1609,9.915,9.8855,9.922,10.0192,10.0192,10.0686,10.1677,10.1677,10.1788,10.1991,10.1991,10.1808,10.1384,10.0907,10.0816,10.0613,9.9842,9.9218,9.8704,9.808,9.7566,9.7108,9.6891,9.68,9.669,9.6212,9.5901,9.5644,9.5258,9.4557,9.3965,9.4281,9.335,9.2289,9.1787,9.0214,8.8672,8.8009,8.7455,8.7007,8.6645,8.6151,8.6183,8.7269,8.5009,8.3429,8.4198,8.1131,7.8295,7.6992,7.5093,7.3716,7.331,7.3435,7.3362,7.2863,7.4977,7.6607,7.7304,7.9396,8.1236,8.2784,8.8978,9.2207,9.1987,9.5107,9.6832,9.7163,9.7891,9.8753,9.976,10.06,10.1115,10.1514,10.1514,10.1514,10.1514,10.1514,10.109,10.0505,10.1497,10.1385,10.0905,10.169,10.2289,10.2691,12.1208,12.122,12.122,12.122,12.122,12.122,12.1182,12.1195,12.1195,12.1195,12.1182,12.122,12.122,12.1091,12.0391,11.87,11.8502,11.8508,11.8412,11.8308,11.7923,11.7121,11.6916,11.5693,11.3303,11.2583,11.1,10.8512,10.5613,10.41,10.399,10.3219,10.3219,10.388,10.388,10.388,10.388,10.388,10.3403,10.2705,10.2705,10.2191,10.1514,10.1514,10.1514,10.1404,10.0706,10.0319,10.0099,9.8557,9.8026,9.7918,9.7337,9.7137,9.7119,9.7026,9.664,9.6177,9.6195,9.5622,9.5047,9.5185,9.4553,9.353,9.2064,9.0407,8.9116,8.893,8.8082,8.7107,8.6182,8.5837,8.5909,8.6443,8.4647,8.3332,8.3893,8.0936,7.8112,7.6533,7.5784,7.4793,7.3201,7.5858,7.7567,7.7384,8.1693,8.4078,8.3401,8.1379,8.2581,8.7758,9.1345,9.3529,9.4299,9.5914,9.7126,9.8007,9.8604,9.894,9.9013,9.976,10.0597,10.1514,10.1514,10.1514,10.1514,10.1514,10.1309,10.1107,10.1098,10.0989,10.0795,10.0395,10.0912,10.1796,12.1384,12.1398,12.1398,12.1398,12.1398,12.1396,12.1494,12.1518,12.1518,12.1518,12.1382,12.1398,12.1398,12.1195,12.0999,12.0607,11.9915,11.9484,11.9416,11.8217,11.7702,11.8013,11.6216,11.431,11.2603,11.1804,11.0202,10.7794,10.709,10.6103,10.4777,10.4593,10.432,10.388,10.388,10.388,10.388,10.388,10.3403,10.2705,10.2705,10.2191,10.1514,10.1514,10.1514,10.1514,10.1294,10.0796,10.0209,9.9842,9.9446,9.903,9.8884,9.8614,9.8244,9.7451,9.7137,9.7063,9.7225,9.6631,9.6,9.6191,9.5186,9.3718,9.208,9.1297,9.072,9.0078,8.9015,8.8151,8.788,8.6216,8.4916,8.5062,8.2594,8.0708,8.0861,8.011,7.9376,7.8972,7.9837,8.0009,7.8876,8.0124,8.0214,7.8217,8.0418,8.2231,8.3124,8.3955,8.551,8.8062,9.1969,9.4116,9.4299,9.5914,9.7419,9.8851,9.9586,10.031,10.0896,10.1099,10.1311,10.1514,10.1514,10.1514,10.1514,10.1514,10.0981,10.0288,10.0895,10.0989,10.0699,9.9796,10.0404,10.1496,12.1518,12.1506,12.1506,12.1506,12.1506,12.1491,12.16,12.1612,12.1612,12.1612,12.1503,12.1506,12.1506,12.1422,12.1283,12.1384,12.0815,12.0417,12.0417,11.9196,11.8479,11.839,11.6415,11.4508,11.2908,11.2102,11.0474,10.8101,10.7792,10.689,10.5715,10.5715,10.5495,10.4981,10.4981,10.4981,10.4981,10.4981,10.4614,10.3806,10.3403,10.2779,10.2008,10.1604,10.1514,10.1514,10.1514,10.12,10.078,10.0512,10.0205,9.9936,9.9721,9.952,9.9258,9.8815,9.7889,9.6907,9.6641,9.6528,9.6471,9.6557,9.5663,9.4383,9.3037,9.2084,9.13,9.0688,8.983,8.89,8.7992,8.6728,8.5444,8.4242,8.259,8.1195,8.0461,8.0661,8.0918,8.0918,8.2643,8.3588,8.2963,8.4386,8.4293,8.1776,8.3873,8.5116,8.4896,8.7603,8.9345,8.9732,9.2721,9.4483,9.485,9.6832,9.8194,9.8979,9.9781,10.0386,10.0787,10.0787,10.109,10.1514,10.1514,10.1677,10.2008,10.2008,10.1904,10.1812,10.1806,10.2011,10.2102,10.0994,10.1086,10.16,12.1612,12.1612,12.1612,12.1612,12.1612,12.1612,12.1612,12.1612,12.1612,12.1612,12.1612,12.1612,12.1612,12.1506,12.1482,12.16,12.1396,12.1297,12.1195,12.039,11.9406,11.8403,11.678,11.5086,11.3406,11.2505,11.1091,10.8982,10.8196,10.7388,10.6617,10.6507,10.6376,10.6376,10.6376,10.6376,10.6376,10.6376,10.5899,10.4997,10.4394,10.3586,10.2815,10.2081,10.1918,10.1788,10.1677,10.1698,10.1608,10.0794,10.0597,10.0603,10.0204,10.0111,10.0109,10.0179,9.8709,9.6814,9.5997,9.6183,9.6591,9.6443,9.598,9.5281,9.4311,9.3,9.1882,9.1571,9.0868,8.9799,8.8073,8.7424,8.6297,8.3818,8.323,8.246,8.0681,8.1562,8.237,8.237,8.4609,8.6119,8.6074,8.7776,8.8179,8.6386,8.8654,8.9495,8.8005,9.1216,9.2831,9.2187,9.3674,9.4923,9.5859,9.8154,9.9204,9.9034,9.9832,10.0217,10.0217,10.0398,10.0901,10.1698,10.1698,10.2081,10.2889,10.2815,10.3182,10.3806,10.3109,10.3403,10.3923,10.2818,10.2306,10.2288,12.1612,12.1612,12.1612,12.1612,12.1612,12.1612,12.1612,12.1612,12.1612,12.1612,12.1612,12.1612,12.1612,12.1589,12.1589,12.16,12.1615,12.1494,12.1384,12.0616,11.9315,11.7594,11.5886,11.4316,11.2486,11.18,11.0897,10.979,10.8982,10.8175,10.7388,10.6706,10.6376,10.6376,10.6376,10.6376,10.6376,10.6376,10.5899,10.5107,10.5018,10.4394,10.3696,10.3586,10.3513,10.3403,10.2779,10.2522,10.2301,10.08,10.0595,10.081,10.0794,10.0481,10.0308,10.0289,9.9563,9.8523,9.7743,9.7074,9.6443,9.5774,9.5877,9.5941,9.5109,9.4599,9.4274,9.4203,9.2879,9.1685,9.1356,8.8576,8.5655,8.3708,8.2373,8.0677,7.8222,8.0959,8.3197,8.3197,8.593,8.8026,8.8489,8.8288,8.8508,8.9551,8.9441,9.0136,9.2042,9.2758,9.3657,9.4867,9.5161,9.6025,9.7493,9.9255,10.0113,10.0082,10.0888,10.1311,10.1311,10.1987,10.2399,10.2522,10.2522,10.2999,10.3696,10.2999,10.3182,10.388,10.3806,10.421,10.4709,10.3,10.3203,10.4008,12.1612,12.1612,12.1612,12.1612,12.1612,12.1612,12.1612,12.1612,12.1612,12.1612,12.1612,12.1612,12.1612,12.1612,12.1612,12.1612,12.1612,12.1385,12.0787,12.0018,11.9022,11.7697,11.5486,11.3594,11.1893,11.1395,11.089,11.0398,10.9402,10.8492,10.7705,10.6896,10.6502,10.6376,10.6376,10.6376,10.6376,10.6376,10.6192,10.5789,10.529,10.4908,10.4504,10.41,10.388,10.39,10.3513,10.3109,10.2615,10.2002,10.1609,10.1379,10.159,10.1481,10.1204,10.1015,9.9749,9.8486,9.8523,9.7595,9.6706,9.7139,9.6421,9.5632,9.5511,9.4721,9.4097,9.4448,9.3583,9.2571,9.204,9.0231,8.8236,8.6447,8.4539,8.3003,8.218,8.3656,8.4966,8.5306,8.7802,8.975,9.0319,9.0484,9.085,9.1637,9.171,9.2151,9.3033,9.3932,9.4923,9.6098,9.6575,9.7566,9.9181,9.9916,10.0783,10.1821,10.2095,10.2617,10.3215,10.3406,10.3586,10.3623,10.3391,10.3806,10.4504,10.4079,10.4189,10.4483,10.4483,10.4798,10.4992,10.4186,10.4216,10.4601,12.1612,12.1612,12.1612,12.1612,12.1612,12.1612,12.1612,12.1612,12.1612,12.1612,12.1612,12.1612,12.1612,12.1612,12.1612,12.1612,12.1612,12.1293,12.06,11.9715,11.8612,11.7393,11.4787,11.2889,11.1604,11.1388,11.118,11.0987,11.0008,10.8982,10.8192,10.7393,10.6811,10.6497,10.6397,10.6376,10.6376,10.6376,10.6376,10.6302,10.5715,10.5422,10.529,10.4687,10.4504,10.4525,10.4284,10.3806,10.3203,10.2998,10.262,10.211,10.2218,10.2089,10.1811,10.15,9.9922,9.8381,9.8729,9.8003,9.7431,9.8516,9.7481,9.6246,9.6566,9.5479,9.4504,9.5034,9.4411,9.3602,9.2849,9.2034,9.0881,8.9138,8.7263,8.5999,8.591,8.6541,8.7174,8.7647,8.98,9.1491,9.2152,9.2736,9.3101,9.3157,9.3852,9.4092,9.3693,9.518,9.6502,9.7493,9.8175,9.9113,10.0399,10.0806,10.1697,10.3087,10.3291,10.3813,10.4598,10.4587,10.4598,10.4611,10.4411,10.4692,10.5422,10.518,10.518,10.5422,10.5422,10.5422,10.5422,10.5422,10.5304,10.5085,12.1612,12.1612,12.1612,12.1612,12.1612,12.1612,12.1612,12.1612,12.1612,12.1612,12.1612,12.1612,12.1612,12.1612,12.1612,12.1612,12.1612,12.1612,12.1485,11.9985,11.8103,11.5809,11.3298,11.202,11.1911,11.189,11.1816,11.18,11.0893,11.0117,10.9284,10.8287,10.7409,10.6705,10.6518,10.6376,10.6376,10.6376,10.6376,10.6376,10.6302,10.6302,10.6302,10.6192,10.6192,10.6082,10.5311,10.4997,10.4724,10.3182,10.281,10.2807,10.209,10.1489,10.1015,10.0998,10.0296,9.9335,9.8287,9.8449,9.8879,9.8832,9.9058,9.9316,9.9182,9.8328,9.7586,9.7622,9.6411,9.5347,9.546,9.3782,9.1764,9.0156,8.9235,8.7894,8.5588,8.7846,8.9713,8.977,9.1755,9.3436,9.4301,9.4078,9.3982,9.4189,9.4753,9.5173,9.5308,9.6832,9.8411,9.9989,10.0296,10.0504,10.0578,10.232,10.3192,10.3396,10.4098,10.4504,10.4598,10.541,10.5586,10.5404,10.5384,10.5703,10.6192,10.5401,10.5605,10.6302,10.6302,10.6302,10.6302,10.6302,10.6297,10.6291,12.1612,12.1612,12.1612,12.1612,12.1612,12.1612,12.1612,12.1612,12.1612,12.1612,12.1612,12.1612,12.1612,12.1612,12.1612,12.1612,12.1612,12.1189,12.01,11.9908,11.8281,11.4821,11.2999,11.2103,11.2103,11.1995,11.202,11.2287,11.1293,11.0713,11.038,10.8893,10.8009,10.7409,10.6992,10.6693,10.6585,10.6585,10.6705,10.6792,10.6502,10.6497,10.6601,10.6402,10.6376,10.6397,10.6009,10.5605,10.4997,10.441,10.3884,10.3509,10.3299,10.3024,10.2489,10.1117,10.0606,10.0184,9.9279,9.8962,9.9233,10.051,9.999,9.9242,9.9518,9.8794,9.8257,9.8887,9.7538,9.634,9.6658,9.5163,9.3922,9.3951,9.1713,9.0094,9.0522,9.0785,9.1068,9.1447,9.3132,9.461,9.5441,9.5847,9.6308,9.6842,9.7483,9.7829,9.7906,9.9333,10.0172,10.0283,10.1878,10.2586,10.2107,10.3291,10.4317,10.5089,10.5385,10.5907,10.6485,10.649,10.6478,10.6398,10.6206,10.6203,10.6397,10.6009,10.6082,10.6376,10.6376,10.6376,10.6376,10.6376,10.6376,10.6376,12.1281,12.1295,12.1194,12.099,12.0912,12.0912,12.0912,12.1105,12.1295,12.1295,12.1506,12.1612,12.1612,12.1612,12.1503,12.1307,12.1295,12.0709,11.9303,11.9285,11.8104,11.5209,11.358,11.2678,11.2678,11.2313,11.2189,11.2509,11.1795,11.1307,11.1084,10.9912,10.8803,10.8012,10.7623,10.7099,10.671,10.6792,10.6914,10.6978,10.659,10.6622,10.6689,10.6497,10.6376,10.6376,10.6376,10.6009,10.5495,10.5495,10.5091,10.4692,10.4485,10.4003,10.3223,10.1397,10.1002,10.1103,10.1,10.0593,10.0389,10.1799,10.091,9.9828,10.0001,9.937,9.8871,9.9556,9.8409,9.7467,9.8042,9.7209,9.6634,9.7162,9.4947,9.366,9.4973,9.4399,9.4031,9.4467,9.5692,9.6728,9.7265,9.7783,9.8263,9.8836,9.9259,9.968,10.0119,10.0806,10.12,10.1384,10.3399,10.4293,10.3801,10.4493,10.5302,10.6093,10.6411,10.6878,10.7606,10.7183,10.7116,10.6998,10.6611,10.6497,10.6376,10.6376,10.6376,10.6376,10.6376,10.6376,10.6376,10.6376,10.6376,10.6376,12.0711,12.0511,12.0288,11.9596,11.9505,11.9505,11.9505,12.0105,12.0511,12.0511,12.1118,12.16,12.16,12.16,12.1307,12.0604,12.0511,12.0201,11.9516,11.8111,11.7119,11.701,11.5021,11.3792,11.3792,11.2881,11.2509,11.2509,11.2509,11.2101,11.1283,11.1084,10.9993,10.8201,10.8201,10.7709,10.6693,10.6918,10.7019,10.6998,10.6792,10.671,10.6689,10.6497,10.6376,10.6376,10.6376,10.6376,10.6376,10.6376,10.6376,10.6192,10.5422,10.4006,10.2595,10.1808,10.1514,10.1881,10.352,10.35,10.2903,10.2287,10.1997,10.1702,10.1111,10.0313,9.9704,9.9741,9.9076,9.8799,9.9815,9.9999,9.9794,9.9194,9.9118,9.882,9.8003,9.8598,9.9118,9.9118,9.9626,9.9999,9.9999,9.9816,9.9704,9.9704,9.9741,10.0293,10.1702,10.0916,10.1384,10.3806,10.4687,10.5195,10.5515,10.5879,10.6093,10.6093,10.7102,10.7606,10.7606,10.7413,10.7198,10.6998,10.6812,10.6585,10.6376,10.6376,10.6376,10.6376,10.6376,10.6376,10.6376,10.6376,10.6376,10.6376,12.1293,12.0911,12.0416,12.0192,11.9785,11.9505,11.9505,11.972,11.9808,11.9808,11.9977,12.0097,12.0097,12.0097,11.9984,11.9785,11.9808,11.9691,11.9522,11.8093,11.7704,11.8715,11.5582,11.3792,11.3792,11.2881,11.2509,11.2509,11.2509,11.2398,11.2101,11.1484,11.0787,11.0088,10.9079,10.839,10.7915,10.7383,10.7316,10.7394,10.6914,10.6812,10.6914,10.6486,10.6376,10.6376,10.6376,10.6376,10.6376,10.6376,10.6376,10.6397,10.6082,10.5678,10.4981,10.3586,10.3182,10.3191,10.3087,10.2883,10.302,10.4387,10.3907,10.3094,10.3075,10.1926,10.1,10.1703,10.0001,9.9021,10.072,10.0016,9.9313,9.9862,9.9452,9.9006,9.8783,9.8932,9.9118,9.9118,9.977,10.018,10.018,10.0701,10.0998,10.0998,10.1889,10.259,10.2914,10.3685,10.4212,10.4199,10.5503,10.6197,10.6114,10.6508,10.6808,10.6908,10.7418,10.7606,10.7606,10.7183,10.7116,10.6998,10.6611,10.6497,10.6376,10.6376,10.6376,10.6376,10.6376,10.6376,10.6376,10.6376,10.6376,10.6376,12.1181,12.0604,11.9984,11.9799,11.9101,11.8706,11.8706,11.888,11.9126,11.9126,11.9287,11.9505,11.9505,11.9505,11.9391,11.9105,11.8809,11.8706,11.8706,11.7793,11.7699,11.8612,11.5799,11.4399,11.4696,11.3208,11.2509,11.2509,11.2509,11.2509,11.2509,11.1989,11.1481,11.1003,11.0202,10.9291,10.8521,10.8118,10.7807,10.7605,10.6982,10.6898,10.7015,10.6601,10.6376,10.6376,10.6376,10.6513,10.6502,10.6502,10.6502,10.6502,10.6418,10.6376,10.6192,10.5201,10.4908,10.4798,10.4284,10.4099,10.4386,10.5805,10.5006,10.391,10.3799,10.3001,10.25,10.3093,10.1796,10.0907,10.2111,10.1407,10.0685,10.0981,10.0888,10.0795,10.0886,10.0886,10.0997,10.1477,10.1681,10.1793,10.1793,10.2498,10.3019,10.3019,10.3391,10.3907,10.4421,10.4989,10.5277,10.5378,10.6198,10.659,10.6502,10.6792,10.6978,10.7198,10.7413,10.7491,10.7491,10.7084,10.7015,10.6894,10.6507,10.6376,10.6376,10.6376,10.6376,10.6376,10.6376,10.6376,10.6376,10.6376,10.6376,10.6376,12.0703,12.0007,11.9308,11.8688,11.7892,11.7412,11.7412,11.7989,11.8393,11.8393,11.8897,11.9308,11.9308,11.9308,11.9091,11.8506,11.7808,11.7412,11.7412,11.7412,11.7417,11.7499,11.5914,11.5307,11.5989,11.3706,11.2509,11.2509,11.2509,11.2509,11.2509,11.2509,11.2021,11.1098,11.1298,11.0425,10.88,10.8885,10.8386,10.7586,10.7198,10.7019,10.6901,10.6601,10.6397,10.6376,10.6376,10.6502,10.6726,10.6726,10.6726,10.659,10.6497,10.6376,10.6376,10.6376,10.6376,10.6376,10.6376,10.6376,10.6402,10.6517,10.5483,10.4406,10.3891,10.3891,10.4003,10.4096,10.3799,10.35,10.3685,10.3495,10.312,10.2399,10.2879,10.3511,10.3815,10.3797,10.4095,10.5117,10.4616,10.4096,10.4096,10.4783,10.5192,10.5322,10.4411,10.4594,10.6206,10.5402,10.5507,10.7002,10.6816,10.6693,10.671,10.6689,10.6792,10.6978,10.7218,10.7316,10.7277,10.7099,10.6877,10.6689,10.6518,10.6376,10.6376,10.6376,10.6376,10.6376,10.6376,10.6376,10.6376,10.6376,10.6376,10.6376,12.1393,12.0393,11.9494,11.9308,11.8205,11.7412,11.7412,11.7503,11.7589,11.7589,11.7788,11.7907,11.7907,11.7907,11.779,11.7684,11.7499,11.7412,11.7412,11.7412,11.7684,11.8204,11.6199,11.5307,11.5989,11.3706,11.2509,11.2509,11.2509,11.2509,11.2509,11.2509,11.2378,11.2115,11.1618,11.1078,11.0593,10.9389,10.868,10.819,10.7499,10.7002,10.6808,10.6705,10.6486,10.6376,10.6376,10.6418,10.6497,10.6497,10.6497,10.6497,10.6397,10.6376,10.6376,10.6376,10.6376,10.6376,10.6376,10.6376,10.6213,10.5573,10.5773,10.6098,10.5721,10.4479,10.37,10.4502,10.3498,10.279,10.4102,10.3805,10.3396,10.3896,10.4098,10.4287,10.461,10.4612,10.4799,10.5192,10.5006,10.4913,10.4913,10.5005,10.5301,10.6083,10.5801,10.6097,10.7215,10.7102,10.7006,10.722,10.7002,10.6894,10.671,10.6507,10.6601,10.6792,10.7101,10.72,10.7116,10.7002,10.6877,10.6689,10.6518,10.6376,10.6376,10.6376,10.6376,10.6376,10.6376,10.6376,10.6376,10.6376,10.6376,10.6376,12.1092,12.0201,11.9391,11.9091,11.8108,11.7412,11.7412,11.7412,11.7412,11.7412,11.7412,11.7412,11.7412,11.7412,11.7412,11.7412,11.7412,11.7412,11.7412,11.7412,11.7582,11.8006,11.6117,11.5183,11.5485,11.3491,11.2509,11.2509,11.2509,11.2509,11.2509,11.2509,11.2509,11.2509,11.212,11.1712,11.1209,11.0411,10.97,10.9,10.8493,10.8201,10.7902,10.7289,10.7095,10.7095,10.6602,10.6497,10.6507,10.6507,10.6507,10.6523,10.6418,10.6376,10.6376,10.6376,10.6376,10.6376,10.6376,10.6376,10.6302,10.5789,10.6093,10.639,10.5904,10.5373,10.5191,10.5807,10.4984,10.4383,10.4902,10.4507,10.4206,10.4226,10.45,10.4913,10.5095,10.5307,10.5498,10.6117,10.5878,10.5916,10.6325,10.5801,10.5799,10.6804,10.661,10.681,10.7279,10.7376,10.7396,10.7279,10.7118,10.6921,10.68,10.6507,10.6476,10.6601,10.6894,10.6995,10.6894,10.6894,10.6677,10.6581,10.6402,10.6376,10.6376,10.6376,10.6376,10.6376,10.6376,10.6376,10.6376,10.6376,10.6376,10.6376,12.0607,11.9885,11.9215,11.8616,11.789,11.7412,11.7412,11.7412,11.7412,11.7412,11.7412,11.7412,11.7412,11.7412,11.7412,11.7412,11.7412,11.7412,11.7412,11.7412,11.7412,11.7412,11.591,11.5018,11.5018,11.3421,11.2509,11.2509,11.2509,11.2509,11.2509,11.2509,11.2509,11.2509,11.2509,11.2101,11.1506,11.1415,11.0699,10.9812,10.9596,10.9416,10.9218,10.832,10.7999,10.7878,10.7106,10.6911,10.6905,10.6905,10.6795,10.6627,10.6476,10.6376,10.6376,10.6376,10.6376,10.6376,10.6376,10.6376,10.6397,10.6192,10.6376,10.6402,10.5818,10.6296,10.6918,10.6901,10.6812,10.639,10.5785,10.551,10.5091,10.4394,10.4908,10.5374,10.5695,10.5918,10.6302,10.7222,10.6897,10.6919,10.7495,10.6802,10.6612,10.7205,10.7081,10.7019,10.7019,10.7215,10.7183,10.7183,10.7096,10.6921,10.6921,10.6696,10.6596,10.6617,10.6896,10.6979,10.6905,10.691,10.6806,10.6596,10.6507,10.6376,10.6376,10.6376,10.6376,10.6376,10.6376,10.6376,10.6376,10.6376,10.6376,10.6376,12.0486,11.9489,11.8597,11.8524,11.789,11.7412,11.7412,11.7412,11.7412,11.7412,11.7412,11.7412,11.7412,11.7412,11.7412,11.7412,11.7412,11.7412,11.7412,11.7412,11.7412,11.7412,11.591,11.5018,11.5018,11.3421,11.2509,11.2509,11.2509,11.2509,11.2509,11.2509,11.2509,11.2509,11.2509,11.2398,11.2286,11.158,11.099,11.0495,10.9919,10.9301,10.8891,10.9118,10.9014,10.868,10.8703,10.8183,10.7504,10.7504,10.699,10.6381,10.6397,10.6376,10.6376,10.6376,10.6376,10.6376,10.6376,10.6376,10.6192,10.5495,10.6376,10.7205,10.6513,10.6387,10.6486,10.671,10.6585,10.6402,10.6292,10.6213,10.6192,10.6082,10.6213,10.6313,10.6484,10.6693,10.7025,10.7296,10.738,10.7514,10.7606,10.7285,10.7205,10.7316,10.7081,10.7019,10.7019,10.7002,10.7002,10.7002,10.68,10.6714,10.6714,10.7221,10.7425,10.7425,10.8217,10.8202,10.7504,10.7694,10.7579,10.7388,10.6727,10.6376,10.6376,10.6376,10.6376,10.6376,10.6376,10.6376,10.6376,10.6376,10.6376,10.6376,11.9984,11.9177,11.8393,11.8006,11.7606,11.7412,11.7412,11.7412,11.7412,11.7412,11.7805,11.7989,11.7907,11.7788,11.7693,11.7888,11.7499,11.7286,11.7412,11.7412,11.7189,11.6706,11.6001,11.5501,11.5018,11.4312,11.3883,11.3883,11.2992,11.2509,11.2509,11.2509,11.2509,11.2509,11.2509,11.2509,11.2509,11.2101,11.1711,11.1283,11.098,11.0698,11.03,11.0014,10.9787,10.9617,10.9117,10.8591,10.8306,10.8306,10.7991,10.7697,10.7697,10.7697,10.7697,10.7697,10.7697,10.7697,10.7697,10.7697,10.7587,10.7294,10.7697,10.8175,10.7807,10.7697,10.7813,10.7899,10.7798,10.7587,10.7205,10.7095,10.6911,10.6507,10.6376,10.6418,10.6502,10.6796,10.7101,10.7415,10.7474,10.7606,10.7606,10.7396,10.7314,10.7121,10.6901,10.6812,10.6689,10.6792,10.6816,10.6816,10.7214,10.7409,10.7409,10.8009,10.8306,10.8306,10.9092,10.8982,10.8306,10.8392,10.8392,10.8175,10.7404,10.7095,10.7021,10.6617,10.6376,10.6376,10.6376,10.6691,10.7095,10.7095,10.7388,10.7697]}]]